GFSGL_925_thetae_000.txt.gz
Theta_e
306 304 304 303 302 301 301 300 299 298 297 297 296 295 295 295 295 293 292 292 293 292 293 293 293 293 293 293 293 293 293 293 293 293 294 294 294 294 296 295 296 296 296
305 304 303 302 301 300 300 298 296 296 296 295 295 294 294 294 293 293 293 293 293 293 292 292 292 292 292 291 291 291 291 292 292 291 292 292 292 292 292 293 294 296 296
305 304 302 301 299 298 297 296 295 295 294 293 292 291 290 290 290 290 290 290 289 288 288 289 290 290 290 290 290 290 290 290 289 290 290 290 290 291 291 291 292 293 294
305 303 302 300 298 296 296 294 293 293 291 291 290 290 290 289 289 289 288 288 287 286 286 286 286 288 289 289 289 289 288 288 287 287 288 288 289 290 290 290 291 291 291
303 302 301 300 297 296 295 293 292 291 290 289 289 289 289 289 288 286 285 285 285 285 284 284 285 286 287 287 288 287 287 286 286 286 286 287 288 289 290 290 291 291 291
302 301 301 300 297 296 294 293 292 290 289 289 289 289 289 288 287 285 285 284 283 283 283 283 284 285 286 287 286 286 285 284 284 284 284 285 285 286 287 287 288 289 288
301 300 300 297 296 295 295 293 291 290 289 289 289 289 288 288 286 285 284 282 281 281 282 282 283 284 284 285 285 284 284 285 285 284 284 284 284 284 284 285 286 287 287
298 299 298 297 296 295 294 293 291 290 289 289 290 288 288 287 286 285 283 282 281 281 281 281 282 282 283 283 283 282 283 283 283 283 284 284 284 284 284 285 286 286 286
297 298 297 295 295 294 293 292 291 289 289 290 289 288 287 286 285 285 283 281 281 280 280 281 282 282 282 282 282 282 282 282 283 283 283 284 284 284 284 284 284 284 285
296 296 294 294 294 294 293 292 290 290 289 289 288 287 286 285 285 284 282 281 280 280 280 280 280 281 281 281 281 282 282 283 283 282 282 282 282 282 283 284 285 284 283
295 295 294 293 293 292 292 290 290 289 289 288 287 286 285 285 284 283 281 280 280 279 279 279 280 281 280 280 280 280 280 280 280 280 280 280 281 282 282 283 284 285 284
295 294 294 293 292 291 290 289 289 289 288 287 286 285 284 283 282 281 280 279 279 278 278 279 279 280 280 279 279 279 279 279 278 279 280 281 282 283 283 284 284 285 286
293 292 292 291 291 290 289 289 289 288 287 286 284 283 282 281 280 279 278 277 277 277 277 278 278 279 278 279 280 280 280 279 280 281 281 282 282 282 283 283 284 285 285
291 291 291 290 290 290 289 289 288 287 286 284 283 281 280 279 278 277 277 277 276 276 276 278 278 277 278 279 279 279 279 280 280 281 281 281 282 283 284 284 286 286 286
290 290 289 290 290 289 289 287 287 286 285 283 281 280 279 278 277 277 277 277 277 276 277 277 277 276 277 278 278 278 279 279 279 279 280 281 282 282 283 284 285 286 287
289 289 289 289 289 289 288 287 287 286 285 283 282 280 278 277 277 276 276 277 277 276 277 277 276 276 277 277 278 277 278 278 278 279 280 280 281 282 283 284 285 287 287
289 288 288 288 289 289 288 286 286 285 285 284 282 281 278 277 277 277 276 276 277 276 276 276 276 276 276 276 277 277 277 278 278 278 280 280 280 281 283 283 284 284 285
288 287 287 288 288 287 286 285 285 285 285 284 284 282 278 278 278 277 276 276 276 275 275 275 275 275 275 275 276 276 277 277 277 277 279 279 280 281 282 283 282 283 284
289 287 286 285 286 286 285 285 285 285 285 284 284 282 279 279 278 278 277 275 275 275 274 275 275 275 275 275 275 275 276 277 277 276 277 279 280 281 281 281 282 282 283
289 287 286 285 285 285 286 285 284 285 284 284 283 282 280 278 278 278 277 276 275 274 274 274 274 274 274 274 274 274 275 275 275 275 276 277 278 280 281 281 281 282 282
288 287 286 285 285 286 285 284 285 284 284 284 283 282 280 278 278 278 277 276 275 274 273 273 273 273 273 272 273 272 273 273 273 273 274 275 277 278 279 280 280 281 280
286 285 285 286 285 285 285 284 283 284 284 284 283 282 281 280 279 278 278 277 275 275 274 273 272 272 272 271 272 272 272 271 271 271 272 274 276 276 277 279 279 279 279
285 285 284 285 285 286 284 284 284 284 284 284 283 282 282 281 280 279 277 277 276 275 274 273 272 272 271 271 271 271 271 270 270 270 271 273 275 275 276 277 277 278 278
285 285 284 284 285 285 285 284 284 283 283 284 283 283 282 281 280 279 278 277 277 275 275 274 272 272 271 271 270 269 269 269 269 269 271 273 274 274 275 276 275 276 277
284 285 284 284 285 285 285 284 284 283 283 284 284 283 282 281 280 279 278 278 277 276 275 274 273 272 271 271 271 270 269 269 269 269 271 272 272 273 273 274 274 275 275
285 285 284 284 284 285 285 285 284 283 283 283 283 282 282 281 280 279 279 278 277 276 275 274 273 272 271 271 271 270 269 269 269 269 271 271 271 271 271 272 273 273 273

GFSGL_925_thetae_003.txt.gz
Theta_e
308 306 305 304 302 301 301 300 299 297 295 295 295 293 292 291 290 290 290 290 290 291 291 291 290 290 291 292 292 291 291 291 291 291 291 292 292 292 292 293 294 296 296
307 306 305 303 301 300 299 298 296 295 294 294 292 291 290 289 289 289 289 290 289 288 287 287 286 286 287 288 290 291 290 290 290 289 289 289 289 290 290 291 292 293 295
305 306 304 303 301 299 297 295 294 293 292 291 290 289 289 289 289 289 288 287 286 286 285 285 285 285 285 286 287 288 289 289 287 287 287 287 287 288 288 289 290 291 292
301 304 303 303 302 297 296 294 293 292 291 290 289 289 289 289 289 288 287 286 286 285 284 284 283 283 284 285 286 287 288 288 287 286 285 285 285 286 287 289 289 289 290
297 299 302 302 300 297 295 293 294 292 290 289 289 289 289 289 288 287 286 285 285 283 282 281 281 283 284 285 286 287 287 286 286 285 284 284 284 285 285 286 286 286 288
295 295 296 300 299 297 295 296 294 291 289 289 289 289 289 288 288 286 285 284 283 282 281 280 281 282 283 283 284 285 285 284 284 284 283 283 283 284 284 284 284 285 285
294 296 297 298 297 296 295 295 292 291 289 289 289 289 288 287 287 286 285 284 283 282 281 280 280 281 281 282 282 282 282 283 283 284 284 284 283 283 283 283 283 284 285
294 295 295 296 294 295 295 293 292 291 290 289 289 288 288 287 286 285 285 284 282 281 281 280 280 281 281 282 282 282 282 282 282 281 282 283 283 283 283 283 283 284 284
295 295 294 294 294 294 294 293 292 290 289 289 288 288 286 285 285 285 284 283 281 280 280 279 280 280 280 281 281 281 282 282 282 282 282 283 283 284 284 284 284 283 283
294 294 294 294 293 293 292 292 291 289 289 288 287 286 285 285 284 283 282 281 279 279 279 279 279 280 281 280 280 280 279 279 279 280 281 281 281 281 281 281 283 284 283
293 293 293 293 293 293 292 289 289 289 288 287 286 284 283 282 281 281 280 279 278 278 278 278 278 279 280 280 280 279 279 279 279 279 278 278 279 279 280 280 281 282 283
292 292 291 291 291 290 289 289 289 288 287 286 285 283 282 281 279 279 278 278 278 277 277 277 277 279 279 279 279 279 279 279 278 278 278 279 280 281 281 282 282 283 283
291 290 290 290 290 289 290 289 288 287 286 285 283 282 281 280 278 277 277 277 277 277 277 277 278 277 277 278 278 278 279 279 279 280 280 280 280 280 281 281 282 283 283
290 290 289 290 289 290 289 288 287 286 286 284 283 282 281 279 277 277 277 277 277 277 276 277 276 276 277 278 277 277 278 278 278 278 279 280 281 282 282 283 284 284 285
290 289 289 289 289 289 289 287 287 286 285 285 284 282 280 278 278 278 277 277 277 277 277 277 276 276 276 277 277 277 277 277 278 278 279 280 280 281 282 283 284 285 285
290 289 288 289 288 289 288 287 286 285 285 285 285 283 281 278 278 278 277 277 278 276 276 276 276 276 275 276 276 276 276 277 277 278 279 280 280 281 282 283 283 284 285
290 289 288 288 289 288 287 286 285 285 285 285 285 283 281 279 279 279 278 277 276 276 275 275 275 275 275 275 275 275 275 277 276 277 277 278 280 281 282 282 282 283 283
289 289 288 287 287 287 286 285 285 285 285 285 285 284 281 279 279 279 278 277 275 275 275 275 275 275 274 274 274 274 274 275 275 275 276 277 278 280 281 281 281 282 282
289 289 288 286 286 286 286 286 285 285 285 284 284 283 281 279 279 279 278 277 275 274 274 274 274 274 273 273 273 273 273 273 273 274 275 276 277 279 280 281 281 281 281
288 288 287 286 286 285 286 286 285 285 285 284 284 284 282 280 279 279 278 277 276 275 274 273 273 273 273 272 272 272 272 271 272 272 273 275 276 276 278 280 280 280 279
288 286 285 286 285 285 286 285 285 284 284 284 284 284 283 282 280 279 279 278 277 276 275 274 273 273 272 271 271 271 271 271 270 271 272 274 275 275 277 278 279 278 279
287 286 286 285 284 285 286 286 284 284 285 285 285 283 283 282 281 280 279 278 277 276 276 275 274 273 272 271 271 271 270 270 269 270 271 273 274 274 275 276 277 278 277
286 285 285 285 284 285 286 286 284 284 284 284 284 284 284 283 282 281 280 279 278 277 276 275 275 273 272 272 271 271 270 269 269 269 270 272 273 273 274 275 275 276 276
285 285 285 284 284 285 285 286 285 284 284 284 284 285 284 283 282 281 280 279 279 278 277 276 275 274 273 272 271 271 271 269 269 269 271 272 271 272 273 274 274 275 275
286 285 284 284 284 285 285 285 285 284 284 284 284 284 283 283 282 281 280 280 279 278 277 276 275 274 273 272 271 271 271 270 269 269 271 271 271 271 271 272 272 273 273
287 286 285 285 284 284 284 284 285 285 283 283 283 283 282 282 282 282 281 280 279 278 277 276 275 274 273 272 271 271 270 270 269 269 271 270 270 270 271 271 271 271 271

GFSGL_925_thetae_006.txt.gz
Theta_e
303 304 305 305 304 302 300 299 297 296 295 294 293 292 291 290 289 289 289 289 289 289 287 287 286 286 285 285 285 285 289 291 291 290 290 289 289 289 289 290 292 293 294
297 300 303 304 303 301 299 298 297 296 294 293 291 290 289 289 289 289 288 288 288 287 286 285 285 285 284 284 284 284 286 287 289 289 288 287 288 287 287 288 290 291 292
295 295 295 296 298 302 299 297 294 292 293 294 290 289 289 288 288 288 288 287 286 285 285 284 283 282 281 282 283 284 285 285 287 287 287 286 286 286 286 286 287 288 289
294 294 295 297 298 300 295 294 294 293 293 294 289 288 288 289 288 288 287 286 285 284 284 283 281 280 281 282 284 285 285 286 286 286 285 285 284 284 284 285 285 286 286
294 294 295 296 297 297 298 297 295 293 293 292 288 289 289 289 288 287 286 286 285 284 284 282 280 280 281 282 283 284 284 284 284 284 284 283 283 283 283 284 283 283 284
293 294 294 295 296 296 296 295 295 294 290 290 290 289 289 288 287 286 286 285 284 284 282 281 280 280 280 281 282 282 283 283 283 283 283 282 283 283 283 283 283 283 283
293 294 294 294 295 294 295 295 295 293 292 290 288 289 288 287 286 285 285 284 284 282 281 280 280 280 280 280 280 281 281 282 282 282 282 282 283 283 283 283 282 282 283
294 294 294 294 293 293 294 293 292 292 291 289 288 288 286 285 285 285 284 283 282 281 280 279 279 279 279 280 280 281 281 281 281 282 282 281 282 282 282 283 283 283 283
293 294 293 293 293 293 293 293 292 292 288 288 287 286 285 284 284 283 282 280 279 278 278 278 279 279 279 281 280 280 280 280 280 280 282 282 282 283 283 283 283 283 283
293 293 292 292 292 292 292 292 291 288 288 287 285 284 283 282 281 281 280 279 278 278 277 277 278 278 279 280 281 280 280 279 279 278 279 279 279 280 280 281 282 283 283
292 292 291 291 291 290 290 289 288 288 287 285 284 282 281 280 279 279 279 278 277 277 276 277 277 278 279 279 279 279 279 280 279 279 279 278 278 279 279 279 280 280 281
292 291 290 290 289 289 289 289 289 287 286 285 283 282 281 280 278 278 278 278 278 277 276 277 278 278 278 278 278 278 279 279 279 279 279 279 279 280 280 281 281 282 282
291 290 289 289 289 289 289 288 287 286 285 284 283 282 281 280 279 277 277 277 277 277 277 277 277 277 277 277 277 277 278 278 278 278 279 279 280 281 281 281 281 281 282
291 290 289 288 289 289 288 286 286 285 285 285 283 283 281 280 279 278 278 277 278 277 276 276 276 275 276 276 276 276 277 277 277 278 279 279 280 281 282 282 283 283 284
290 290 289 288 288 288 286 286 286 285 285 285 284 283 282 280 279 279 278 277 277 276 276 275 275 275 275 275 275 275 276 276 277 277 278 279 280 281 281 283 283 284 284
289 289 289 288 288 288 287 286 285 285 285 285 284 284 283 280 279 279 278 277 276 276 275 275 275 274 274 274 274 274 275 275 275 276 277 278 279 280 281 282 282 283 284
289 290 289 288 288 287 286 285 285 285 285 285 285 284 283 280 279 279 278 277 275 275 274 274 274 274 273 273 273 273 273 274 274 275 275 276 277 280 281 281 281 282 283
289 289 289 288 286 286 286 285 285 285 284 284 284 284 283 280 279 279 278 277 276 274 274 274 274 273 273 272 272 272 272 272 273 274 274 275 276 277 279 280 281 281 281
288 289 288 287 286 285 285 285 285 285 284 284 284 283 283 281 279 278 278 277 276 275 274 273 273 273 272 272 272 271 271 270 271 272 273 274 275 276 277 279 280 279 279
288 287 287 286 286 285 285 286 285 285 284 284 284 284 283 282 280 279 279 278 277 276 275 274 273 273 272 271 271 271 271 270 270 271 272 273 274 275 276 277 278 278 278
287 287 286 286 285 285 285 285 285 284 283 284 284 284 283 282 282 281 280 279 278 276 276 275 274 273 272 271 271 270 270 270 269 270 272 273 273 274 275 275 277 277 277
287 286 286 285 285 284 284 284 286 284 284 284 284 284 283 283 282 282 281 280 278 277 277 276 275 274 273 272 271 271 270 269 269 269 271 272 272 273 274 274 276 275 275
287 287 286 285 285 284 284 284 285 285 284 284 284 284 284 283 283 282 281 280 279 278 277 276 275 275 273 272 271 271 271 270 269 269 270 271 271 272 272 273 274 275 274
287 286 285 284 285 284 284 284 285 285 284 283 284 284 284 283 283 282 281 280 280 279 278 277 276 275 274 272 271 271 271 270 269 269 271 271 271 271 271 272 273 273 273
287 286 286 285 284 284 284 284 284 284 284 284 283 283 283 283 282 282 282 281 280 279 278 277 276 275 274 273 272 271 271 270 269 269 270 271 270 270 271 271 271 271 272
287 287 287 287 285 285 284 283 283 284 284 284 283 282 282 282 281 281 281 280 280 279 278 277 276 275 274 273 272 271 271 270 270 269 270 270 270 270 270 271 270 270 271

GFSGL_925_thetae_009.txt.gz
Theta_e
296 295 295 295 295 296 300 300 299 297 296 295 294 292 292 290 289 289 288 288 288 289 287 286 285 285 284 284 283 283 283 284 287 287 288 290 290 288 289 288 289 292 293
295 294 294 294 294 295 298 298 296 295 294 293 293 293 291 289 288 288 288 288 288 287 285 285 284 283 282 281 281 281 282 283 285 285 288 288 287 286 286 288 287 287 290
294 294 293 293 293 293 295 298 297 295 293 294 294 294 290 288 288 288 288 288 286 285 285 284 283 282 281 280 280 282 282 283 284 284 285 287 288 286 286 286 286 285 286
294 293 293 293 293 294 295 295 295 295 295 294 293 292 288 288 288 288 287 286 285 286 284 283 282 281 280 281 281 282 283 283 283 283 284 285 285 284 284 284 284 284 284
294 293 293 293 293 294 294 294 295 295 294 293 290 289 290 288 288 287 286 286 285 284 283 283 282 281 281 281 281 281 282 282 283 283 283 283 283 283 283 283 283 283 283
293 293 293 293 293 293 294 294 295 295 294 292 293 290 288 288 287 286 285 285 284 283 283 281 281 280 279 280 280 281 281 282 282 282 282 283 283 283 283 283 283 282 281
293 293 293 293 293 292 293 294 294 293 292 291 290 288 287 286 285 285 285 284 283 282 281 280 279 279 279 279 279 280 280 281 282 282 282 282 282 282 282 283 282 282 282
293 293 293 293 292 292 292 293 293 292 292 291 288 287 286 285 284 284 283 281 280 279 278 277 278 278 278 279 280 280 280 280 280 280 281 281 281 281 281 282 282 282 282
293 293 293 292 292 292 291 291 292 292 290 287 286 286 284 283 282 281 280 279 278 277 277 277 278 278 278 279 280 280 281 280 280 280 280 280 281 282 282 282 282 282 282
292 292 292 291 291 290 290 290 289 287 287 287 286 284 282 281 280 280 279 278 277 277 277 277 277 278 279 279 279 279 279 279 279 279 279 279 279 279 280 281 281 282 283
292 292 291 290 289 289 289 289 289 289 288 286 285 283 281 280 279 278 278 278 277 277 277 276 277 278 278 279 278 278 279 279 279 279 279 279 279 279 279 279 279 279 280
292 292 291 289 289 289 289 288 288 287 286 285 283 282 281 280 279 278 278 278 278 277 277 277 277 277 277 278 277 278 278 277 278 278 278 279 279 280 280 280 280 280 280
291 291 290 289 288 288 288 287 286 285 285 284 283 282 281 280 279 278 278 277 277 276 276 277 276 276 276 275 276 276 276 277 277 277 278 278 279 280 280 281 281 281 281
290 290 289 288 288 288 288 286 286 285 285 284 283 283 282 281 279 278 279 277 277 276 275 275 275 274 274 274 275 275 276 276 276 277 277 278 279 280 281 282 282 282 282
289 289 288 288 287 287 286 286 286 285 285 284 284 283 283 281 279 279 279 278 277 276 275 275 274 274 274 274 273 274 274 275 275 275 276 277 278 280 281 282 283 283 283
288 288 289 289 287 287 286 286 285 285 285 284 284 284 283 282 280 279 279 278 276 275 274 274 274 273 273 273 272 273 273 273 274 274 275 276 277 279 280 281 282 282 283
288 287 287 288 287 287 286 285 285 284 285 284 284 284 283 282 280 280 278 278 276 275 274 274 273 273 272 272 272 272 271 271 272 274 274 275 276 278 279 280 281 281 282
288 288 288 288 288 286 286 285 285 285 284 284 284 284 283 282 280 279 279 278 277 275 274 273 273 273 272 272 271 271 271 270 271 273 274 274 275 276 277 278 279 279 279
288 288 288 287 287 286 285 285 285 285 284 284 284 283 283 282 281 279 279 278 277 276 275 274 273 273 272 271 271 271 271 269 270 272 273 273 274 275 275 276 277 278 278
289 287 287 287 285 286 285 285 285 285 284 283 283 283 283 283 282 281 279 279 278 277 276 275 274 273 272 272 271 270 270 269 269 271 272 273 273 274 274 275 276 276 277
288 287 287 286 286 285 284 284 284 285 284 283 283 284 284 283 282 282 281 280 279 278 277 276 275 274 273 272 271 271 270 269 269 269 271 272 272 273 274 274 275 275 275
288 287 287 286 285 285 284 284 284 284 285 284 283 284 284 283 283 282 282 281 280 279 277 277 276 275 274 272 271 271 271 270 269 269 270 271 271 272 273 273 275 274 274
287 287 287 286 286 285 284 284 283 284 285 284 284 283 283 284 284 283 282 281 280 279 278 278 276 275 274 273 272 271 271 270 269 269 270 271 271 271 271 272 273 274 273
287 287 286 286 285 284 284 283 283 284 284 285 284 283 283 283 283 282 282 281 280 280 279 278 277 276 275 274 272 271 271 270 269 269 270 271 270 270 271 271 271 272 272
287 287 286 286 286 285 284 284 283 283 284 284 284 284 283 282 282 282 281 281 280 280 279 278 277 276 275 274 273 271 271 271 270 269 270 270 270 270 270 270 270 270 271
287 287 287 287 286 286 286 285 285 284 283 283 284 284 283 282 282 281 281 281 280 280 280 279 278 277 275 274 273 272 271 271 270 270 270 269 270 270 269 270 270 270 270

GFSGL_925_thetae_012.txt.gz
Theta_e
295 294 294 293 292 292 291 292 297 298 297 296 295 295 293 293 291 290 289 288 288 288 288 287 286 285 284 283 282 281 281 281 282 282 283 284 284 286 289 288 289 288 290
294 294 293 293 292 292 292 292 294 296 296 296 294 293 293 294 291 289 288 288 288 288 287 285 285 284 283 282 281 280 280 281 281 282 283 284 284 288 287 287 287 289 287
294 294 293 293 293 292 292 293 293 294 294 293 293 294 293 291 288 288 288 288 287 286 285 285 284 283 282 281 280 280 280 281 282 283 283 283 284 285 287 287 287 285 287
294 293 293 293 293 292 292 293 293 294 294 293 294 293 290 288 289 288 288 287 286 286 285 283 283 282 281 281 281 280 280 281 281 282 283 283 283 285 285 284 284 285 284
293 293 293 293 293 292 292 292 293 293 294 294 293 291 290 289 289 287 286 286 285 284 284 283 282 281 282 281 280 280 280 280 281 282 282 282 283 283 282 283 283 283 283
293 293 293 293 293 292 292 292 292 294 293 292 291 290 289 288 287 286 285 285 284 283 281 280 279 279 279 279 279 279 280 280 280 281 281 282 282 282 282 282 282 282 282
293 293 293 293 292 292 292 292 292 292 292 292 292 289 287 286 285 284 284 283 282 280 278 278 277 278 278 278 278 279 280 280 280 281 281 281 282 282 282 281 282 282 282
293 293 292 292 292 291 291 291 290 290 292 291 289 286 286 285 283 282 281 280 279 278 277 277 277 277 278 278 279 280 279 280 280 280 280 280 280 281 281 281 281 281 282
293 292 292 292 291 290 290 290 289 290 289 287 286 286 285 283 281 280 280 279 278 277 277 277 277 277 278 279 279 279 279 279 279 280 280 280 280 280 280 282 281 281 281
292 292 292 292 291 290 289 289 288 287 287 287 286 285 283 282 281 279 279 278 277 277 277 277 276 277 278 279 279 278 278 279 279 279 279 279 279 279 279 279 280 281 282
292 292 291 291 290 289 288 288 288 287 287 286 284 283 282 281 280 278 279 278 278 278 277 276 277 277 278 278 278 277 278 277 277 278 278 279 279 279 279 279 278 279 280
290 290 290 290 289 289 288 288 287 287 286 284 284 283 282 281 279 278 278 278 278 277 276 276 277 277 276 276 276 277 277 276 276 277 277 278 279 279 279 280 280 279 279
289 289 289 289 289 288 287 287 286 285 285 285 284 283 282 281 280 279 278 278 277 276 275 276 275 275 274 274 274 275 275 275 276 276 277 277 278 279 280 280 280 280 280
289 289 289 288 289 288 287 286 285 285 285 285 284 283 283 281 280 279 279 278 277 276 275 274 274 274 274 273 273 274 274 274 274 275 275 276 278 279 280 281 281 281 281
288 288 287 287 288 288 286 286 286 286 285 284 284 284 283 283 281 279 279 278 277 276 274 274 274 273 273 273 272 272 272 272 273 274 274 275 277 278 280 281 282 282 282
288 288 287 286 287 287 287 286 286 285 284 284 284 284 284 283 281 280 280 278 277 276 274 273 273 273 272 272 272 271 271 270 272 273 274 274 275 277 278 280 281 281 282
288 288 287 287 287 287 287 286 285 285 284 284 284 284 283 283 282 280 280 278 277 276 275 273 273 273 272 271 271 271 271 270 271 273 273 274 275 277 277 278 279 279 280
288 288 288 288 288 287 287 286 286 285 285 284 284 284 283 283 282 280 280 279 278 277 275 274 274 273 272 271 271 271 270 269 270 272 273 273 274 275 276 276 277 277 278
288 288 288 287 287 286 286 285 285 284 285 284 284 283 283 283 282 281 280 279 278 278 276 275 274 274 272 272 271 270 270 269 269 271 272 272 273 274 274 275 276 276 277
288 288 288 287 287 286 285 286 285 285 285 284 284 283 283 283 283 282 281 280 279 279 278 276 275 274 273 272 271 270 270 269 269 269 271 272 272 272 273 273 275 275 275
287 288 288 287 286 286 286 285 284 284 284 284 284 283 283 283 283 283 282 281 281 280 279 277 276 275 274 273 272 271 271 270 269 269 270 271 271 271 272 273 274 274 274
286 287 287 286 286 286 286 285 284 283 283 283 284 283 283 283 283 283 283 282 281 281 279 278 277 276 275 274 273 271 271 271 269 269 269 271 271 271 271 272 273 273 273
286 286 286 286 284 285 286 285 284 284 283 283 284 284 283 283 283 283 283 282 281 280 279 279 278 277 276 275 274 272 271 271 270 269 269 270 271 270 270 271 271 272 272
286 286 286 286 285 285 285 284 284 284 283 283 283 284 284 283 283 283 282 282 281 280 280 279 278 277 276 275 274 273 271 271 271 269 269 270 270 270 270 270 270 270 271
286 286 286 286 286 286 285 285 285 285 284 283 283 283 284 284 283 283 282 282 281 280 280 279 279 278 277 276 274 273 272 271 271 270 270 270 270 270 270 270 270 270 270
286 286 286 286 285 285 285 285 285 285 285 284 284 284 283 283 283 283 282 281 281 280 280 280 279 278 277 276 274 273 272 272 271 270 270 270 269 269 269 269 270 270 270

GFSGL_925_thetae_015.txt.gz
Theta_e
296 294 294 293 293 292 292 291 292 292 294 296 296 295 295 293 293 293 292 289 289 289 290 289 288 287 286 286 285 284 284 283 284 283 283 283 284 285 285 285 288 290 290
295 294 294 293 293 292 292 292 292 292 293 294 294 294 293 294 293 292 289 288 289 289 288 287 286 286 285 285 284 283 283 282 282 282 282 283 284 285 285 286 288 288 289
294 294 293 293 293 292 292 292 291 292 293 294 293 293 294 293 291 288 288 288 288 287 286 286 285 284 284 284 283 282 282 282 281 282 282 282 283 284 285 286 287 288 287
294 294 293 293 293 292 292 292 292 292 293 294 293 293 290 288 288 289 288 287 286 285 285 284 284 283 283 282 282 282 281 281 281 281 281 282 283 283 284 285 286 287 286
294 293 293 293 293 292 292 292 292 292 293 294 292 292 290 289 288 287 286 286 285 285 284 283 281 281 280 280 280 280 280 280 281 281 281 282 283 282 284 284 285 286 285
293 293 293 292 292 292 292 291 292 292 292 292 291 291 291 288 286 286 286 285 284 283 281 280 280 279 279 279 279 279 279 280 281 281 283 282 282 282 282 284 283 284 286
293 292 292 292 292 292 292 291 291 291 290 291 291 291 287 286 285 284 283 282 281 280 280 279 279 279 278 279 279 279 280 280 280 281 281 281 281 281 282 282 283 283 283
292 292 292 292 292 292 291 291 290 289 290 291 290 287 286 285 283 282 281 281 280 279 279 278 278 278 279 278 280 280 280 279 280 280 281 281 281 281 281 281 282 282 282
291 291 291 291 291 291 291 290 289 289 288 287 287 286 285 283 282 281 280 280 279 279 279 279 278 278 278 279 279 279 279 279 279 279 279 280 280 280 280 280 282 282 282
291 291 291 291 290 290 290 289 288 288 287 286 286 285 283 282 282 280 280 280 279 279 278 278 278 277 278 278 278 278 278 279 278 278 279 279 280 280 280 280 280 282 283
290 289 289 290 289 289 289 288 288 287 286 286 285 284 283 282 281 280 279 280 279 279 278 277 277 277 277 277 276 277 278 277 277 278 278 279 279 280 280 280 280 280 281
288 289 289 289 289 288 288 288 287 286 286 285 284 283 283 282 281 280 279 279 278 278 277 276 276 276 276 275 275 275 275 276 277 278 278 279 279 280 280 281 281 281 280
288 289 289 289 288 288 288 288 287 285 285 285 284 285 284 282 281 280 279 279 278 277 277 276 275 275 274 274 274 274 274 275 276 277 277 278 279 279 280 281 281 281 281
288 288 289 288 287 288 288 286 286 285 285 285 286 285 284 283 282 281 279 280 278 277 276 275 274 274 274 274 274 274 274 273 274 276 276 277 278 279 281 282 283 283 282
288 288 287 287 286 287 288 286 285 285 286 285 285 284 284 284 283 282 280 280 279 278 276 275 275 274 274 274 274 273 273 272 274 274 276 277 278 279 280 281 282 283 284
287 288 288 288 287 287 287 287 286 286 285 284 284 284 284 284 283 282 280 280 279 277 277 276 275 274 274 274 274 273 273 272 272 273 275 276 277 278 279 280 281 283 284
287 288 288 288 288 287 287 287 287 286 286 285 284 284 284 283 283 282 280 280 279 277 277 277 276 275 274 274 273 273 273 271 270 272 273 274 275 277 278 279 280 280 281
287 288 288 288 287 287 287 287 286 286 285 285 285 284 283 283 283 282 281 280 279 278 277 277 276 275 274 274 273 272 272 271 270 271 272 273 273 275 277 278 278 278 279
287 287 287 288 287 287 286 286 285 285 284 284 284 284 283 283 283 282 282 281 281 280 279 278 277 276 275 274 273 272 271 271 270 270 271 272 272 273 275 276 277 276 277
287 287 286 287 287 286 286 285 285 285 285 284 284 284 283 282 282 282 281 281 280 279 279 278 277 276 275 274 273 272 272 272 271 271 270 271 271 272 273 274 275 276 276
286 286 286 287 286 286 286 285 285 285 284 284 284 284 284 282 283 283 283 281 281 280 280 279 278 277 276 275 274 273 272 272 271 270 270 271 271 271 272 273 274 275 275
286 286 286 286 286 286 285 285 286 285 284 284 283 283 283 284 283 283 283 283 282 282 281 280 279 278 277 276 275 274 272 271 271 270 270 270 271 271 271 272 273 273 274
286 286 286 286 286 285 284 285 285 284 284 283 283 283 283 283 283 282 283 283 283 283 282 280 279 279 278 277 275 274 273 272 271 270 269 269 271 271 271 271 272 272 272
286 286 286 286 286 285 284 283 283 284 284 283 283 283 283 283 283 284 283 283 283 282 281 280 280 279 278 277 276 275 274 272 272 271 269 269 270 271 271 271 271 271 271
285 286 286 286 286 285 284 283 283 284 284 284 283 283 283 283 283 283 284 284 283 282 282 281 280 279 279 278 276 275 274 273 272 271 270 270 270 270 270 270 271 271 271
284 285 285 285 285 285 285 285 285 284 284 284 284 284 284 284 283 284 283 283 283 282 282 281 280 279 279 278 277 276 274 273 272 271 270 270 270 270 270 270 270 271 271

GFSGL_925_thetae_018.txt.gz
Theta_e
299 298 298 297 297 297 296 295 294 294 294 294 295 296 297 297 296 295 295 295 293 291 291 290 291 289 289 288 288 288 287 287 287 286 285 285 285 285 286 286 287 287 288
299 297 297 297 297 296 296 295 294 294 294 294 294 294 295 295 294 295 295 293 291 291 290 290 290 288 288 288 287 287 286 286 285 285 285 284 284 284 285 285 286 287 288
297 297 297 297 297 296 296 294 294 294 294 294 294 294 294 294 294 294 292 291 291 290 290 289 288 288 287 287 286 285 285 284 284 284 284 283 283 284 284 285 285 287 288
297 297 297 297 296 296 295 294 294 293 293 293 294 294 294 292 291 291 290 290 290 289 289 288 287 286 285 284 283 283 283 283 283 283 283 283 284 284 284 284 286 286 288
297 297 297 296 296 295 295 294 294 293 293 293 293 293 293 292 291 290 290 289 289 288 287 286 284 283 281 280 280 281 281 281 282 282 283 283 284 284 284 284 284 285 286
297 297 296 296 295 295 294 294 293 292 292 293 293 293 293 292 288 286 286 288 287 286 285 284 283 282 282 280 280 280 280 280 281 282 283 283 283 283 283 283 284 285 286
296 296 295 295 294 294 293 293 293 292 292 292 292 293 292 290 286 285 284 286 286 284 283 283 282 282 281 281 280 280 281 281 281 281 281 282 282 283 283 283 283 284 284
295 295 294 293 293 293 293 293 293 292 292 292 291 291 290 288 284 283 283 285 284 283 282 282 282 281 281 279 280 280 281 281 280 280 280 281 281 282 282 282 282 282 283
294 293 292 293 292 292 292 292 292 292 291 291 290 290 290 288 284 283 283 284 283 283 282 281 280 280 279 278 279 279 280 280 280 280 279 279 280 280 280 281 281 282 283
293 292 292 291 292 292 292 292 292 291 290 289 289 289 288 287 283 282 282 283 283 282 282 281 279 279 278 278 278 278 279 279 279 279 279 280 280 281 281 281 281 282 283
291 291 291 291 291 291 291 292 291 291 289 289 289 288 287 285 285 282 281 282 282 281 281 281 280 278 277 277 276 277 277 276 278 279 279 280 281 281 281 282 282 282 282
291 291 291 291 291 290 291 291 291 290 289 289 288 288 287 286 284 282 281 280 280 280 280 281 279 277 276 276 276 275 275 276 278 279 279 280 281 281 282 282 283 283 282
291 291 291 291 290 290 291 291 291 290 289 289 288 288 287 287 285 283 281 280 280 280 280 279 276 276 276 276 276 275 275 277 277 278 279 279 280 281 282 282 283 283 283
290 291 291 290 289 288 289 290 290 290 289 288 288 288 287 286 286 285 284 283 282 281 280 279 278 276 277 277 277 277 276 275 276 278 278 279 280 281 283 283 285 285 284
290 290 290 289 289 288 288 288 290 289 288 288 288 287 286 286 286 285 284 283 282 281 279 279 280 279 278 278 278 277 277 275 276 277 278 278 279 280 281 283 283 285 285
290 290 290 289 290 289 289 289 289 287 287 286 285 285 285 285 284 284 283 281 281 279 279 281 281 280 279 278 278 278 277 276 275 276 277 278 278 279 280 281 282 284 285
289 289 289 289 289 289 289 289 289 289 287 286 286 285 284 284 284 283 283 282 281 280 280 281 281 280 279 278 278 277 277 276 274 274 276 277 277 278 280 280 281 281 282
288 288 289 289 289 289 289 289 289 288 288 288 287 286 285 284 283 283 283 282 282 281 280 281 281 280 280 279 278 277 276 276 275 274 275 275 276 277 279 279 280 280 280
289 289 289 288 287 287 288 288 288 288 287 287 286 286 285 284 283 283 283 283 283 282 283 282 281 280 280 279 278 277 275 275 274 274 275 275 275 276 277 277 278 279 279
289 288 287 287 287 287 287 288 288 288 288 287 286 286 285 284 284 283 283 283 283 283 283 282 282 281 280 279 278 277 276 276 276 275 275 275 275 275 275 276 277 278 278
289 288 288 287 287 287 288 287 287 287 288 287 287 286 285 285 285 284 284 284 283 283 283 282 282 281 280 279 278 278 277 276 275 274 274 274 274 275 275 275 276 276 277
288 288 288 288 287 286 286 287 287 287 287 287 287 286 285 284 284 284 285 284 284 284 283 283 282 282 281 280 279 278 277 276 276 275 274 273 274 275 275 275 275 275 276
287 287 287 287 287 286 286 286 286 286 287 287 287 286 286 285 284 284 285 284 284 284 283 283 282 282 281 280 279 278 277 277 276 274 273 273 274 275 275 275 275 274 274
287 286 285 286 286 287 287 286 286 286 286 286 286 286 286 285 285 284 284 284 284 284 283 282 282 281 281 280 278 277 277 276 274 274 272 272 273 274 274 274 274 274 274
286 285 285 285 286 286 286 286 286 285 285 285 286 285 285 286 285 285 285 285 284 284 284 283 282 281 280 279 279 277 277 275 274 273 272 272 273 272 273 273 273 274 274
285 285 285 285 286 286 286 286 285 285 285 285 285 285 285 285 285 285 285 285 284 284 283 283 282 282 281 280 279 278 277 276 274 273 272 272 273 273 273 273 273 273 274

GFSGL_925_thetae_021.txt.gz
Theta_e
302 300 300 300 300 300 299 298 297 296 296 295 295 295 296 296 296 296 296 296 296 295 295 293 293 292 292 291 290 289 289 289 290 289 288 287 287 286 286 286 286 286 287
302 300 301 300 300 299 299 298 297 296 295 295 295 295 295 295 295 295 295 295 295 294 293 292 292 291 290 289 289 288 288 288 288 288 286 286 286 285 285 285 286 286 287
301 300 300 300 300 299 299 298 296 296 295 294 295 295 295 295 295 294 293 293 293 292 292 291 291 290 289 288 287 287 286 286 286 285 285 285 285 285 285 285 285 286 286
301 300 300 300 299 299 298 297 296 295 295 294 294 294 294 294 294 293 293 292 292 291 291 290 290 288 286 285 284 284 284 284 284 283 284 284 284 284 285 285 285 285 286
301 300 299 299 299 299 297 297 296 295 295 294 294 294 294 294 293 293 292 292 291 290 290 289 287 285 283 282 282 282 282 282 282 282 283 283 284 284 285 284 285 285 285
301 300 299 299 298 298 296 296 295 295 294 294 294 293 294 294 291 290 287 289 289 289 288 287 286 285 284 282 282 281 281 281 282 282 283 282 282 283 284 284 284 284 285
300 299 299 298 297 296 295 294 294 294 294 294 293 293 293 292 290 287 286 286 288 287 286 285 285 284 284 283 282 281 281 281 282 282 282 282 283 282 282 283 283 284 284
299 298 298 297 295 294 294 294 294 294 294 293 293 292 292 291 289 286 284 285 287 286 285 285 284 284 282 281 280 280 281 281 281 281 281 281 281 280 280 281 281 282 283
298 297 295 294 294 293 293 293 293 294 294 293 292 292 291 290 289 286 284 286 286 285 285 284 283 282 281 279 279 279 280 280 281 280 280 280 280 280 280 281 281 282 283
296 295 293 293 293 293 293 293 293 293 293 292 291 291 290 290 288 286 284 285 285 285 284 284 283 280 279 278 278 278 279 280 278 278 279 280 281 282 282 281 282 283 283
293 293 292 292 293 293 292 292 293 293 293 292 291 290 290 289 288 286 284 283 284 284 283 283 283 281 278 277 277 277 278 276 277 279 280 281 281 282 283 283 283 283 284
292 292 292 292 293 292 292 292 293 293 292 292 291 290 290 289 287 286 284 282 282 282 283 283 282 280 277 277 277 277 276 277 279 279 280 281 281 281 282 283 283 283 283
292 292 292 292 292 292 291 291 292 292 292 291 291 290 289 289 289 286 284 283 282 281 282 281 280 279 278 279 279 278 277 279 278 279 280 280 280 281 282 283 284 284 284
292 292 292 292 291 291 290 290 290 291 292 291 290 290 289 289 288 288 285 283 283 282 282 283 281 280 280 280 280 280 280 279 277 278 279 280 280 281 282 282 284 284 286
291 291 291 291 291 291 291 290 289 290 291 290 290 290 289 289 287 287 286 286 285 284 282 281 282 282 282 281 281 281 280 280 278 277 278 279 280 280 281 282 283 284 286
291 291 291 291 291 291 290 290 289 289 289 288 288 287 287 286 285 285 284 284 283 282 281 282 282 283 282 281 281 281 280 280 279 277 277 278 279 279 280 281 282 283 284
290 290 290 290 291 290 290 290 290 290 289 289 287 287 286 285 285 285 284 283 282 281 281 282 283 283 282 281 281 280 280 279 278 278 277 278 278 278 279 281 281 281 282
290 290 290 291 290 289 289 289 290 290 290 289 289 288 286 285 285 284 283 283 283 282 282 282 283 283 282 282 281 281 280 279 278 277 277 278 277 277 278 279 280 280 280
291 291 290 289 289 288 287 287 287 289 289 289 288 288 287 286 285 284 283 284 284 284 284 284 284 283 282 282 281 280 279 278 278 277 278 277 277 277 277 278 279 279 279
292 291 290 289 288 289 288 288 289 289 289 288 289 288 287 286 285 284 284 284 284 284 284 284 284 284 283 282 281 280 279 279 279 278 278 277 277 277 278 277 278 278 279
292 291 290 289 289 289 289 288 288 288 288 288 288 288 287 287 287 287 286 286 285 285 285 284 284 283 283 282 281 280 280 279 278 278 277 277 276 277 277 277 277 277 278
291 290 289 289 289 289 289 288 287 287 287 288 288 288 288 286 286 286 286 286 286 286 285 285 284 284 283 282 281 281 280 279 278 278 277 277 276 277 277 277 277 276 276
289 289 289 288 288 287 287 287 287 288 288 288 288 288 288 287 286 286 286 285 285 285 285 285 284 284 284 283 281 281 280 279 279 278 277 276 276 277 276 277 277 277 276
289 288 288 287 286 286 286 287 287 287 287 287 286 286 287 287 287 287 286 286 286 285 285 285 284 284 283 283 282 280 279 279 278 277 275 275 275 276 276 276 276 276 276
289 288 287 286 286 286 286 287 287 286 286 286 286 286 286 286 286 286 286 286 286 286 286 285 285 284 283 282 282 280 279 278 277 276 275 274 275 275 274 275 275 275 276
286 287 287 286 286 285 285 284 284 284 284 284 284 284 284 285 285 285 285 285 285 285 285 285 285 284 283 283 282 281 279 278 277 275 274 275 275 275 275 275 275 275 276

GFSGL_925_thetae_024.txt.gz
Theta_e
306 304 301 301 301 301 300 300 299 297 297 296 296 295 295 296 296 296 296 296 296 295 295 295 294 293 292 291 291 290 289 289 288 288 287 287 286 286 285 285 285 285 286
305 302 301 300 301 301 300 300 299 297 296 296 295 295 295 295 295 295 295 294 294 294 293 293 292 292 291 290 289 288 287 286 286 286 286 285 285 285 285 285 285 285 286
304 303 302 301 301 300 300 299 298 297 296 296 295 295 295 295 295 295 294 293 293 292 292 292 291 290 289 288 286 285 284 284 284 284 283 284 284 284 284 284 285 285 285
304 303 301 301 301 300 300 299 298 297 296 296 295 294 294 294 294 294 293 293 292 292 292 291 290 289 287 285 284 283 283 282 282 282 282 283 283 283 283 284 284 284 284
305 302 301 301 300 300 299 299 297 297 296 295 295 294 294 294 294 293 292 291 291 291 290 289 288 286 285 284 283 282 282 282 281 281 282 282 283 283 282 283 284 283 284
305 303 301 300 300 299 298 297 296 296 295 295 294 294 294 294 293 292 289 288 288 289 288 287 286 285 284 284 283 283 281 281 281 281 282 282 282 283 282 282 282 282 283
304 301 301 299 299 298 296 295 295 295 295 295 295 294 293 293 292 291 288 288 287 288 287 286 285 285 284 283 282 282 280 281 281 281 282 282 282 281 281 280 280 280 281
301 300 299 299 297 295 294 294 294 294 294 294 294 293 293 292 291 290 288 287 287 287 286 285 285 284 283 282 281 279 280 280 280 281 280 279 280 280 280 280 280 280 281
300 299 298 295 294 294 293 293 293 293 293 294 293 293 292 291 290 290 287 285 286 286 286 285 285 283 282 281 280 278 278 279 279 279 278 279 280 280 281 281 281 281 281
297 295 295 293 293 293 293 293 293 293 294 293 293 291 291 290 290 289 287 285 285 285 285 284 284 282 281 280 278 278 278 278 278 277 278 280 280 281 282 283 283 282 282
295 293 293 293 293 293 293 293 293 293 293 293 292 291 291 290 289 288 287 286 284 285 284 283 283 282 281 280 278 278 278 278 277 278 279 280 281 281 281 281 282 283 283
293 293 293 292 292 293 293 292 292 292 293 293 292 291 291 290 289 288 287 286 284 283 282 283 283 282 280 279 279 279 278 278 279 279 279 280 280 280 281 281 282 283 284
293 292 292 292 292 292 291 291 290 290 291 292 292 291 291 290 289 289 287 286 284 283 282 282 282 281 281 281 280 280 279 279 280 278 278 279 279 280 280 281 281 283 283
292 292 292 292 292 291 291 291 291 290 290 291 292 291 290 290 289 289 288 286 284 283 283 283 282 281 282 282 282 281 281 280 280 279 278 278 279 279 280 281 281 283 283
291 291 291 291 291 292 291 291 291 290 289 289 290 290 290 290 289 288 287 287 286 284 284 283 281 282 283 282 282 281 281 280 280 278 277 278 278 278 279 279 281 282 282
291 291 291 290 291 291 291 291 290 290 289 289 289 289 288 288 287 286 285 285 284 284 282 282 282 282 283 282 282 282 281 280 279 278 278 278 278 278 278 279 281 281 281
290 290 291 291 291 291 290 290 290 290 290 290 290 289 289 287 287 286 285 285 284 283 282 281 281 282 283 283 282 282 281 280 279 279 278 278 278 278 277 279 279 280 280
291 291 291 291 291 290 290 289 288 287 287 288 289 289 289 288 288 286 285 284 283 282 282 282 282 283 283 283 282 282 281 280 279 278 277 278 278 277 277 278 278 279 279
291 291 291 291 290 290 289 288 288 288 288 288 289 289 289 288 288 287 285 284 283 283 283 283 283 283 283 283 282 282 281 279 279 278 278 278 277 277 277 278 277 277 278
292 292 292 291 291 290 289 289 289 289 288 288 289 289 288 288 287 286 286 284 284 284 284 284 284 284 284 284 283 282 281 280 280 279 279 278 277 277 277 278 277 277 277
292 292 292 291 290 290 289 289 289 289 289 288 288 288 288 288 288 286 286 285 285 285 285 284 284 284 283 283 283 282 281 280 279 279 278 277 277 276 277 277 278 277 276
291 291 291 291 290 290 289 289 288 287 287 288 287 287 287 288 288 288 287 287 287 286 286 285 285 285 285 284 283 282 281 280 280 279 278 277 277 276 277 277 277 277 276
288 288 289 289 289 289 288 287 287 287 287 288 288 288 287 287 287 288 287 287 286 285 285 286 286 285 285 285 284 283 282 281 280 279 278 277 276 276 277 276 277 277 276
285 287 287 289 289 288 287 287 287 286 287 288 287 287 286 286 286 286 287 287 287 286 286 286 285 285 285 285 284 284 282 281 280 279 278 277 276 276 276 276 276 276 276
285 286 286 286 287 288 287 286 286 285 285 284 285 284 284 284 284 285 286 286 285 285 285 285 285 285 285 285 284 284 283 282 280 279 277 276 275 275 275 275 275 275 276
282 284 285 285 286 286 285 283 282 282 282 282 281 281 281 281 281 281 281 281 281 282 283 285 285 284 285 285 285 284 283 282 280 278 277 275 274 274 275 275 275 275 275

GFSGL_925_thetae_027.txt.gz
Theta_e
305 305 305 302 301 301 300 300 299 298 297 296 296 295 295 295 295 295 295 295 294 294 294 294 294 293 292 291 290 289 287 285 284 284 284 284 284 283 283 284 284 284 285
306 306 303 301 301 301 300 300 299 298 297 296 296 295 295 295 295 295 295 295 293 293 293 292 292 291 290 289 288 287 285 284 283 282 282 282 282 283 283 282 283 284 283
306 305 302 301 301 301 301 300 299 298 297 296 296 295 294 294 294 295 294 294 293 292 292 292 291 290 289 288 286 285 284 283 282 282 281 281 281 281 282 282 283 283 283
306 305 303 302 301 301 300 300 299 298 297 296 296 295 294 294 294 294 294 293 292 292 291 290 289 288 286 285 285 284 283 282 282 281 281 280 281 281 282 282 282 282 282
305 304 303 302 301 301 300 299 298 297 296 296 295 295 294 294 294 294 294 292 290 289 289 288 287 286 285 285 283 283 282 282 281 281 280 281 281 281 281 282 281 281 280
304 305 304 301 300 299 298 298 296 295 295 295 295 294 294 293 293 293 293 289 288 288 288 287 286 285 284 284 283 282 282 281 281 281 281 281 281 281 281 280 280 279 279
307 305 301 299 299 297 295 296 294 294 294 295 294 294 294 293 293 292 291 288 287 287 287 286 285 285 284 283 283 282 281 278 280 280 280 279 278 279 279 279 280 280 280
303 299 299 297 296 296 294 293 293 294 293 293 293 294 293 293 292 292 290 288 286 287 286 286 285 284 284 283 282 281 279 277 278 279 279 278 278 279 280 281 281 281 281
298 296 295 294 294 293 294 293 293 293 293 293 293 293 293 292 291 290 289 287 286 286 286 285 284 284 283 282 281 280 278 277 278 278 278 279 279 280 281 282 282 282 281
294 294 294 295 294 293 292 293 292 292 293 293 293 292 292 291 290 290 289 288 286 285 285 284 284 283 282 282 281 279 277 278 278 278 278 278 279 280 280 280 281 281 282
295 296 295 293 293 293 293 292 293 292 292 292 292 293 292 291 290 290 289 288 286 285 284 284 283 283 282 281 280 279 279 279 278 279 278 278 279 279 279 280 280 281 282
294 294 293 293 292 292 292 292 292 291 290 290 291 292 291 291 290 290 289 288 286 285 284 283 282 282 282 281 281 280 280 279 279 279 278 278 278 278 279 279 280 280 282
293 293 292 292 292 292 292 291 291 291 290 289 289 291 291 291 291 290 289 288 286 286 284 283 282 282 282 281 281 281 281 280 280 279 279 277 278 278 278 278 279 281 281
292 292 291 292 291 291 291 291 291 291 290 290 289 289 289 290 290 290 289 289 287 286 284 283 282 283 282 282 282 281 281 281 280 280 279 278 277 278 277 278 279 281 281
291 291 291 291 291 291 291 291 291 290 290 290 289 289 289 289 289 289 288 288 287 286 285 283 283 283 281 282 282 281 281 281 280 280 278 278 278 278 277 277 279 280 280
291 290 290 290 290 290 290 290 291 290 289 289 289 289 289 289 288 289 288 287 286 286 284 284 283 282 282 281 283 282 281 281 280 279 278 278 277 277 277 277 278 279 279
291 290 290 290 291 291 290 290 290 288 288 288 287 287 288 289 289 287 287 286 285 284 283 282 282 282 281 281 283 282 282 280 280 279 278 278 277 278 277 277 277 277 278
291 291 291 291 291 291 291 290 289 288 287 287 288 288 288 288 289 289 288 286 285 284 283 283 282 282 282 282 283 283 282 281 280 279 278 277 278 277 277 277 277 277 277
292 292 292 291 291 291 291 290 290 289 288 288 288 288 288 288 288 288 288 286 285 284 284 283 282 282 282 282 282 283 282 281 280 279 278 278 278 277 277 276 277 277 277
291 291 291 291 291 291 291 290 289 289 288 288 287 287 288 287 288 288 287 287 285 284 284 283 283 283 283 283 284 284 282 282 281 279 279 278 277 277 276 276 277 277 276
288 288 288 289 289 290 290 289 289 288 289 288 287 287 287 287 287 287 287 286 286 285 285 284 283 283 284 283 284 284 283 282 281 280 279 278 277 277 276 277 277 277 276
285 285 285 286 288 288 288 289 288 289 288 287 286 286 287 287 287 287 287 287 286 286 286 286 285 285 284 284 284 284 283 282 282 280 279 279 277 277 276 276 277 277 276
281 282 283 284 284 285 285 286 288 288 286 286 286 286 287 286 287 286 286 286 287 286 286 286 286 286 286 285 285 285 284 284 283 281 280 279 278 277 276 276 276 276 276
279 280 281 282 284 284 285 285 287 287 286 285 284 284 284 284 284 285 284 285 285 286 286 286 286 286 285 285 285 285 285 284 283 282 280 279 278 277 276 276 276 276 276
275 277 277 277 278 278 279 280 281 281 282 281 280 280 280 279 279 279 279 279 280 281 281 283 285 285 284 285 285 285 285 284 284 282 280 279 278 277 275 275 275 275 275
272 273 272 272 272 273 275 275 276 276 276 276 276 275 275 275 275 276 276 277 276 276 277 278 279 281 282 284 284 284 284 284 284 282 281 279 278 276 275 275 274 275 275

GFSGL_925_thetae_030.txt.gz
Theta_e
310 308 307 306 302 301 301 300 299 299 299 298 296 296 295 295 294 295 295 295 295 294 293 293 294 293 293 291 291 289 287 286 284 284 283 282 281 281 281 281 281 282 283
309 308 306 305 302 301 300 300 300 300 299 297 296 296 295 295 294 294 294 295 294 293 292 292 292 292 291 290 289 287 286 284 283 282 282 282 281 281 281 281 282 282 282
306 306 305 303 301 301 301 300 300 299 297 297 296 296 296 295 294 294 294 294 293 292 292 291 291 290 289 288 286 285 284 283 282 282 281 281 280 281 281 281 282 281 282
305 305 305 302 301 301 301 301 300 298 297 297 296 296 295 295 294 294 294 293 292 292 291 290 289 288 287 286 285 283 283 282 282 281 281 280 280 280 281 281 281 281 280
306 306 305 303 301 301 301 300 298 297 297 296 295 295 295 294 294 294 294 293 292 290 289 288 287 286 285 285 283 283 283 282 281 280 280 280 280 280 280 280 280 280 279
305 305 304 302 301 301 299 297 296 295 294 294 294 295 295 294 294 293 293 293 291 288 288 287 286 286 285 284 284 283 281 280 279 279 280 279 279 278 278 278 279 279 279
304 303 302 300 297 295 295 295 294 294 294 294 294 294 294 294 293 293 292 292 289 287 287 287 286 285 284 284 283 282 281 281 278 277 278 279 278 278 279 279 279 280 280
303 300 297 295 294 295 296 295 294 294 293 293 293 292 293 293 293 292 291 290 288 287 287 286 286 285 284 283 282 282 282 281 277 278 278 278 278 279 280 280 281 281 281
294 294 294 296 297 298 297 294 293 293 292 292 293 293 293 293 292 292 291 290 288 287 286 286 285 284 284 283 281 282 281 279 278 278 278 278 278 279 280 280 280 280 280
295 296 298 299 298 295 292 292 293 292 292 292 292 292 291 291 292 291 290 289 288 287 286 285 285 284 283 282 282 281 279 279 279 279 279 279 278 278 278 279 279 280 280
299 299 298 296 293 293 292 292 292 292 291 290 290 290 291 292 291 291 290 289 288 287 286 285 284 283 282 282 282 280 280 279 279 279 279 279 278 277 278 278 278 279 279
298 295 293 293 293 292 292 292 291 291 290 290 290 289 289 290 291 290 290 289 289 287 286 286 284 282 282 282 281 281 281 280 280 280 279 279 278 277 278 277 278 279 280
293 293 293 291 291 292 291 291 291 291 291 290 290 289 289 288 290 290 290 289 289 287 287 286 284 282 282 282 281 281 281 281 281 280 280 279 278 277 277 277 278 279 280
292 291 291 291 291 291 291 290 291 291 291 290 290 289 289 289 289 289 289 290 288 287 286 286 284 283 282 282 281 282 282 281 281 280 280 279 278 277 277 277 278 278 279
291 291 290 290 290 290 290 290 290 290 290 289 289 289 289 289 289 289 288 289 288 288 287 286 284 283 282 283 282 282 282 281 281 281 279 278 278 277 277 277 277 277 278
291 291 290 290 289 289 290 290 290 290 290 289 288 288 288 287 287 288 289 288 288 288 286 284 284 284 282 283 282 281 282 282 281 280 279 278 277 277 277 277 277 277 277
291 291 291 291 290 290 290 290 289 290 290 290 289 288 288 288 287 288 289 288 288 287 284 283 282 282 283 283 282 281 282 282 281 280 279 278 277 277 277 276 277 277 276
290 290 290 290 289 289 289 289 289 289 289 289 289 289 288 288 288 288 288 288 287 286 285 284 283 283 283 282 282 281 281 282 281 280 279 278 277 277 277 276 276 277 276
288 288 287 287 288 288 289 288 288 288 289 288 289 288 287 287 286 287 287 287 287 285 284 283 284 284 283 283 282 282 282 282 282 280 280 278 278 277 277 276 276 277 277
284 285 285 285 286 286 286 287 287 288 288 288 287 287 286 287 285 287 287 287 287 286 285 284 284 284 284 283 283 282 282 282 282 281 281 279 278 278 277 276 276 277 277
279 280 281 282 282 282 283 285 285 285 286 287 287 287 288 286 285 285 286 286 286 286 285 284 284 285 284 284 283 283 283 283 283 282 281 280 279 278 277 276 276 277 276
278 278 279 280 280 280 282 283 283 284 284 285 286 286 286 285 285 285 286 286 286 286 286 285 284 284 285 284 284 284 283 283 283 283 282 280 279 278 277 276 276 276 276
275 275 276 276 276 276 277 278 279 279 281 284 285 285 283 284 284 284 284 283 283 284 284 285 285 284 286 285 285 285 284 284 284 284 282 281 279 278 277 276 276 276 276
273 273 271 271 272 272 273 274 274 275 276 277 277 277 277 277 277 277 278 278 279 279 281 281 281 283 285 286 285 285 285 285 285 284 284 282 280 279 277 276 276 276 275
270 270 269 269 269 269 270 270 271 272 272 271 271 272 272 273 273 274 275 275 275 276 276 277 278 280 281 281 283 284 284 284 285 284 284 283 281 279 278 276 275 275 275
269 268 267 267 267 267 267 267 268 268 268 268 268 269 269 269 269 270 270 271 271 272 274 275 276 277 278 279 280 282 283 284 284 284 284 283 281 279 278 276 275 275 275

GFSGL_925_thetae_033.txt.gz
Theta_e
317 316 313 309 308 305 303 301 301 300 298 298 299 298 296 296 295 294 294 294 294 294 294 293 293 293 293 293 291 291 289 287 286 285 283 283 282 281 280 281 281 281 282
311 311 310 308 305 304 302 300 300 299 299 300 298 296 296 296 295 294 294 294 294 294 293 292 292 292 292 291 290 289 287 285 283 282 282 282 282 280 280 280 280 281 281
309 309 306 305 305 303 301 301 300 300 299 298 297 297 296 296 295 294 294 294 294 294 293 292 292 291 290 289 288 287 285 283 282 282 281 281 280 279 280 280 280 280 280
310 307 306 306 304 303 301 300 299 299 298 297 297 296 296 295 295 294 294 294 294 293 292 292 291 290 289 287 286 285 283 283 282 282 281 280 279 279 280 280 279 279 279
308 306 306 305 303 302 301 300 300 298 296 297 296 295 294 295 295 294 294 294 293 292 291 290 289 288 287 286 285 284 283 283 282 280 279 279 279 279 278 278 278 278 279
306 304 303 302 301 301 299 297 295 294 295 297 297 295 294 295 294 294 294 293 293 291 290 288 287 286 286 285 284 284 283 281 280 279 278 278 278 278 277 278 278 278 279
304 303 302 301 299 296 294 295 298 298 297 295 294 293 293 293 293 294 293 293 292 291 289 287 287 286 285 285 284 283 282 281 280 278 277 277 278 278 279 278 279 279 280
299 297 296 295 296 298 298 298 297 295 294 294 293 292 292 292 293 293 293 292 291 290 288 287 287 286 285 284 283 282 282 281 280 278 278 278 278 279 279 279 280 280 280
295 296 297 298 298 298 298 298 297 295 293 292 292 292 292 292 292 292 292 291 290 289 287 287 286 286 285 284 283 282 281 281 279 278 278 279 279 278 278 278 278 279 279
297 298 299 298 298 297 296 295 293 292 292 292 292 291 290 290 291 291 291 291 290 288 287 287 286 285 284 284 282 282 281 280 279 279 279 279 279 279 278 277 278 278 278
298 298 299 298 297 295 293 293 292 292 292 291 290 290 290 289 289 291 290 290 289 289 288 287 287 285 284 283 282 282 281 280 280 280 280 280 279 279 277 277 277 277 277
298 297 296 295 293 292 292 292 292 291 291 290 290 290 290 290 289 288 290 289 290 288 287 288 287 286 284 283 282 282 281 281 281 281 280 280 280 279 277 277 277 278 279
293 293 292 291 291 291 291 291 291 290 290 290 290 290 290 289 289 289 288 288 289 288 289 288 287 286 284 283 282 282 281 281 281 281 281 280 280 278 277 277 277 277 278
291 290 290 290 290 290 290 290 289 290 290 290 290 289 290 289 288 287 288 288 288 288 288 288 287 285 284 283 282 282 282 281 282 281 281 280 280 278 277 277 277 277 277
291 291 291 290 290 290 289 289 289 289 290 289 290 290 289 288 288 288 287 287 287 288 288 286 283 284 284 283 282 282 282 281 282 282 281 280 279 278 277 277 276 277 276
290 290 290 290 290 290 290 290 290 290 290 290 290 290 290 289 288 288 288 287 287 288 286 284 284 284 283 283 282 283 283 282 281 282 281 280 279 278 277 277 276 277 277
288 287 287 287 287 287 287 287 287 288 288 288 289 289 290 289 288 288 288 288 287 287 285 284 284 284 284 283 283 283 283 282 281 282 281 280 279 277 276 277 276 276 277
284 284 285 285 285 286 286 286 286 286 287 287 287 287 288 288 289 288 287 286 287 287 286 285 284 284 283 283 283 282 282 282 281 282 282 280 279 277 277 277 276 276 276
279 280 280 280 281 281 282 282 283 283 284 286 286 287 287 287 287 287 286 286 286 286 286 286 285 284 283 283 283 283 283 282 281 281 282 280 279 277 277 277 276 276 276
278 278 278 279 279 280 280 280 281 281 282 282 283 284 285 286 286 285 286 285 286 285 285 285 285 285 284 283 283 283 283 282 281 281 281 281 280 278 278 277 276 276 276
276 276 276 277 277 276 276 277 277 278 278 278 280 282 283 284 285 285 284 285 285 285 285 286 286 285 284 283 283 283 283 282 282 282 282 282 280 279 278 277 276 276 276
274 274 273 273 273 272 272 273 274 274 275 276 275 275 275 277 280 282 282 282 283 283 282 282 283 285 284 283 283 283 284 283 283 283 283 283 281 280 278 277 276 276 276
272 271 270 270 270 270 270 270 270 271 271 271 271 272 272 273 273 273 274 274 275 277 278 279 280 280 281 283 283 283 284 284 284 284 283 283 282 280 278 277 276 275 276
270 269 268 268 267 267 267 267 267 268 267 267 268 269 269 270 270 270 271 271 272 273 274 275 275 277 278 280 280 282 284 285 285 285 284 284 283 281 279 277 276 275 275
268 267 267 266 266 265 265 265 265 265 265 265 265 266 266 267 267 268 268 269 269 270 271 272 273 274 275 278 279 280 281 282 284 284 284 283 283 282 280 278 277 275 275
267 266 266 265 265 264 263 263 263 263 263 263 263 264 264 265 266 266 267 267 267 268 269 271 273 274 275 276 278 278 280 281 282 283 284 283 282 281 280 278 277 275 275

GFSGL_925_thetae_036.txt.gz
Theta_e
326 325 324 323 318 315 313 309 305 300 298 301 298 299 297 297 296 295 294 294 294 294 294 294 293 292 293 293 293 292 291 290 288 288 286 284 283 282 281 279 280 280 280
321 319 317 316 315 312 311 309 302 300 300 300 299 298 297 296 295 295 295 294 293 293 293 293 293 292 292 292 291 290 290 288 286 283 283 282 282 281 279 279 279 280 279
317 315 312 312 310 309 307 303 300 299 300 298 298 297 297 296 295 295 295 294 294 293 293 293 292 292 291 291 290 289 288 286 284 282 281 281 281 280 278 278 279 279 278
312 311 310 307 305 302 300 299 299 299 299 298 297 296 295 295 295 295 295 294 294 293 293 293 292 292 291 290 289 287 286 284 283 282 281 281 280 279 278 279 278 278 278
308 307 306 304 302 302 301 300 299 298 297 295 295 295 298 295 295 295 294 294 294 293 293 292 292 291 290 288 287 286 284 283 282 282 280 279 278 278 278 278 277 278 278
309 306 303 302 302 301 300 300 298 296 295 296 297 297 297 296 293 294 294 293 293 293 293 292 291 289 287 286 286 285 284 283 282 280 280 278 277 277 278 278 277 278 279
305 303 302 301 300 297 295 295 297 297 297 297 297 296 295 293 292 292 293 293 293 293 292 291 289 288 286 286 285 284 283 282 281 280 280 278 277 278 278 278 278 278 279
300 299 297 297 296 297 297 298 297 296 296 296 295 294 292 292 292 292 292 292 292 292 292 291 288 287 287 286 285 284 283 282 281 281 279 278 278 279 279 278 278 278 278
296 296 297 297 298 298 297 296 297 297 296 294 293 292 292 291 290 290 291 291 291 291 291 290 288 287 287 286 284 284 283 282 281 280 279 279 279 279 279 278 277 278 277
297 298 298 298 298 298 297 298 296 296 295 292 292 291 291 290 289 289 289 290 290 290 290 289 288 287 287 285 284 284 282 282 281 279 279 279 279 279 279 278 277 277 277
298 298 299 299 299 298 295 294 293 292 292 291 291 291 290 289 290 289 289 288 289 289 288 289 289 287 286 286 284 283 283 282 281 280 280 280 280 280 279 278 277 277 277
297 296 295 294 293 292 292 291 291 291 291 290 290 290 290 290 290 289 289 289 288 288 289 289 288 288 288 285 284 284 282 282 281 280 280 281 280 280 279 278 277 276 277
292 291 290 290 290 290 290 290 290 290 290 289 289 289 290 290 290 290 289 288 288 288 288 288 288 288 287 286 284 284 282 282 281 281 281 281 280 280 279 278 277 276 276
291 290 290 290 290 290 290 289 289 289 289 289 288 288 289 289 289 290 289 288 287 287 286 287 288 286 285 285 285 283 282 282 282 281 281 281 280 280 279 278 277 276 276
290 289 289 288 288 288 288 287 288 288 288 288 287 288 287 287 288 289 289 288 288 287 287 286 286 285 284 283 283 283 282 282 282 282 281 281 281 280 279 277 276 276 276
287 286 285 285 285 285 285 285 284 285 286 286 286 287 287 287 287 288 288 287 287 287 286 285 284 283 283 283 282 282 282 283 282 282 281 281 281 280 279 277 276 276 276
281 281 281 280 281 282 282 282 282 282 282 282 283 283 284 285 286 286 287 287 287 287 287 286 285 284 283 283 283 283 282 284 284 283 282 281 281 280 278 277 276 276 276
279 279 279 279 279 280 280 279 279 280 280 280 281 281 282 282 283 284 285 286 286 285 285 285 285 285 284 283 283 283 283 284 282 282 282 281 281 280 278 277 276 276 275
277 277 277 277 278 277 277 277 277 278 278 278 277 278 277 277 280 282 283 285 285 285 285 285 285 285 284 284 283 283 282 283 283 282 282 281 281 280 279 278 277 276 275
275 275 275 275 275 275 274 274 275 275 275 276 276 275 274 274 275 275 280 283 284 284 285 285 284 284 284 284 284 283 281 281 282 282 281 281 281 280 280 278 277 276 275
273 273 272 273 272 271 271 271 271 271 271 272 271 271 271 272 273 273 273 274 273 274 277 280 283 283 283 283 283 282 281 281 282 282 281 281 281 280 280 279 278 276 275
272 271 271 270 269 269 269 268 268 268 268 268 268 268 269 269 270 270 271 271 271 272 273 274 274 276 278 280 281 282 281 281 281 283 282 281 281 281 280 279 278 276 275
270 269 269 268 267 267 267 266 266 266 266 265 265 265 266 266 266 267 268 268 269 269 271 272 273 273 274 277 279 279 281 281 282 283 283 282 282 281 281 279 278 276 275
268 268 267 266 266 265 265 264 264 264 264 264 264 264 264 264 265 265 266 266 267 267 268 269 271 272 272 273 275 277 279 279 281 282 284 283 282 281 281 279 278 277 276
267 267 266 265 265 264 264 263 263 263 262 263 263 263 263 263 263 264 264 265 265 265 267 268 269 270 272 272 274 275 277 279 279 280 282 282 283 282 281 280 279 277 275
266 266 265 264 264 263 263 262 262 262 262 262 262 262 262 262 262 263 263 263 264 265 265 267 268 269 271 272 274 275 277 278 279 280 280 281 281 281 280 279 279 277 276

GFSGL_925_thetae_039.txt.gz
Theta_e
324 323 324 324 322 321 318 316 311 307 304 300 298 299 299 296 295 295 295 295 294 294 294 294 295 295 294 294 294 294 293 292 291 290 289 287 286 285 284 283 281 281 281
326 325 324 323 323 321 317 314 310 306 302 299 300 300 299 296 296 296 295 297 294 294 294 294 294 294 294 294 293 293 292 291 290 289 288 286 284 284 283 282 281 281 281
322 319 316 314 312 311 312 310 306 302 300 298 301 298 299 296 295 295 297 296 294 294 294 294 294 294 293 293 292 291 290 289 288 287 286 285 284 283 282 281 281 281 280
313 310 309 308 308 307 306 304 302 301 300 299 297 297 296 295 295 296 297 295 294 294 293 293 293 293 293 292 291 290 289 288 287 285 285 284 284 283 281 280 281 281 280
312 309 307 305 303 302 301 300 299 298 298 297 296 295 296 297 297 297 296 295 294 294 293 293 293 293 292 291 290 289 288 286 286 285 285 284 283 283 281 280 280 280 280
307 305 303 302 302 301 300 299 297 297 296 295 297 297 297 296 296 297 295 292 293 293 293 293 293 292 292 291 289 287 286 286 285 285 284 284 283 282 280 280 280 280 281
304 302 301 301 300 298 297 296 296 296 297 296 296 296 296 295 296 294 292 292 292 293 292 292 292 291 291 289 287 286 286 285 284 284 283 283 283 280 280 280 280 280 280
299 298 298 298 297 296 297 296 296 297 297 296 296 296 295 296 293 291 291 290 291 291 292 292 291 290 289 288 286 286 286 285 284 283 282 282 281 280 280 280 280 280 280
298 298 298 297 297 297 297 297 297 297 297 296 296 295 294 292 291 291 289 289 290 290 291 290 290 290 290 288 286 286 285 284 283 282 282 281 279 279 280 280 280 280 280
298 298 298 298 298 298 298 298 297 296 296 295 293 292 291 291 291 290 289 289 289 289 289 290 290 289 289 289 286 286 285 285 283 282 281 280 280 280 280 280 280 280 280
297 297 297 297 296 295 294 294 293 293 292 291 291 291 291 290 290 290 290 289 289 289 289 289 289 290 289 288 289 285 285 285 283 282 282 281 281 281 281 280 280 279 279
295 294 292 292 291 291 290 290 290 290 290 290 290 290 289 289 289 289 289 290 289 288 289 288 288 288 289 288 286 287 286 284 283 283 282 281 281 281 281 281 280 279 279
290 290 290 290 290 290 290 290 290 289 289 289 289 289 290 289 289 289 290 289 289 289 288 287 287 287 288 287 286 286 286 283 283 283 283 282 282 282 281 280 279 279 278
290 289 289 288 288 288 288 287 287 287 287 287 288 288 287 287 287 288 288 288 287 287 288 287 286 286 286 286 286 285 285 284 283 284 283 283 282 281 281 280 280 279 278
288 287 286 285 285 285 284 284 284 284 284 284 284 284 285 285 284 285 285 286 286 287 287 286 286 286 285 285 285 285 284 284 283 283 283 282 281 281 281 280 280 279 278
284 283 282 282 282 282 282 282 281 280 280 280 281 281 282 282 281 281 281 282 283 285 287 286 287 286 286 285 285 284 284 283 283 283 282 282 282 282 281 280 279 279 278
281 280 280 280 280 280 280 280 280 280 279 279 279 279 279 277 277 278 278 280 282 283 285 287 287 286 286 285 284 284 285 284 283 282 282 282 282 282 281 281 280 279 279
279 277 278 279 278 278 278 278 278 278 278 278 277 277 275 274 276 277 277 278 282 284 286 286 286 286 286 285 284 284 284 284 282 282 282 282 282 282 281 281 280 279 279
277 277 276 277 276 275 275 275 276 275 275 275 275 274 273 272 274 275 275 276 276 276 276 279 285 286 285 285 284 284 284 284 283 282 282 281 281 281 281 281 280 278 277
275 274 274 274 274 273 273 273 273 273 273 273 272 271 270 270 272 272 273 273 274 274 274 275 275 276 283 284 284 284 284 283 283 281 281 281 281 280 281 280 280 280 278
274 273 272 272 272 271 271 271 270 270 271 270 270 269 267 268 270 270 271 271 271 272 271 271 272 273 274 276 278 282 283 283 282 281 280 280 280 280 280 281 280 279 278
271 270 271 270 270 269 268 268 268 267 268 268 267 267 266 267 268 268 268 268 268 269 270 269 270 270 271 272 273 276 278 282 282 281 280 280 280 280 280 280 279 279 278
269 269 269 268 267 266 266 265 265 266 266 266 265 265 266 266 265 266 266 266 266 267 267 267 268 269 269 270 272 272 274 277 277 281 280 280 279 280 279 280 279 278 278
268 267 267 266 265 265 264 264 264 264 263 264 263 264 264 264 264 264 265 264 265 265 265 265 266 267 268 268 271 272 272 273 274 277 280 280 280 280 280 280 279 278 278
267 266 265 265 264 263 263 263 262 262 262 262 262 262 262 262 263 263 263 263 263 263 263 264 265 266 266 268 270 271 271 274 275 276 278 280 280 280 280 279 279 278 277
266 266 265 264 263 262 262 261 261 261 261 261 261 261 261 261 261 261 262 262 262 262 262 263 265 265 266 268 269 270 272 274 276 276 278 279 280 280 279 279 278 278 276

GFSGL_925_thetae_042.txt.gz
Theta_e
331 329 326 325 325 323 322 319 315 312 310 305 303 303 302 299 297 297 298 298 299 299 298 297 297 297 296 296 295 295 294 294 294 294 292 291 291 289 288 287 286 285 284
331 330 328 325 323 320 317 316 312 309 308 304 304 303 300 299 298 297 297 297 299 299 297 297 297 296 296 296 295 295 294 294 293 293 292 291 290 289 287 286 285 284 284
327 325 324 321 317 314 314 312 310 309 306 304 302 300 299 299 297 297 297 296 299 298 297 297 297 296 296 295 295 294 293 293 292 291 291 290 289 288 287 286 285 284 284
321 320 319 317 316 316 313 310 308 306 304 302 300 299 298 297 297 296 295 296 297 298 297 296 296 296 296 295 294 294 293 292 292 291 290 289 288 287 286 286 285 284 284
318 318 316 314 312 310 308 307 305 305 301 300 298 297 297 297 295 297 297 296 296 297 296 296 296 296 295 294 293 293 293 292 291 290 290 288 288 287 287 286 284 284 284
314 312 310 308 305 304 302 300 298 297 297 297 298 297 296 296 297 296 296 296 296 295 295 295 295 295 294 293 293 292 291 291 291 290 289 288 287 287 286 285 284 284 285
310 308 306 304 301 299 298 297 296 298 297 297 297 297 297 297 298 296 296 295 293 294 294 294 294 294 294 293 293 292 290 288 287 288 288 287 287 286 285 283 283 284 284
306 304 303 302 300 299 299 299 297 297 297 297 298 297 299 298 296 296 294 291 292 292 292 292 293 293 293 293 292 292 291 290 288 286 286 286 286 285 284 283 283 283 283
304 303 302 301 301 301 300 299 300 300 299 300 298 297 296 296 296 293 291 291 291 292 292 291 292 292 292 292 292 291 291 290 289 287 286 285 284 283 282 281 282 283 283
302 302 301 301 301 301 300 298 298 297 297 296 296 295 294 294 293 292 291 291 291 291 291 291 291 290 290 291 290 290 291 290 289 288 285 283 283 283 281 281 282 283 283
301 300 299 297 296 296 296 295 295 294 294 294 294 293 293 293 292 291 290 289 291 291 291 291 291 291 290 289 289 288 289 290 290 288 287 286 285 284 283 283 283 283 283
296 295 295 293 292 292 293 293 292 292 292 292 292 292 292 292 292 291 290 289 288 288 290 290 291 291 290 289 288 287 287 287 288 287 286 286 285 284 284 284 283 283 282
293 293 293 292 292 292 292 292 292 292 291 291 290 290 289 288 287 286 286 286 286 287 288 288 287 288 288 288 287 287 287 287 286 286 287 286 286 285 285 284 283 282 282
293 292 292 290 291 290 289 288 287 287 287 286 286 286 286 286 286 283 282 282 283 284 285 286 286 287 287 287 288 287 286 286 287 287 286 286 285 285 284 283 283 283 282
291 289 288 287 286 286 285 285 284 284 282 283 283 283 283 283 281 279 280 280 280 280 281 283 285 286 287 288 287 286 286 286 287 286 286 286 285 285 284 284 283 283 282
287 286 284 285 285 284 284 284 282 281 279 280 279 279 280 279 277 277 278 278 279 280 283 284 285 286 287 288 288 287 286 286 286 287 286 286 286 285 284 284 283 282 283
284 283 283 283 283 282 282 282 282 282 280 279 278 277 277 275 275 276 276 277 279 280 281 282 285 287 287 288 288 287 286 286 285 285 285 285 285 285 284 284 283 282 282
281 280 282 282 281 281 280 280 280 280 280 279 278 276 275 273 273 275 275 277 278 279 279 279 280 281 282 283 287 287 286 286 285 286 286 285 285 285 285 284 283 283 282
281 280 280 280 279 278 278 278 278 278 278 278 277 276 275 272 273 274 274 276 275 276 276 277 277 277 279 279 280 287 286 286 285 285 285 284 284 285 285 284 283 283 282
278 275 277 278 277 277 277 277 276 276 276 276 275 274 272 271 274 274 274 274 274 274 274 274 275 275 276 276 278 279 282 285 285 285 285 284 284 284 284 283 283 283 281
278 276 274 276 276 275 275 275 274 274 274 274 274 272 268 269 272 272 272 272 272 272 272 272 272 273 274 274 275 275 277 280 284 284 284 284 283 284 284 284 283 282 282
275 274 274 274 274 273 272 272 272 272 272 272 272 271 269 271 271 270 271 270 270 270 270 270 270 271 272 272 272 272 274 276 279 280 283 283 282 283 283 283 283 282 282
273 273 273 272 271 270 271 271 271 270 270 270 270 270 269 269 269 269 269 269 269 268 268 268 269 269 270 270 271 271 271 273 275 276 278 280 282 283 283 283 283 282 282
271 271 271 271 270 270 270 269 269 268 268 268 268 268 268 268 268 268 268 268 267 267 267 267 267 267 268 268 269 270 270 271 272 272 274 277 280 282 283 283 282 282 282
270 270 270 270 269 269 269 268 268 268 267 267 267 267 267 267 267 267 266 266 266 266 266 265 266 267 267 267 267 268 269 269 269 270 272 276 278 282 282 283 283 282 282
270 269 269 269 268 268 267 267 267 266 266 266 265 266 265 265 265 265 265 265 265 264 264 265 265 265 265 266 267 268 267 269 271 271 272 274 277 281 282 282 282 282 281

GFSGL_925_thetae_045.txt.gz
Theta_e
333 331 330 327 327 325 325 324 322 319 313 309 309 306 305 305 303 300 298 298 300 300 300 301 300 299 299 298 298 297 297 296 297 296 295 295 294 293 293 292 291 289 288
334 332 331 328 327 325 324 323 321 317 314 311 307 305 305 304 301 298 299 299 300 300 298 300 299 299 299 298 298 297 296 296 295 296 295 294 293 292 292 291 290 289 288
332 332 330 327 324 323 321 319 317 314 312 306 305 305 304 301 299 299 299 298 297 297 298 300 300 299 299 298 298 297 296 295 295 295 294 293 293 292 291 290 289 288 287
331 330 328 322 319 318 315 313 311 309 307 306 305 303 301 299 300 298 298 297 297 298 298 299 299 298 298 298 298 297 296 296 295 294 294 293 292 291 290 289 289 288 287
326 325 322 320 319 318 316 313 310 308 305 303 301 300 299 299 298 297 298 298 298 298 297 298 298 297 298 297 297 297 296 295 295 294 294 293 292 291 290 289 289 288 286
321 318 316 314 312 310 309 307 307 305 304 301 300 299 298 298 298 297 298 299 298 296 297 297 297 296 296 296 296 295 295 294 294 294 293 293 292 291 290 289 288 287 286
314 312 310 308 306 304 303 302 301 300 300 299 298 298 299 300 298 297 297 297 296 296 296 295 295 294 294 294 294 295 294 294 293 292 292 292 291 290 289 289 288 286 285
310 309 307 305 304 303 303 302 301 300 300 300 300 300 300 299 298 298 297 296 295 294 294 294 294 293 293 293 294 294 294 294 293 291 289 289 290 290 289 288 287 285 284
308 307 306 306 305 304 303 302 302 301 301 300 300 299 298 298 297 296 294 293 293 293 293 293 293 293 293 292 292 292 293 293 293 292 291 290 289 288 287 286 285 284 285
306 306 305 304 304 303 302 301 300 299 299 299 298 297 296 295 295 294 292 292 292 292 292 292 292 292 292 292 291 291 291 292 292 292 291 289 288 287 286 284 284 284 285
305 304 302 302 301 300 299 298 297 297 296 296 295 295 294 294 293 292 291 290 289 289 289 289 290 290 291 291 290 290 290 290 290 291 291 290 289 287 286 285 283 283 284
301 300 299 297 295 295 296 295 294 295 295 295 295 294 293 293 291 289 287 286 285 285 286 286 287 288 287 286 287 288 288 289 288 288 289 289 289 288 287 286 285 284 285
298 296 295 294 294 294 295 294 294 293 292 291 290 290 290 289 288 287 284 282 282 282 282 282 282 282 285 286 287 288 288 288 288 288 289 289 288 288 288 286 285 286 285
296 295 294 294 293 292 291 290 290 290 289 287 287 287 287 286 286 282 280 281 281 281 281 281 281 283 283 285 286 287 287 288 287 287 288 288 288 288 287 286 286 285 284
294 293 292 290 289 289 288 287 286 284 282 284 285 284 284 283 281 278 277 278 279 279 279 281 285 286 286 286 286 287 288 288 287 287 287 287 288 287 287 286 285 285 285
291 289 289 289 288 287 287 286 283 282 281 279 279 279 280 279 277 276 276 277 277 278 280 282 282 283 284 284 285 285 288 288 287 287 287 288 288 288 287 286 286 285 285
289 287 285 287 286 286 285 285 286 282 281 280 279 278 277 276 275 275 276 276 277 278 280 280 280 280 280 281 282 283 282 287 286 286 286 287 287 287 287 286 286 285 284
284 284 286 285 284 284 283 283 283 283 282 282 280 278 277 275 274 275 276 276 278 278 278 278 278 278 278 278 279 280 281 281 287 287 286 287 286 287 287 286 286 285 285
284 283 284 283 281 280 281 281 281 280 280 280 280 279 278 274 274 276 276 277 277 277 276 276 276 276 276 276 276 277 278 279 282 286 286 286 286 286 286 286 286 285 285
279 279 281 281 280 279 279 280 279 279 279 279 278 278 276 273 274 276 276 275 275 275 274 274 274 274 274 274 275 275 276 276 278 280 285 285 285 285 286 286 285 285 284
280 278 277 278 278 278 278 278 277 277 277 277 277 276 272 271 273 275 274 274 274 273 272 272 272 272 272 273 273 273 274 274 275 277 279 281 285 285 285 286 285 285 284
277 277 277 277 276 276 275 275 275 275 275 275 275 274 273 273 273 273 273 272 272 271 271 271 271 271 271 271 271 272 272 273 274 274 276 277 279 283 284 285 285 284 283
276 276 276 275 275 273 275 274 274 274 274 273 273 273 273 272 272 271 271 271 270 270 269 269 269 269 269 269 270 270 271 271 272 272 273 273 275 278 282 284 284 284 283
274 274 274 274 274 272 274 273 273 272 272 272 272 272 272 271 270 270 270 270 269 269 268 268 268 267 268 268 268 269 269 269 270 271 271 271 273 276 278 283 284 284 283
274 274 273 273 273 273 272 273 272 272 271 271 271 270 270 269 269 269 269 268 268 267 267 266 266 267 267 267 267 267 268 269 269 269 269 271 273 274 277 279 284 283 283
273 272 272 272 272 272 271 271 270 270 270 269 269 268 268 268 268 267 267 266 267 266 265 266 266 266 266 266 268 268 268 267 267 268 269 270 272 274 277 281 283 283 283

GFSGL_925_thetae_048.txt.gz
Theta_e
332 333 332 330 327 329 329 327 325 325 322 320 318 315 312 309 306 305 305 302 299 300 300 300 301 300 301 300 299 299 298 298 297 297 297 296 295 295 294 293 293 292 291
333 333 332 331 330 327 326 325 325 323 320 318 315 310 307 306 305 305 302 300 300 300 300 300 300 300 300 300 300 299 298 298 297 296 296 296 295 294 294 293 292 291 291
334 333 333 331 328 327 325 324 323 320 318 314 310 308 306 305 305 303 299 299 300 300 300 299 299 299 300 300 300 299 298 298 297 297 296 295 295 294 293 293 292 291 290
333 332 330 328 326 323 321 320 318 317 315 312 309 306 305 305 303 300 299 299 299 298 299 298 298 298 299 299 299 298 298 298 298 297 296 296 295 294 293 292 291 290 289
330 327 325 322 320 318 315 314 313 311 309 307 306 305 304 304 301 299 299 299 298 298 298 298 298 297 298 298 298 298 297 297 297 296 295 295 294 294 293 292 291 290 289
323 321 320 319 318 316 314 311 308 306 305 303 302 302 301 299 299 299 298 298 298 299 299 297 297 297 297 296 296 296 295 296 295 295 294 294 294 293 292 291 290 289 287
319 317 315 312 309 308 306 305 305 304 302 301 300 299 299 299 299 298 297 297 297 297 297 296 296 295 295 294 294 294 294 294 294 295 294 293 293 293 292 291 290 289 288
314 311 309 307 305 304 303 302 301 301 300 300 300 300 300 299 298 298 298 297 295 295 295 294 294 293 293 294 293 293 292 292 292 294 294 294 293 292 291 291 290 289 287
310 309 307 306 305 304 303 302 302 302 301 301 300 300 299 299 299 296 295 294 293 293 293 292 292 292 292 291 290 291 291 291 291 291 291 292 292 292 290 289 288 287 285
309 308 307 306 305 304 303 302 302 301 301 300 299 299 297 295 294 293 292 292 291 291 290 289 289 288 289 289 288 287 288 289 290 290 290 291 291 291 290 289 288 286 285
307 306 305 304 303 302 301 301 300 299 298 296 295 295 295 294 292 291 290 288 286 285 285 285 285 284 284 282 282 282 284 286 286 287 288 289 290 290 289 288 288 286 285
304 303 302 302 300 299 297 296 295 295 295 295 295 294 293 291 289 288 287 286 285 282 282 282 282 282 280 282 283 283 283 285 286 286 287 288 288 289 289 288 287 286 285
302 300 296 296 296 296 296 295 295 294 292 291 290 290 289 288 288 286 285 282 279 280 280 281 279 279 283 285 286 286 286 285 285 286 286 287 288 288 289 289 288 287 285
297 296 295 295 294 293 292 291 291 290 289 288 288 287 287 286 285 283 279 277 278 278 278 278 279 282 283 283 284 284 285 285 287 287 287 287 288 288 288 288 288 286 285
297 295 293 292 291 290 288 288 287 284 284 285 285 284 283 283 280 278 277 277 277 277 278 279 280 282 281 281 280 281 282 282 282 287 287 287 288 288 287 287 286 286 286
293 291 290 289 289 289 287 284 283 283 282 280 279 279 279 279 277 276 276 277 277 278 278 279 280 279 279 279 279 279 279 279 280 280 287 287 288 288 287 287 286 286 285
289 289 288 288 287 287 286 286 283 281 281 281 280 279 278 277 276 276 276 277 278 279 279 279 278 278 278 277 277 277 277 278 277 280 282 286 286 287 287 287 286 286 285
287 287 287 286 285 285 284 284 284 284 283 282 280 279 278 276 276 275 276 277 277 277 277 277 276 276 276 276 275 275 275 276 276 276 278 285 286 287 287 287 287 286 285
285 285 284 283 283 282 282 282 282 281 281 281 280 280 277 276 276 276 277 276 276 276 275 275 274 274 274 273 273 274 274 274 275 275 276 279 283 286 286 286 286 286 285
281 282 282 281 280 280 280 280 280 280 279 279 279 279 277 276 273 274 276 275 275 274 274 273 273 272 272 272 272 272 272 273 273 274 275 275 277 280 285 285 286 286 285
279 278 279 279 279 278 278 278 278 278 278 277 277 277 275 273 273 274 274 273 273 272 272 272 271 271 271 271 271 270 271 271 271 272 273 273 274 275 277 283 284 286 285
278 278 278 277 277 277 276 276 276 276 276 276 275 275 274 273 274 273 272 272 271 271 271 270 269 269 269 269 268 269 269 269 270 270 271 272 272 273 274 277 279 285 285
277 277 277 276 276 275 275 276 275 275 274 274 273 273 273 273 272 272 271 271 270 270 269 268 268 268 267 267 267 268 268 268 268 268 269 270 271 271 272 274 277 280 285
275 275 275 275 275 273 274 274 273 274 273 273 273 272 272 271 271 270 270 269 269 268 267 267 267 266 266 267 267 266 267 267 268 269 269 268 268 269 271 273 274 277 283
275 274 274 274 274 274 274 273 273 272 272 271 271 271 270 270 269 269 268 268 267 266 266 266 265 266 265 265 266 267 267 268 267 268 268 269 269 269 270 272 274 278 281
274 274 273 273 273 273 272 271 271 271 270 270 269 268 268 268 267 267 267 266 266 265 264 264 264 264 264 265 266 266 267 267 268 268 269 269 269 270 271 273 274 277 280

GFSGL_925_thetae_051.txt.gz
Theta_e
328 329 330 330 329 328 323 328 328 327 325 325 324 322 321 318 316 314 309 307 306 303 301 301 301 301 302 301 301 300 299 299 296 297 297 297 297 296 296 295 295 293 293
330 329 330 330 329 325 325 328 328 326 325 324 322 320 318 315 312 309 306 305 303 301 301 301 302 301 300 300 300 300 300 299 298 297 297 297 297 296 296 295 294 293 293
327 330 331 330 329 327 328 328 326 325 324 323 319 317 315 311 308 306 305 304 300 300 300 300 301 300 299 299 299 299 299 299 299 298 297 297 297 296 296 295 294 293 292
330 330 331 330 329 328 327 325 325 323 321 317 316 313 310 307 306 304 304 301 300 300 300 299 300 299 299 298 297 298 299 298 298 297 296 296 296 296 295 294 294 293 293
331 331 329 328 326 324 323 321 319 317 316 314 311 308 306 305 305 304 302 300 299 300 298 299 298 298 298 297 297 297 297 297 296 295 294 294 293 294 294 294 293 293 291
327 325 324 323 320 318 316 315 314 312 311 309 308 306 305 304 303 303 300 299 298 298 298 298 298 297 296 295 294 294 294 294 294 293 293 293 293 293 293 293 292 289 289
321 320 319 317 315 314 312 309 307 306 305 304 303 303 302 301 299 299 298 298 298 298 297 297 295 295 294 292 293 292 292 292 292 291 292 292 292 293 293 292 291 291 290
313 311 313 313 311 310 309 306 304 303 302 301 300 299 299 299 299 298 297 297 297 295 294 294 292 292 292 290 290 289 289 289 289 289 290 290 290 290 291 291 291 291 290
310 309 308 307 304 303 303 302 302 300 299 299 300 300 300 299 298 298 297 295 294 293 292 292 291 289 287 287 286 284 282 282 282 285 286 286 286 287 289 289 289 289 288
308 306 305 304 303 303 302 301 301 301 301 300 300 299 299 298 298 295 294 293 292 291 289 287 285 283 282 281 280 281 282 284 283 282 283 285 285 286 287 287 289 288 287
307 306 305 304 303 303 302 302 301 301 300 299 297 295 294 294 291 291 290 288 287 285 284 282 280 280 280 280 283 284 284 285 284 284 284 285 285 285 286 288 289 288 288
307 305 304 303 302 302 301 300 300 298 296 295 294 291 290 289 287 287 287 286 283 280 279 279 279 278 280 282 282 283 283 284 283 283 284 285 285 285 286 287 288 288 288
304 303 303 302 301 300 297 296 295 295 295 293 291 289 286 285 285 285 285 282 278 278 278 277 278 280 282 281 280 279 280 280 282 281 282 283 285 286 286 287 287 287 288
302 300 297 297 296 295 294 294 292 291 289 289 288 286 285 284 284 283 280 278 277 277 277 278 279 280 280 279 278 278 278 278 278 278 279 279 282 286 286 288 287 286 286
296 295 295 293 291 290 290 289 289 287 288 287 286 285 285 283 281 279 277 277 278 278 278 279 279 278 278 277 277 277 276 276 277 276 276 278 279 286 287 287 287 286 285
294 293 292 289 288 288 287 283 283 283 282 282 281 281 280 279 278 277 276 277 278 278 278 278 277 277 276 276 276 275 275 275 275 275 275 276 278 281 287 287 287 286 285
290 289 287 288 287 285 284 283 281 281 282 282 281 280 279 278 278 277 277 277 277 277 277 276 275 274 274 274 274 273 273 273 274 273 274 275 276 277 283 286 287 286 285
288 287 286 285 285 284 284 284 283 282 281 281 280 279 277 277 277 276 277 277 276 275 275 275 274 273 273 272 272 272 272 272 272 272 272 274 274 276 276 285 286 286 285
285 284 284 284 283 283 283 282 281 281 281 280 280 278 276 276 276 275 276 275 275 275 274 273 272 272 272 271 271 271 270 270 271 270 271 272 273 273 274 275 284 286 286
284 283 281 281 280 280 280 280 280 279 279 279 278 278 276 276 275 274 275 274 273 273 272 271 271 270 270 269 269 269 268 268 269 269 270 270 271 272 273 274 276 282 284
280 280 280 279 279 279 278 278 278 277 277 277 276 276 275 274 273 274 273 272 272 271 270 270 269 269 268 268 268 267 267 268 268 268 268 268 269 270 271 272 273 275 277
278 278 278 278 278 277 277 276 276 276 276 275 275 274 274 273 273 273 272 271 271 270 270 269 268 268 267 267 266 267 267 267 267 267 267 267 268 269 269 270 271 273 276
277 277 277 276 276 275 275 276 275 275 274 274 273 273 273 272 272 271 270 270 269 269 268 267 267 267 266 266 266 266 266 266 267 267 267 267 267 268 268 269 270 272 273
275 275 275 275 275 274 274 274 273 273 273 272 272 271 271 270 270 269 269 268 268 267 266 266 266 265 265 264 265 265 266 266 267 267 267 267 267 268 268 268 269 270 273
274 274 274 274 273 273 273 273 272 272 271 271 270 269 269 268 268 267 267 266 266 266 265 265 264 263 263 264 265 265 266 266 266 266 267 267 268 268 268 268 269 271 273
273 272 272 272 272 272 271 271 270 270 269 269 268 268 267 267 266 266 265 265 264 264 264 263 263 263 263 263 264 264 265 265 266 266 267 267 268 268 268 269 270 271 272

GFSGL_925_thetae_054.txt.gz
Theta_e
324 324 324 324 324 325 325 326 327 326 326 325 325 321 319 321 321 319 317 313 311 308 307 306 302 302 302 302 302 301 301 300 297 297 298 298 298 297 297 297 296 296 295
325 326 325 326 326 326 326 327 327 325 326 325 324 322 320 320 318 316 313 312 308 306 304 303 302 301 302 301 300 300 299 299 299 297 298 298 298 298 298 297 297 296 295
327 328 327 327 327 327 327 328 326 323 326 325 324 323 321 318 316 314 312 309 305 305 303 302 301 301 300 299 298 298 298 297 298 298 297 297 297 297 297 297 296 296 296
328 327 327 327 327 327 326 324 324 325 326 324 323 321 319 316 315 312 307 306 304 303 301 301 300 300 300 299 298 297 296 297 297 297 295 295 295 295 295 294 294 294 294
328 326 328 329 328 328 325 323 327 326 324 322 318 315 314 313 310 307 305 304 303 301 300 300 299 299 298 298 296 296 294 294 293 293 293 292 292 292 292 293 292 293 293
326 326 326 323 325 321 320 324 322 320 319 317 314 313 310 308 306 305 304 303 301 300 300 298 299 298 296 295 294 292 291 290 290 290 290 290 290 291 291 291 291 290 290
327 325 322 322 320 319 319 318 317 314 312 310 309 307 306 305 304 303 302 300 299 299 298 298 297 294 294 292 291 291 291 290 287 286 287 287 288 289 289 289 289 289 289
321 318 317 316 316 315 315 313 311 310 309 307 305 305 304 303 301 299 299 298 298 297 296 294 293 292 290 289 288 285 282 281 281 283 283 282 284 285 285 286 285 287 288
313 314 313 313 310 308 307 307 307 304 302 302 301 301 300 299 298 298 297 297 296 294 292 291 290 288 286 283 281 280 282 284 284 284 285 285 285 285 284 284 285 286 286
310 309 309 309 308 308 307 305 303 302 300 299 299 299 299 299 297 297 297 295 293 291 290 288 286 282 280 279 281 283 283 283 283 283 283 283 284 284 284 285 285 285 286
309 308 306 307 307 306 304 302 300 299 299 299 299 298 298 297 296 295 293 292 290 288 285 282 280 279 278 281 282 281 281 280 280 281 281 281 282 283 284 284 285 286 286
307 305 304 304 303 302 301 300 300 300 299 296 293 290 289 289 290 289 289 287 285 282 279 278 278 279 281 282 280 279 279 278 277 279 278 279 280 280 280 283 285 286 286
305 304 303 303 302 302 301 301 300 298 294 290 289 286 285 285 284 284 284 282 279 278 278 278 279 280 281 279 278 278 277 276 276 277 277 277 276 278 278 282 285 286 285
303 302 302 302 301 300 299 299 298 294 291 289 287 284 283 282 282 281 280 278 277 278 278 278 279 279 278 277 277 276 275 275 275 275 275 275 275 276 278 280 286 286 287
301 300 298 296 295 292 291 292 292 290 291 289 287 286 283 281 280 279 277 277 278 278 278 278 277 276 276 275 275 274 273 273 273 273 273 273 274 275 276 278 281 286 286
294 292 291 290 288 287 286 283 283 285 286 286 285 285 282 281 278 277 277 278 278 278 277 276 275 274 274 274 273 273 272 272 272 272 272 272 273 274 274 276 277 285 285
290 288 287 287 285 284 283 282 282 281 281 281 281 280 279 278 278 277 277 277 277 276 275 275 274 273 272 272 272 271 271 270 270 270 270 270 271 272 273 274 276 278 286
287 286 286 285 284 284 283 283 283 283 282 281 280 279 278 278 278 277 277 277 276 275 275 274 273 272 272 271 270 270 270 269 268 269 269 269 270 270 271 272 274 275 280
284 283 284 284 284 284 284 283 282 282 282 281 280 278 278 277 276 275 276 275 274 274 273 272 271 271 270 269 269 269 268 268 268 268 268 268 268 268 269 271 272 273 274
285 285 285 283 282 281 281 281 280 280 280 279 279 278 276 275 275 274 274 273 273 272 271 271 270 269 269 268 268 267 267 267 267 267 267 267 267 267 268 270 270 271 272
281 281 281 280 279 279 279 278 278 278 277 277 276 276 275 274 274 274 273 272 272 271 270 270 269 268 268 267 267 266 266 266 266 266 266 267 267 266 267 267 269 270 272
279 279 278 278 277 277 276 276 276 276 276 275 274 274 273 273 273 272 271 271 270 270 269 268 267 267 266 266 266 265 265 265 265 266 266 266 266 266 267 267 267 269 270
277 277 276 276 275 275 275 275 274 274 274 273 273 272 272 271 271 270 269 269 268 268 267 267 266 266 265 265 264 264 264 265 265 266 266 266 266 266 266 266 267 268 269
275 275 275 274 274 274 274 273 273 272 272 271 271 270 269 269 268 268 267 267 266 266 265 265 265 264 264 263 263 264 264 264 265 265 265 265 266 266 266 266 267 267 268
273 273 273 272 272 272 271 271 271 270 270 269 269 268 268 267 267 266 265 265 265 264 264 264 263 263 262 263 263 264 264 264 264 264 265 265 266 266 266 267 267 268 268
271 271 271 271 270 270 269 269 269 268 268 268 267 267 267 266 265 265 264 264 263 263 263 262 262 261 262 262 262 262 262 263 264 265 265 266 266 267 267 267 268 268 269

GFSGL_925_thetae_057.txt.gz
Theta_e
315 314 314 314 315 316 318 319 320 324 325 324 324 324 323 324 323 324 323 321 318 316 312 309 308 307 305 303 302 302 301 299 297 298 298 299 298 298 298 298 298 297 297
317 317 316 317 318 319 320 321 322 323 325 325 325 324 321 323 323 320 320 318 315 311 310 307 306 304 302 302 301 299 299 299 298 297 297 298 297 297 296 296 296 296 296
321 320 321 322 322 322 322 323 323 324 324 323 325 325 324 322 319 319 318 316 313 310 309 306 305 303 302 301 299 298 297 297 296 296 295 296 295 294 294 293 293 293 293
322 323 323 324 324 323 324 324 324 325 324 322 325 324 323 321 319 316 314 311 310 309 306 306 303 302 301 300 299 298 296 296 295 293 293 292 292 292 291 291 291 291 291
324 324 324 325 325 325 325 325 325 324 324 325 324 323 322 320 317 313 312 309 307 305 304 302 301 300 300 298 298 296 295 293 291 290 290 289 289 290 289 290 290 290 290
325 325 325 325 325 326 325 325 323 323 324 322 322 320 318 316 314 312 310 306 305 303 301 300 299 298 298 297 295 294 292 290 289 287 287 286 286 285 286 287 287 286 287
326 325 325 326 325 323 324 324 321 319 320 319 318 317 314 312 310 308 306 304 303 301 300 299 297 296 295 293 293 291 290 287 284 281 281 282 283 283 283 285 284 284 284
325 324 323 323 322 319 319 317 315 315 317 315 312 311 309 307 306 304 303 302 300 299 298 297 296 293 293 292 290 288 284 281 282 284 284 284 284 284 284 284 284 284 284
323 322 320 320 316 315 313 311 312 312 309 309 308 306 306 304 303 302 300 298 297 296 295 293 291 290 288 286 283 281 281 282 282 282 282 282 282 282 283 283 284 284 284
317 316 316 315 314 311 311 311 311 310 309 306 304 303 302 301 299 298 298 297 295 292 290 288 288 286 282 280 280 282 282 281 280 279 279 280 280 280 281 282 283 283 284
316 316 314 313 313 313 310 307 304 303 301 299 298 297 297 297 297 296 296 296 294 289 287 285 282 280 279 280 282 281 280 279 277 277 277 277 278 278 278 279 279 280 283
312 310 308 308 308 306 305 301 300 299 297 295 294 292 292 293 293 294 292 291 289 287 283 280 279 279 280 281 280 279 278 277 276 275 276 276 276 276 276 277 278 279 281
306 305 304 304 303 303 302 299 297 297 293 289 288 286 285 285 285 287 287 285 283 281 279 278 279 280 280 279 278 277 276 275 274 274 275 274 274 274 275 276 277 278 281
303 302 301 301 299 299 299 298 297 294 291 288 285 283 282 282 282 282 282 280 279 278 278 278 279 279 278 277 276 275 274 274 273 273 273 273 272 273 274 274 275 276 278
300 298 297 297 297 294 293 293 293 292 294 290 287 285 283 281 281 280 279 278 278 278 278 278 278 277 276 275 275 274 273 272 272 272 272 271 271 271 273 273 273 275 276
294 293 292 291 289 287 286 284 286 289 290 290 288 287 283 282 278 278 278 278 278 278 278 276 275 274 274 274 273 272 271 271 270 270 270 270 269 270 271 271 272 273 275
291 289 287 286 285 284 283 282 281 281 281 281 282 281 280 278 279 278 277 278 277 276 276 275 273 273 273 272 272 271 271 270 269 268 269 268 268 269 268 269 271 272 273
286 285 285 284 284 283 283 283 282 282 281 280 281 281 279 279 278 278 278 278 276 275 275 274 273 272 272 271 270 269 269 268 268 267 268 267 267 267 267 267 269 271 271
284 284 284 284 284 285 285 284 283 283 282 280 279 278 278 278 277 276 276 276 275 274 273 273 272 271 270 269 268 268 268 267 267 267 267 266 266 266 266 266 267 268 269
285 285 284 283 283 283 282 282 281 281 280 280 279 277 276 276 275 274 274 274 273 273 272 271 270 269 268 268 267 267 266 266 266 266 266 266 266 266 266 266 266 266 269
282 281 281 280 280 279 279 278 278 278 277 277 276 276 275 274 274 273 273 272 272 271 270 269 269 268 267 267 266 266 265 265 265 265 265 266 266 266 266 266 266 266 267
278 278 277 277 277 276 276 276 276 276 275 275 274 274 273 273 273 272 271 270 270 269 268 268 267 266 266 265 265 264 264 264 264 265 265 265 265 265 265 265 265 266 266
276 276 275 275 275 275 274 274 274 274 273 273 272 271 271 270 270 269 269 268 268 267 266 266 265 265 265 264 264 263 263 263 264 264 264 264 264 264 265 265 265 265 266
274 274 273 273 273 273 272 272 271 271 271 270 270 269 269 268 268 267 267 266 265 265 265 264 264 263 263 263 262 262 263 263 263 263 263 263 264 265 265 265 265 266 266
272 272 271 271 271 270 270 269 269 269 269 268 268 267 267 267 266 265 265 264 264 263 263 262 262 262 261 261 262 262 262 262 263 263 263 264 264 265 265 265 266 266 266
270 269 269 269 268 268 268 267 267 267 266 266 266 266 265 265 264 264 263 263 262 262 261 261 260 260 260 260 261 261 261 262 262 263 263 263 264 265 265 265 266 266 267

GFSGL_925_thetae_060.txt.gz
Theta_e
315 315 315 315 314 314 315 315 316 315 315 315 316 318 321 324 323 322 322 321 320 321 319 317 314 312 310 307 306 305 303 302 299 299 299 299 298 298 298 297 296 296 295
315 314 314 314 315 315 314 314 315 315 317 316 318 319 322 324 324 323 322 321 321 320 318 314 312 310 308 306 304 302 301 300 299 297 297 296 296 297 295 294 294 293 293
316 315 314 314 314 314 314 315 315 316 318 318 319 322 324 324 323 323 321 322 321 319 317 313 310 307 305 303 302 300 298 297 296 295 294 294 294 293 292 292 291 291 291
316 316 316 315 315 315 315 316 317 318 319 319 321 322 323 323 322 321 321 319 317 315 313 310 308 307 305 302 300 298 297 296 295 294 292 291 291 291 290 288 287 285 284
319 318 318 318 318 318 320 320 320 321 321 322 322 321 321 322 322 321 319 316 315 313 309 307 306 305 303 301 299 298 297 295 293 291 290 289 288 287 284 283 284 284 284
320 320 320 320 321 321 322 322 322 322 323 323 323 320 321 321 322 320 319 316 313 309 306 304 302 301 300 299 298 296 295 293 291 288 287 285 282 282 283 284 284 284 284
321 321 321 321 322 322 323 323 323 323 323 322 321 320 319 319 319 317 316 312 308 305 304 302 299 298 298 296 295 293 291 290 287 283 282 282 283 283 283 283 283 283 283
323 323 323 323 323 323 323 323 322 320 319 319 317 317 317 317 314 309 307 306 304 303 301 300 298 295 293 292 291 290 288 284 282 282 283 283 283 283 283 282 283 283 283
323 324 324 323 323 322 320 320 317 315 314 313 312 311 311 308 307 304 304 302 300 298 297 296 295 291 289 290 288 286 282 282 282 281 280 279 281 280 280 281 282 282 282
322 322 322 321 321 318 317 315 314 311 308 307 305 305 305 303 301 302 301 299 296 293 291 289 289 288 286 285 282 281 281 281 280 279 278 278 278 278 278 278 280 280 280
319 319 319 319 318 316 312 309 307 305 302 300 300 299 300 299 298 298 298 297 295 291 288 285 284 282 280 280 281 281 280 279 278 277 276 276 276 276 276 276 277 277 278
317 315 314 313 311 308 306 301 301 298 295 293 293 292 293 294 295 296 295 295 292 291 286 283 281 279 280 281 280 279 278 277 276 275 275 275 275 275 274 274 275 276 276
311 306 305 305 303 303 302 299 296 295 292 289 288 285 285 287 289 291 290 289 287 286 282 279 279 280 280 279 278 278 277 275 274 274 274 274 273 273 273 274 274 274 275
303 301 300 300 298 298 297 296 294 292 290 289 287 284 283 284 284 284 283 282 280 280 278 278 279 279 278 277 277 276 275 274 273 273 272 272 272 271 272 273 272 273 274
301 298 297 297 297 294 293 292 293 292 294 293 289 287 284 281 280 281 281 280 279 278 278 278 278 277 276 276 275 274 273 272 272 271 271 271 271 270 270 271 270 272 273
294 293 292 291 290 289 288 286 288 290 290 290 286 285 283 282 280 279 279 278 278 278 278 277 276 275 274 274 273 273 272 271 271 270 269 270 269 269 269 269 269 270 271
291 289 288 287 285 284 284 283 282 282 284 285 285 285 283 280 279 278 279 278 277 277 276 275 274 274 273 273 272 272 271 270 269 268 268 268 267 267 267 267 268 269 269
286 285 285 284 284 283 283 282 282 282 281 280 280 280 280 279 279 278 278 277 277 276 275 275 274 273 272 272 271 270 269 269 268 267 267 267 266 266 266 266 266 267 268
285 284 284 284 284 284 284 283 283 282 280 279 279 278 278 278 277 277 277 276 276 275 274 274 273 272 271 270 269 268 268 267 267 266 266 266 266 266 265 265 265 266 266
282 282 283 282 282 282 282 281 281 281 280 279 278 276 276 276 275 275 274 274 274 273 272 272 271 270 269 268 268 267 266 266 266 265 265 265 265 265 265 265 265 265 266
279 280 280 279 279 278 278 278 278 277 277 276 275 275 275 274 274 273 273 272 271 271 270 270 269 268 267 266 266 265 265 264 264 264 264 264 265 265 265 264 264 264 265
277 277 277 276 276 276 276 275 275 275 274 274 273 273 273 272 271 271 270 269 269 268 268 267 267 266 265 265 264 264 263 263 263 263 263 264 264 264 264 264 264 264 264
275 275 274 274 274 273 273 273 273 272 272 271 271 270 270 269 269 268 268 267 267 266 265 265 265 264 264 263 263 262 262 262 262 262 262 263 263 263 263 263 264 264 265
273 273 272 272 271 271 271 270 270 270 269 269 268 268 267 267 267 266 265 265 264 264 264 263 263 262 262 262 261 261 261 261 261 262 262 262 262 263 263 263 264 264 265
271 270 270 269 269 268 268 268 268 267 267 267 266 266 266 265 265 264 264 263 263 262 262 261 261 260 260 260 260 260 260 260 260 261 262 262 262 263 263 263 264 264 265
269 268 268 267 267 266 266 265 265 265 265 265 265 264 264 263 263 262 262 261 261 261 260 260 259 259 259 259 259 259 259 260 260 261 261 262 262 263 263 263 264 264 265

GFSGL_925_thetae_063.txt.gz
Theta_e
316 316 316 315 315 315 316 316 316 316 315 316 315 315 315 314 315 318 321 322 320 320 321 320 319 318 317 314 310 308 308 306 306 301 302 301 301 299 298 298 297 296 296
316 316 316 316 315 314 315 315 316 316 316 316 316 317 316 314 315 320 320 321 321 320 320 319 318 316 313 310 309 307 305 304 303 301 300 298 298 298 297 296 294 293 293
316 315 316 316 316 315 315 314 314 316 316 317 317 317 317 315 317 317 319 320 319 320 320 320 317 313 308 308 307 305 303 301 300 298 299 297 295 295 294 293 292 291 289
316 316 315 315 315 315 315 315 315 315 315 316 317 317 317 317 318 319 321 322 319 319 319 319 314 311 309 307 304 303 300 298 297 296 295 294 293 293 291 290 288 287 287
317 317 316 316 315 315 315 315 315 315 316 316 317 318 319 319 320 319 320 320 318 317 316 313 312 310 309 307 304 301 298 297 295 292 291 291 291 291 289 286 286 286 287
318 318 318 317 317 316 316 315 315 316 316 317 318 319 320 320 320 320 321 320 318 314 311 309 307 305 305 304 302 299 298 296 293 293 290 289 289 286 285 286 286 286 287
320 320 319 319 318 318 318 319 319 319 319 319 320 321 321 321 320 319 319 316 314 312 308 305 303 302 301 300 298 297 294 293 293 291 287 285 285 285 285 285 285 285 285
321 321 321 321 320 320 320 321 321 321 321 321 321 321 321 321 320 319 312 311 309 305 304 303 302 299 299 298 296 292 291 290 286 284 283 284 284 284 284 284 283 283 283
322 322 322 322 322 322 322 322 322 322 322 321 320 318 316 315 314 311 307 306 303 300 300 300 299 296 293 293 291 290 286 283 282 282 281 280 280 280 280 281 282 283 283
322 323 322 322 322 321 321 322 320 318 316 313 311 309 310 309 305 303 303 301 297 294 293 292 293 293 291 292 290 286 283 282 281 280 279 278 278 278 277 278 280 281 282
319 319 320 321 322 322 320 317 313 310 307 303 303 300 301 301 300 300 301 299 295 290 290 288 287 288 286 283 282 282 282 280 279 278 278 278 278 277 277 277 277 278 279
320 319 318 317 316 313 312 307 305 302 298 295 294 293 293 295 296 298 299 299 295 294 288 285 282 281 281 281 281 280 279 278 277 277 277 277 277 276 276 275 275 276 277
310 307 306 307 305 305 304 300 296 295 291 289 288 286 286 289 290 293 294 292 291 288 284 282 281 282 280 280 279 278 277 277 276 276 276 276 275 274 274 274 275 275 275
304 301 300 300 298 297 297 296 294 292 291 289 287 285 284 284 284 286 285 284 282 281 280 281 281 280 279 278 277 277 276 275 275 275 274 274 274 273 273 273 274 274 274
297 296 295 294 293 291 291 292 292 292 293 291 289 287 284 281 280 281 281 281 281 280 279 279 279 278 278 278 277 276 275 274 274 273 273 273 273 272 272 272 272 272 273
294 292 291 290 289 288 287 285 287 290 290 290 287 286 282 281 281 281 281 280 279 279 279 278 278 278 278 277 276 275 274 273 273 272 271 271 271 271 271 271 271 271 272
290 289 288 288 287 286 285 284 283 282 283 283 283 283 282 281 280 280 280 279 278 279 278 277 277 276 276 275 275 274 273 272 270 270 270 270 270 270 269 270 270 270 271
285 285 285 284 284 283 283 283 282 282 281 281 280 280 280 279 279 279 278 278 278 277 277 277 276 275 274 273 273 272 271 271 270 269 269 268 268 268 268 269 269 269 270
284 283 283 283 283 283 283 282 282 281 281 280 279 278 278 278 278 277 277 278 277 277 276 275 274 273 273 272 271 270 269 269 268 267 267 267 267 267 267 268 268 268 268
281 282 282 281 281 281 281 281 281 281 280 279 278 277 276 277 276 275 275 275 275 274 274 273 272 271 270 270 269 268 268 268 267 267 267 267 266 266 266 267 267 268 268
279 279 279 278 278 278 278 279 278 278 277 276 275 274 274 275 275 274 273 272 272 271 270 270 269 268 268 267 267 267 266 266 265 265 265 265 265 265 266 266 267 267 268
277 277 276 276 276 276 275 275 275 275 275 274 272 271 272 272 271 270 269 268 268 267 267 266 266 265 265 264 264 264 264 264 264 264 264 264 264 265 266 266 266 267 267
275 275 274 274 273 273 273 273 273 272 272 271 271 270 270 269 268 267 266 265 265 264 264 264 263 263 263 262 261 261 261 262 262 262 263 263 264 264 265 265 266 266 267
273 273 272 271 271 270 270 270 269 269 269 268 268 267 267 266 265 264 264 264 263 263 263 262 262 261 261 260 260 260 260 260 260 261 262 262 262 263 264 264 265 266 266
270 269 269 268 268 268 267 267 266 266 266 265 265 265 264 264 263 263 262 262 262 261 261 261 260 260 259 259 260 259 259 259 259 259 259 261 261 262 263 263 264 265 266
267 266 266 266 265 265 265 264 264 263 263 263 263 262 262 262 262 261 261 260 260 259 259 259 259 259 259 259 258 258 259 259 259 259 259 260 261 262 263 263 264 265 265

GFSGL_925_thetae_066.txt.gz
Theta_e
322 322 321 321 321 321 321 320 320 319 319 319 319 319 319 319 319 320 321 321 322 323 323 321 321 320 320 318 316 315 314 315 315 313 309 305 302 301 301 300 300 300 301
321 321 321 321 321 321 320 320 320 320 320 320 319 319 319 319 319 320 320 320 321 320 320 319 320 320 317 317 316 314 312 311 313 313 306 301 301 302 302 301 300 299 297
321 321 321 321 321 320 320 320 320 320 320 320 320 320 319 319 319 319 320 320 317 319 317 317 318 319 318 314 313 311 309 309 307 305 306 301 301 299 298 297 297 297 295
321 321 321 321 321 321 321 320 320 320 320 319 320 320 320 320 320 320 320 319 317 316 318 318 320 318 316 314 311 308 305 305 304 302 300 298 297 296 295 295 295 294 292
322 321 321 321 321 321 321 320 320 320 319 319 320 320 320 320 321 321 320 320 319 317 317 319 318 318 317 313 311 305 304 301 300 298 296 293 294 294 294 294 292 290 290
323 323 322 321 321 320 320 320 320 320 320 319 319 320 320 320 319 319 319 321 319 317 317 316 316 314 311 310 308 307 305 302 296 294 293 293 293 294 293 291 290 290 290
324 324 323 323 322 321 321 320 320 320 320 319 319 320 320 320 320 320 319 319 319 318 316 313 311 309 308 305 303 302 301 299 299 296 294 293 293 290 290 289 288 289 289
325 324 323 323 323 323 322 321 321 321 321 321 321 321 321 322 321 320 320 320 316 315 313 310 308 306 304 302 299 297 295 293 293 292 289 287 287 287 287 287 287 286 286
325 325 324 324 324 323 323 323 323 323 324 323 322 322 322 321 321 320 318 312 310 307 305 303 302 299 295 296 294 290 287 287 287 287 286 284 284 283 282 283 284 285 286
324 325 325 325 325 324 325 325 324 324 322 320 320 318 317 317 316 314 311 307 301 297 295 294 295 296 294 294 293 289 285 283 283 281 281 280 280 281 279 279 282 283 284
323 324 325 325 325 325 324 318 318 318 315 310 308 305 306 305 303 302 303 301 296 291 289 289 290 290 290 290 288 286 285 282 281 281 281 281 281 281 280 280 280 280 281
321 322 321 321 320 317 316 313 310 308 303 299 296 294 294 294 295 298 299 299 292 292 287 287 286 286 284 283 283 282 281 280 281 281 280 280 280 280 280 279 278 278 279
309 306 307 308 307 306 306 302 299 298 294 291 290 288 287 288 288 289 289 290 290 288 285 284 283 282 281 280 280 280 279 280 280 280 280 280 279 278 277 278 277 277 277
303 301 299 298 297 297 297 296 295 293 291 289 288 286 284 284 285 287 287 286 285 283 282 282 281 281 281 279 279 279 279 278 278 279 278 278 277 277 277 277 276 276 276
296 295 294 294 292 290 289 290 290 291 291 289 287 285 284 282 282 283 284 283 282 282 281 281 281 281 281 281 280 279 278 277 278 277 277 277 277 277 277 275 275 275 275
292 292 290 290 288 287 286 284 285 288 290 288 286 286 283 282 282 283 283 282 281 281 282 282 283 282 282 281 280 279 278 276 276 275 275 275 275 275 275 274 274 275 275
289 288 288 287 288 286 285 284 283 282 282 282 282 282 282 282 281 281 280 280 280 281 282 282 281 281 280 279 278 277 277 275 273 274 274 274 274 273 273 273 273 274 274
286 285 285 284 284 283 283 283 282 282 282 281 281 281 281 281 280 279 279 280 280 280 280 280 279 278 277 277 276 275 275 274 274 273 272 272 272 272 272 272 273 273 273
283 283 284 283 283 283 282 282 281 281 280 280 279 279 279 278 278 278 279 280 280 279 278 277 277 276 275 274 274 273 272 272 271 270 271 271 271 271 271 271 271 271 271
281 282 283 283 283 282 283 283 282 281 280 280 279 279 279 279 279 278 277 277 277 276 276 275 274 273 272 272 272 271 271 271 270 270 270 269 269 269 269 270 270 270 271
281 280 281 281 281 280 280 280 280 279 278 277 275 275 276 277 276 275 274 274 273 273 272 272 271 271 270 270 269 269 269 269 268 268 268 268 268 268 268 268 269 269 270
280 279 279 279 278 278 278 278 277 277 276 275 274 273 274 274 273 272 271 271 270 270 269 269 269 268 268 267 267 267 266 266 266 266 266 266 266 267 267 268 268 268 269
278 277 277 277 276 276 276 275 275 275 274 274 273 272 272 271 270 270 269 268 268 267 266 266 266 266 265 265 264 265 265 265 265 264 264 265 265 266 267 267 267 268 268
275 275 274 273 274 274 273 273 271 271 272 272 271 270 269 269 268 267 267 266 266 266 265 264 264 263 262 262 263 263 263 263 262 262 263 264 264 265 266 266 266 267 267
272 271 271 271 271 271 270 270 270 269 269 269 269 268 268 267 267 266 266 265 264 264 263 263 263 262 262 260 260 260 260 259 259 260 260 262 263 264 264 265 266 266 267
269 269 269 269 268 268 268 268 268 267 267 267 267 266 266 266 265 264 264 263 262 262 262 262 262 261 260 260 261 259 258 258 258 258 258 260 262 264 265 265 266 266 267

GFSGL_925_thetae_069.txt.gz
Theta_e
324 324 323 324 323 323 323 323 322 322 322 321 321 320 320 320 320 321 321 321 322 322 323 323 323 324 324 324 323 322 321 319 318 318 316 315 312 310 307 305 305 304 303
325 325 325 324 324 324 323 324 322 323 323 322 322 322 322 322 321 321 322 322 322 322 323 323 323 323 323 322 321 321 319 318 317 316 315 311 309 307 304 302 303 304 304
324 325 325 325 326 326 325 325 324 324 323 323 322 322 322 322 322 322 323 322 322 322 322 323 323 322 320 319 319 317 317 316 315 315 312 306 305 304 303 304 303 302 301
324 324 325 325 325 326 325 325 325 324 324 323 322 322 322 322 322 322 322 322 322 322 322 322 322 320 318 318 317 316 315 313 312 310 307 304 303 301 301 300 298 298 299
325 324 324 325 325 325 325 325 324 324 324 324 323 323 323 323 323 322 322 322 322 322 322 321 319 318 317 317 317 315 312 310 307 305 303 299 298 297 297 296 296 296 296
327 326 325 325 325 325 325 325 324 324 324 324 323 324 323 323 323 322 322 323 323 322 322 321 319 319 318 317 317 317 314 309 305 303 301 300 296 295 295 296 294 292 294
328 327 326 326 325 325 325 325 325 325 324 324 324 323 323 323 323 322 321 321 322 322 322 321 319 318 317 316 314 310 306 305 304 301 297 295 294 295 294 293 291 291 291
328 328 327 327 326 326 325 325 325 325 325 325 324 324 324 323 323 322 321 320 320 320 320 320 318 317 313 310 307 302 298 296 294 294 294 291 290 290 290 290 289 289 289
328 328 327 327 327 326 326 326 325 325 325 325 324 324 323 323 322 321 321 321 319 318 316 313 311 308 305 303 301 293 292 291 292 292 293 291 290 288 288 287 287 286 288
325 328 328 327 327 327 327 327 326 325 325 325 323 322 323 322 322 322 321 319 311 305 302 300 299 300 295 294 296 293 288 287 288 288 285 283 282 281 281 281 284 285 286
323 323 326 326 327 327 327 327 326 324 318 318 316 311 311 311 310 309 309 309 302 294 291 289 289 290 290 291 292 290 287 285 283 283 282 282 282 283 283 282 282 282 283
318 318 316 319 318 322 321 317 316 315 307 300 297 294 294 295 297 297 299 301 295 292 287 286 285 288 289 289 288 286 284 283 282 282 282 282 282 282 282 282 281 280 280
304 303 305 308 308 309 309 305 302 300 297 293 291 288 286 287 289 292 293 292 291 287 285 284 283 284 284 283 282 281 281 282 282 283 283 283 283 282 280 280 280 280 280
295 294 293 293 293 295 295 295 296 294 292 290 288 286 285 284 284 285 286 286 285 283 282 282 282 281 281 281 281 281 280 280 281 281 281 281 280 280 280 280 279 279 279
293 291 290 289 288 286 286 288 289 290 291 289 286 285 284 283 283 284 284 284 283 282 282 282 282 282 282 282 281 281 280 280 280 280 279 279 279 279 279 279 278 278 278
291 290 289 287 286 286 285 284 284 285 286 286 285 285 283 283 283 283 283 283 283 283 284 285 285 285 284 283 282 281 280 279 278 277 277 277 277 277 277 277 276 276 277
288 287 286 285 285 284 283 283 283 283 283 283 283 283 282 282 281 281 282 282 283 283 284 283 283 282 281 281 280 279 278 277 275 276 276 276 275 275 275 275 275 276 276
285 285 284 284 284 283 282 282 282 282 282 282 281 281 280 280 281 281 282 281 281 281 281 281 280 279 278 278 277 277 276 275 275 274 274 273 273 273 274 274 274 274 274
284 284 284 284 283 283 282 282 281 281 281 280 280 279 279 279 279 280 280 280 279 279 279 278 277 277 276 276 275 274 274 274 273 273 273 273 272 272 272 272 272 272 272
283 283 283 283 283 283 283 282 281 280 279 279 280 280 279 278 277 276 276 277 276 276 276 275 274 274 273 273 273 273 272 272 272 271 271 270 270 270 270 270 271 271 271
282 282 281 281 282 282 281 280 279 279 277 277 276 276 277 277 276 275 274 274 274 273 273 273 273 272 271 271 271 270 270 270 269 269 269 269 269 269 269 269 270 270 270
281 280 280 279 279 279 279 279 278 277 277 276 276 275 275 275 274 273 272 272 271 271 270 270 270 270 269 268 268 268 268 268 268 268 267 267 267 268 268 269 269 269 269
278 278 278 278 277 277 277 277 276 276 275 275 274 273 273 272 272 271 270 270 269 269 268 267 267 267 267 266 266 266 266 266 266 266 265 265 266 267 267 267 267 268 269
276 276 276 275 275 275 275 274 273 273 273 273 272 272 271 270 270 269 268 268 267 267 267 266 266 265 264 264 264 264 264 264 263 263 263 264 265 265 266 266 267 267 268
273 273 273 273 273 273 273 272 272 272 271 271 271 270 270 270 269 268 267 267 266 265 265 265 265 264 264 262 262 262 262 261 259 259 260 262 263 264 264 265 266 267 268
271 271 271 271 271 271 271 271 270 270 270 269 269 269 268 268 267 267 266 266 264 263 264 264 264 263 262 262 263 261 260 258 258 258 258 260 261 263 265 266 266 266 267

GFSGL_925_thetae_072.txt.gz
Theta_e
324 322 322 323 323 324 323 322 322 324 323 322 320 320 320 319 319 320 320 321 321 321 321 321 322 322 323 323 323 323 323 321 321 321 320 320 319 318 315 315 313 310 309
326 324 323 323 323 324 324 323 323 323 323 322 321 320 320 320 320 320 320 320 320 320 320 321 322 322 323 324 324 324 323 322 321 320 319 318 318 318 315 311 309 307 306
326 326 325 324 324 324 324 324 323 323 323 323 322 321 321 321 321 320 320 320 320 320 321 321 321 322 323 323 324 323 321 321 319 319 319 316 316 316 312 310 307 306 305
326 327 326 327 325 325 325 324 324 324 324 323 323 322 322 322 322 322 321 321 321 321 321 322 322 322 322 323 323 321 320 318 318 317 317 310 310 308 308 305 303 304 304
326 326 326 327 327 327 326 326 326 325 325 324 324 324 323 323 323 323 323 322 322 322 322 322 322 322 322 322 322 320 318 317 316 315 314 306 305 303 304 304 303 300 301
327 326 325 326 327 327 327 327 327 326 326 325 325 324 324 323 323 322 322 322 322 322 322 322 322 322 322 322 322 321 319 317 315 314 312 307 306 302 300 299 297 296 292
329 328 327 326 326 327 327 327 327 326 326 326 325 325 325 324 324 323 323 322 322 323 323 323 322 322 322 321 320 319 318 314 314 311 307 303 298 296 296 295 293 292 291
330 329 328 328 327 326 326 326 326 326 326 325 325 325 325 324 324 324 324 323 322 321 321 322 322 322 321 320 318 312 303 298 299 304 302 297 296 295 296 293 292 290 289
328 330 330 329 328 327 327 326 326 326 326 326 325 325 325 324 324 324 324 323 322 321 321 321 320 319 319 317 311 298 292 291 291 293 293 292 292 291 290 289 289 288 287
318 321 321 329 329 328 328 327 327 326 326 326 326 324 322 323 323 324 323 321 317 314 310 308 306 305 302 301 301 293 288 286 288 288 288 288 287 285 285 285 285 285 286
310 310 309 309 315 322 328 328 327 327 325 319 316 312 313 313 313 316 317 318 313 302 296 293 292 294 293 294 294 290 287 285 285 285 284 283 285 286 286 285 283 283 283
300 299 300 301 300 302 311 314 319 317 313 309 306 301 300 302 301 303 305 306 300 295 288 287 287 288 290 290 288 286 285 285 284 283 283 283 282 282 282 282 282 281 281
298 294 293 293 293 293 293 297 300 301 299 295 293 289 288 288 289 292 294 293 292 289 286 284 284 284 283 283 283 283 283 283 283 283 283 283 282 281 281 281 281 280 280
294 294 292 290 287 286 288 288 290 292 292 290 288 286 285 285 286 285 284 284 283 282 282 283 283 283 282 282 282 282 282 282 282 281 281 281 280 280 280 280 280 279 279
291 289 288 287 286 285 284 284 285 286 289 286 285 285 284 284 284 284 283 282 282 282 282 282 282 282 282 281 281 280 280 280 279 279 279 278 278 278 278 278 278 278 277
289 287 287 286 285 284 284 283 284 284 284 284 284 284 284 284 284 284 284 284 284 285 285 285 284 284 283 282 281 280 279 277 277 277 277 277 276 276 276 275 276 276 277
286 286 285 284 284 284 283 283 282 282 282 282 282 282 282 283 283 283 284 284 284 283 282 281 281 280 279 279 278 278 277 276 276 275 275 274 274 274 274 274 274 275 275
284 284 284 283 283 283 282 282 282 281 280 280 280 280 281 281 282 282 281 281 280 279 279 279 278 278 277 276 276 275 275 274 273 273 273 273 273 273 272 272 272 272 272
284 284 284 283 283 282 282 281 281 281 280 280 280 279 279 279 279 278 278 278 278 277 276 275 275 275 275 274 274 273 273 273 273 272 272 271 271 270 271 271 271 271 271
282 283 283 282 282 281 280 279 279 278 278 277 278 278 277 276 275 275 275 275 274 275 275 274 273 273 272 272 272 271 271 270 270 270 269 269 269 269 269 269 269 270 270
281 280 281 280 280 280 279 278 277 276 276 276 276 275 275 274 274 273 273 272 272 272 271 272 271 271 270 269 269 269 269 269 268 268 268 268 267 268 268 268 269 269 269
279 279 279 278 278 278 278 278 277 277 276 275 274 274 273 273 272 272 271 270 270 269 269 269 269 268 268 267 267 267 267 267 267 266 266 266 266 266 267 267 267 267 268
277 277 277 277 276 275 275 275 276 275 274 274 273 272 271 270 270 269 269 269 268 268 267 267 267 266 266 265 265 265 265 265 264 264 264 264 264 265 266 266 267 267 267
275 275 275 274 274 274 274 274 273 273 273 272 272 271 270 270 269 268 268 267 267 266 266 266 265 265 264 263 263 263 263 263 263 262 262 262 263 263 264 265 265 266 267
273 273 273 273 273 273 272 272 272 271 271 270 270 270 269 269 268 268 267 266 265 265 265 265 264 264 263 263 263 262 262 262 261 261 260 260 261 262 263 264 265 266 266
271 271 271 271 271 271 270 270 270 269 269 269 268 268 268 267 266 266 265 264 263 264 264 264 263 263 262 263 262 262 261 260 259 259 259 259 260 261 262 263 264 264 265

GFSGL_925_thetae_075.txt.gz
Theta_e
323 324 324 323 323 322 322 321 320 318 318 319 319 321 321 321 320 320 319 319 319 319 318 319 318 318 318 319 319 319 320 321 320 320 320 320 320 320 320 319 319 317 317
323 322 323 323 324 323 322 321 322 322 320 320 320 320 321 321 320 319 318 318 318 318 319 319 319 318 319 320 320 321 321 321 320 320 320 320 320 320 320 319 319 317 316
323 322 322 322 322 323 323 322 321 321 323 322 321 320 320 320 320 319 318 318 319 319 319 319 319 320 321 321 321 321 322 322 321 321 321 320 319 319 318 318 319 317 314
324 323 322 321 321 322 322 323 322 322 321 322 323 321 321 320 319 319 318 318 319 319 319 319 319 319 319 320 320 321 322 322 322 321 320 319 317 316 316 314 310 311 308
325 325 324 323 323 322 322 323 323 323 322 322 322 322 321 320 320 319 319 319 319 319 319 319 319 319 319 320 320 320 321 322 321 320 318 318 312 308 310 311 310 309 303
325 325 325 325 324 324 323 323 323 323 323 323 323 322 322 322 321 320 320 320 319 319 319 319 319 319 320 320 321 321 321 321 320 319 318 317 316 311 309 308 303 298 296
326 325 325 325 326 326 325 324 324 324 324 323 323 323 322 322 322 322 322 321 321 321 320 320 320 321 321 321 322 321 321 321 320 318 316 316 313 309 306 299 297 295 292
319 322 325 324 324 325 326 326 326 325 325 325 324 324 324 323 323 323 323 323 321 321 321 321 321 321 321 321 321 319 316 314 311 309 308 305 302 300 300 299 296 294 291
311 310 310 312 318 325 325 325 326 325 325 325 325 325 325 324 324 324 324 324 322 321 320 320 320 320 321 321 321 312 300 294 294 297 297 295 295 294 294 294 290 290 287
305 304 303 305 304 310 315 319 324 325 325 325 324 324 324 324 324 324 324 324 321 320 318 315 314 316 316 317 317 301 290 287 289 289 290 290 289 288 289 289 288 287 287
299 299 300 303 302 298 302 310 310 316 323 323 320 314 312 311 312 316 319 321 319 311 304 300 298 299 299 299 299 293 289 287 287 287 285 285 284 284 283 283 284 284 284
294 293 293 298 299 299 300 297 301 301 299 296 295 294 295 293 295 298 303 306 301 295 288 287 287 289 289 289 288 285 285 286 284 284 283 283 282 282 282 282 281 281 281
292 290 288 288 288 292 296 295 293 292 292 290 289 288 287 286 287 287 288 288 289 286 285 284 284 283 283 284 284 284 284 284 283 283 282 281 281 281 281 281 281 281 280
290 288 286 286 285 286 286 286 288 289 288 287 286 285 285 285 284 283 283 282 282 282 283 282 283 283 283 283 283 283 282 282 281 281 280 280 280 279 279 279 279 278 278
288 287 285 285 284 284 284 284 284 285 286 285 285 285 284 284 283 284 284 283 283 283 283 282 282 281 281 280 280 279 279 279 278 278 278 278 277 277 277 276 276 276 276
286 285 284 284 284 283 283 283 283 283 284 284 284 284 284 284 285 285 285 284 284 284 283 282 281 281 280 279 278 277 277 277 277 276 276 275 275 274 274 275 274 275 275
284 284 283 283 283 283 282 282 281 281 281 281 283 283 283 283 283 284 283 282 282 282 280 279 279 278 278 277 276 276 275 274 274 273 273 273 273 273 272 272 272 272 272
283 283 283 282 282 281 281 280 280 280 279 278 279 280 280 280 280 280 280 280 278 277 277 276 276 276 275 275 274 274 273 273 273 272 271 271 271 270 271 270 270 270 270
282 282 281 280 280 279 279 278 278 279 278 278 277 277 277 276 276 276 276 275 275 275 274 274 273 273 273 272 272 271 271 270 270 270 270 269 269 269 269 269 269 269 269
280 280 280 279 279 278 277 277 276 276 276 275 275 275 274 274 273 273 272 272 272 273 272 271 271 271 270 270 270 270 269 269 269 268 268 268 268 268 268 268 268 269 268
278 278 279 279 278 278 277 276 276 275 274 274 274 273 273 272 271 270 270 270 270 270 269 269 269 269 268 268 268 268 268 267 267 267 267 266 266 266 267 267 267 267 267
277 277 276 276 276 276 276 275 274 274 273 272 271 271 271 270 269 269 268 268 268 268 268 268 267 267 266 266 266 266 266 266 266 265 265 265 265 265 265 266 266 266 266
275 275 275 275 274 274 273 273 273 272 272 271 270 270 269 268 268 267 267 267 266 266 266 266 266 265 265 265 265 265 264 264 263 263 263 263 263 264 264 264 265 265 266
273 273 273 273 273 272 272 272 271 271 270 270 270 269 268 268 267 266 266 266 265 265 265 264 264 264 264 263 263 263 263 263 262 262 262 261 262 262 263 263 264 265 265
271 271 271 271 271 270 270 270 269 269 269 268 268 268 267 266 266 265 265 265 264 264 264 264 263 263 263 262 262 262 262 262 261 261 261 261 261 261 261 262 263 264 264
269 269 269 269 269 268 268 268 267 267 267 267 266 266 265 265 265 264 264 263 263 263 263 263 262 262 262 262 261 261 261 261 260 259 259 259 260 260 261 262 262 263 264

GFSGL_925_thetae_078.txt.gz
Theta_e
323 323 323 323 322 321 320 319 316 316 317 319 320 321 321 322 322 322 321 321 321 321 320 320 318 317 318 319 319 318 318 318 318 318 318 318 319 319 319 319 319 319 319
323 323 323 323 323 322 322 321 319 316 316 317 318 320 321 321 321 321 322 321 321 321 321 320 320 320 319 319 318 318 318 318 318 318 318 318 318 319 319 320 320 319 319
322 322 323 323 323 322 322 322 321 320 318 316 317 318 319 320 321 320 320 319 319 319 319 318 318 318 318 318 318 318 318 318 318 318 319 319 319 319 319 319 319 319 319
322 322 322 322 322 322 322 322 321 321 321 320 318 318 318 318 319 319 319 319 318 318 317 317 317 317 318 318 318 318 318 319 319 319 319 319 320 320 319 318 316 316 316
323 322 321 321 321 322 322 322 322 321 320 321 321 321 320 319 319 319 319 319 318 318 317 317 317 318 318 318 318 318 318 318 318 319 320 320 320 315 316 317 314 315 312
323 323 322 322 321 320 321 321 321 322 322 321 320 320 321 321 320 320 319 319 318 318 317 317 317 318 318 318 318 318 318 318 318 319 319 320 320 320 316 314 315 305 302
323 323 323 323 322 322 321 321 320 321 322 322 321 321 321 321 321 321 320 320 319 318 318 318 317 317 317 317 318 318 318 318 318 319 319 320 320 320 318 310 308 302 298
309 310 311 312 314 319 323 322 322 321 322 322 322 321 321 321 321 321 321 321 319 319 319 319 318 318 318 318 318 317 318 317 315 315 314 312 311 308 308 306 301 296 292
303 303 303 304 307 310 312 315 320 323 323 322 322 322 321 322 322 322 322 321 319 319 320 319 319 319 319 319 318 317 311 304 299 299 298 296 295 295 296 298 293 292 288
297 297 296 297 299 300 302 306 310 313 317 323 320 316 312 314 312 318 320 318 317 318 317 318 317 316 317 317 318 313 298 290 289 288 290 291 292 291 292 292 291 288 287
292 291 290 291 292 293 295 299 302 303 305 304 300 296 297 296 296 299 306 309 308 312 305 299 298 299 302 302 301 296 288 286 285 285 285 284 284 285 285 285 286 286 284
289 288 287 287 288 289 290 291 294 297 295 292 291 288 288 287 289 290 294 296 294 291 287 286 286 285 286 288 287 285 285 285 285 284 283 282 282 282 282 282 282 282 282
288 286 285 285 285 286 286 287 288 289 289 289 288 287 285 285 286 285 284 286 287 285 284 283 283 284 285 284 284 284 285 284 283 281 281 281 281 281 281 280 280 280 280
287 285 284 284 284 284 285 285 285 286 286 286 286 285 284 284 284 284 284 283 284 284 284 284 283 283 283 283 283 282 282 281 280 279 279 279 279 278 278 278 277 277 277
286 285 284 284 283 283 283 284 284 284 285 285 284 285 284 284 284 283 283 283 283 282 282 282 281 280 279 279 279 279 279 279 278 278 277 277 276 276 275 275 275 275 276
285 284 284 283 283 282 282 281 281 282 283 283 284 284 284 284 284 283 283 283 282 281 280 280 279 278 278 277 277 276 276 276 275 275 274 274 274 274 274 273 272 273 273
283 282 282 282 281 281 281 281 280 279 278 279 280 281 281 281 281 281 280 280 280 280 277 277 276 276 276 275 275 274 274 274 274 273 273 272 271 271 271 271 270 270 271
281 280 280 280 280 279 279 279 278 278 277 276 276 277 277 277 278 278 278 280 277 276 275 275 274 274 274 274 273 273 272 272 271 270 270 270 270 270 269 269 269 269 269
280 279 279 279 278 278 278 277 276 276 275 275 275 276 275 274 274 274 275 274 273 273 272 272 272 271 271 271 271 270 270 269 269 269 268 268 268 268 268 268 268 268 268
279 279 278 278 277 277 276 276 275 275 274 273 273 273 273 274 272 271 272 271 271 270 270 270 270 269 269 269 269 269 268 268 267 267 267 267 267 267 267 267 267 267 267
277 277 277 277 276 276 275 275 274 273 272 271 271 271 271 270 269 268 268 269 269 269 268 268 268 267 267 267 267 267 267 266 266 265 265 265 265 266 266 266 266 266 266
276 275 275 275 275 274 274 273 272 272 271 270 270 269 269 269 268 267 266 266 267 267 267 266 266 266 265 265 265 266 265 265 264 264 264 264 264 264 265 265 265 265 265
274 274 273 273 273 273 272 271 271 270 270 269 268 268 267 267 267 266 266 265 265 265 265 265 264 264 264 264 264 264 264 263 263 262 263 263 263 263 263 263 264 264 265
273 272 271 271 271 271 270 270 269 269 269 268 268 267 267 266 265 265 265 265 265 264 264 264 263 263 263 263 262 262 262 262 262 262 262 262 261 261 262 262 263 264 264
271 270 270 270 269 269 269 268 268 268 267 267 267 266 266 265 265 265 264 264 264 264 263 263 263 263 262 262 262 262 261 261 260 260 260 260 260 260 261 262 262 263 263
268 268 268 268 268 267 267 267 266 266 265 265 265 265 265 264 263 263 263 262 262 262 262 261 261 261 261 261 260 260 260 260 260 259 259 260 260 260 261 261 262 262 263

GFSGL_925_thetae_081.txt.gz
Theta_e
323 323 323 322 322 322 321 320 319 319 319 319 320 320 321 322 321 321 321 321 320 320 320 320 320 320 320 320 319 318 317 317 318 318 318 317 317 317 317 317 317 317 318
323 323 323 323 322 322 321 321 320 319 318 318 319 320 321 321 321 321 320 320 320 320 320 320 319 319 320 320 319 318 317 318 318 318 318 317 317 317 317 317 318 318 318
322 322 323 322 322 322 322 321 320 319 318 317 318 319 319 320 321 321 321 321 321 321 320 320 320 319 319 319 318 318 317 317 318 317 318 318 317 317 317 317 318 318 318
322 322 322 322 322 321 322 322 322 321 320 318 316 316 317 318 319 320 321 321 321 320 320 320 320 320 319 319 318 318 318 318 317 317 317 317 317 317 318 318 317 317 317
322 321 321 322 322 322 322 322 322 321 321 321 320 318 317 317 317 318 319 319 319 319 319 318 318 318 318 318 317 317 316 316 316 317 317 317 317 317 316 317 317 317 317
322 322 322 321 321 321 322 322 322 322 321 321 321 320 320 318 318 318 318 318 318 318 317 317 317 317 317 317 317 317 316 316 315 316 316 316 316 317 317 318 317 317 313
312 313 315 320 321 321 321 320 320 321 321 321 320 320 320 320 320 320 320 319 318 318 318 318 317 317 317 317 317 317 317 317 317 317 316 316 316 317 317 318 317 317 317
303 303 303 307 309 312 317 321 320 320 320 320 321 321 320 320 320 320 320 320 319 318 318 318 318 318 317 317 317 315 315 316 315 316 311 311 312 313 313 314 313 306 295
297 296 296 299 300 301 303 307 310 314 318 320 320 321 320 317 316 319 320 319 317 318 319 319 317 316 317 317 317 315 314 311 304 302 300 297 297 294 298 300 300 295 291
292 292 292 293 293 294 295 296 300 303 304 308 306 302 300 301 300 303 306 310 311 315 316 310 307 309 310 312 312 312 305 290 290 288 288 290 290 291 292 291 291 289 287
288 288 288 289 290 291 292 293 294 294 295 294 293 292 292 292 292 296 301 305 305 300 294 290 289 292 297 301 303 300 290 286 284 284 283 282 282 283 284 286 286 286 282
288 287 286 286 286 287 289 289 290 291 290 289 288 286 285 286 286 287 291 294 294 293 287 286 286 288 287 286 287 287 287 287 285 283 282 281 281 280 280 281 281 281 280
286 285 285 285 285 285 286 286 286 287 287 286 286 285 284 284 284 283 283 285 285 284 283 283 283 284 285 286 285 285 285 284 282 280 280 279 279 279 279 279 279 279 278
286 285 284 284 283 284 285 285 285 285 285 285 285 284 284 284 284 283 283 283 283 283 282 281 280 280 280 280 281 280 279 279 279 278 277 277 277 277 276 276 276 277 276
285 284 283 283 283 282 282 283 283 283 284 284 284 284 284 284 284 283 283 282 281 281 281 281 279 278 277 277 277 277 277 277 276 276 276 275 275 274 274 274 274 274 274
284 283 283 282 282 281 280 279 280 280 281 281 282 282 281 281 281 281 280 280 280 281 279 277 277 276 276 275 275 275 275 274 274 274 273 273 273 273 272 272 271 272 272
281 281 280 280 280 280 279 278 277 277 277 278 279 279 279 279 279 278 278 278 278 279 275 275 275 275 274 274 273 273 272 272 272 272 271 271 271 271 270 270 270 270 271
279 279 279 279 278 278 277 277 276 275 274 274 274 276 276 276 276 277 278 280 276 274 273 272 272 272 272 272 272 271 271 270 270 269 269 269 269 269 269 269 268 269 269
278 278 278 278 277 277 276 276 275 274 273 273 274 274 273 273 273 274 276 273 271 271 271 271 271 271 270 270 270 269 269 268 268 268 267 267 268 268 267 267 267 267 267
278 277 277 277 276 275 275 274 273 272 271 271 270 270 272 274 271 270 270 270 270 269 269 269 269 269 269 269 268 268 267 267 266 266 266 266 266 266 266 266 266 266 266
277 277 276 276 275 274 273 273 272 271 270 269 269 269 269 268 267 268 268 268 267 267 267 267 267 267 267 267 267 266 266 265 265 264 265 265 265 265 265 265 265 265 266
275 275 274 274 273 273 272 272 271 270 269 268 268 268 268 267 266 266 266 266 266 265 265 265 265 265 265 265 265 265 264 264 263 263 263 263 263 264 264 264 264 265 265
274 273 273 272 272 271 271 270 269 269 268 268 267 267 266 266 266 265 265 265 265 264 264 264 263 263 263 263 263 263 262 262 262 262 262 262 262 262 263 263 264 264 264
272 272 271 271 270 270 269 269 269 268 268 267 267 266 265 265 265 264 264 264 264 264 263 263 263 263 262 262 262 262 261 261 260 260 260 260 260 261 262 262 263 263 263
270 270 270 269 269 269 268 268 267 267 267 266 266 265 265 264 264 263 263 263 263 262 262 262 262 262 261 261 261 261 261 260 260 260 260 260 260 260 261 261 262 263 263
268 268 268 267 267 267 267 266 266 265 265 265 265 264 264 263 263 262 262 262 261 261 261 261 261 260 260 260 260 260 260 260 260 259 259 259 260 260 260 261 261 262 262

GFSGL_925_thetae_084.txt.gz
Theta_e
322 322 321 320 321 320 320 320 320 320 321 321 321 321 321 321 321 321 321 320 321 321 320 320 319 318 318 319 319 318 319 319 317 317 317 317 316 317 317 318 317 317 317
322 323 322 322 321 321 320 321 320 320 320 320 320 320 321 321 321 321 321 321 321 320 320 319 319 318 318 319 319 319 318 318 318 317 317 316 317 317 317 317 317 317 317
322 322 321 322 322 322 321 321 320 319 319 319 319 319 320 320 321 321 321 321 321 321 321 320 320 319 319 318 319 318 318 318 318 317 317 317 317 317 317 317 317 317 317
322 322 322 321 321 321 321 321 321 320 319 317 317 318 318 319 319 320 320 320 320 320 320 320 320 319 319 319 318 318 318 317 317 317 317 317 317 317 317 316 316 316 316
321 322 322 322 322 321 321 321 321 321 320 320 318 317 317 317 318 318 319 319 320 320 320 320 320 320 320 320 319 318 317 317 317 317 317 317 317 316 316 316 316 316 316
321 321 320 321 321 322 322 321 321 321 321 320 320 320 319 318 318 317 317 317 318 318 318 318 318 318 318 318 318 318 318 317 316 316 316 316 316 316 316 316 316 315 315
310 309 312 317 320 320 320 321 321 321 322 321 321 321 321 320 319 319 319 319 317 317 318 318 317 317 317 317 317 317 317 317 317 316 316 315 315 316 315 315 315 315 315
299 299 302 304 306 309 313 314 317 318 319 320 321 321 320 317 318 319 320 319 317 318 317 317 317 317 317 317 316 315 315 315 311 311 309 307 306 304 309 306 306 306 298
294 294 295 296 298 300 301 302 304 306 309 310 308 311 311 305 303 310 313 314 315 316 316 314 313 313 313 313 314 312 312 300 292 296 297 292 291 293 296 297 296 297 292
290 290 290 292 292 293 293 295 296 297 296 295 294 294 293 294 298 301 304 306 307 306 303 299 296 296 297 300 303 304 300 291 291 291 291 290 290 291 291 292 292 289 287
287 287 288 289 290 290 291 292 292 291 291 290 289 288 288 288 290 294 297 298 295 292 289 287 286 287 288 293 294 296 291 289 290 289 284 283 283 283 283 284 284 284 281
286 285 286 286 286 288 289 289 289 289 288 287 286 285 285 285 285 286 288 289 289 286 283 283 282 282 283 284 284 284 284 284 282 281 279 279 279 279 279 279 280 279 279
285 284 284 285 285 285 285 286 286 286 286 286 285 284 284 284 283 283 282 284 283 282 281 280 281 282 283 283 284 284 283 280 279 278 277 277 277 278 279 278 278 277 277
284 283 283 282 283 283 283 284 284 285 285 285 285 284 284 283 283 283 283 282 282 282 282 281 280 280 280 280 280 280 279 279 278 277 276 276 276 276 276 276 277 277 275
284 283 282 281 281 281 281 282 282 282 283 282 282 282 282 282 282 282 282 282 281 281 281 281 279 278 277 276 276 276 276 276 275 275 274 274 274 273 273 273 274 273 273
282 282 281 280 280 279 279 279 279 280 280 280 280 280 281 280 281 280 279 281 281 282 280 276 275 275 274 274 274 273 273 273 273 273 272 272 272 272 271 271 272 272 272
279 279 279 279 279 278 277 276 275 275 276 277 278 278 279 279 279 278 277 278 278 279 275 273 273 273 273 272 272 271 271 270 271 270 270 270 270 270 270 270 270 270 270
279 279 278 278 277 277 276 275 274 273 272 272 273 274 275 275 275 275 275 279 275 273 272 271 271 271 271 270 270 269 269 269 268 268 268 268 268 268 268 268 268 268 269
278 277 277 277 276 276 276 275 274 273 272 272 273 273 272 271 272 274 275 273 271 270 270 270 270 269 269 269 268 268 268 267 267 267 267 267 267 267 267 267 267 267 267
277 276 276 276 275 275 274 273 272 271 270 269 269 269 271 273 271 269 269 269 269 268 268 268 268 268 268 267 267 267 267 266 266 265 265 265 266 266 266 266 266 266 266
276 275 275 274 274 273 272 271 270 269 268 267 267 267 268 268 267 267 266 266 266 266 266 266 266 266 266 266 266 265 265 264 264 264 264 264 264 265 265 265 265 265 265
275 274 274 273 272 272 271 270 269 268 268 267 267 266 267 266 266 265 265 265 265 265 264 264 264 264 264 264 264 263 263 263 263 262 262 262 263 263 264 264 264 264 264
273 273 272 271 271 270 270 269 268 268 267 267 266 266 266 265 265 265 264 264 264 264 263 263 263 263 263 262 262 262 262 262 261 261 261 261 261 262 262 263 263 264 264
271 271 271 270 270 269 269 268 268 267 267 266 266 265 265 264 264 263 263 263 263 263 263 262 262 262 262 261 261 261 261 260 260 260 260 260 260 260 261 261 262 262 263
270 270 269 269 269 268 268 267 267 266 266 265 265 264 264 263 263 263 262 262 262 262 261 261 261 261 261 261 260 260 260 260 260 259 259 259 259 260 260 261 261 262 262
268 267 267 267 267 266 266 266 265 265 264 264 264 263 263 262 262 261 261 261 260 260 260 260 260 260 260 260 260 260 260 259 259 259 259 259 259 259 259 260 260 261 262

GFSGL_925_thetae_087.txt.gz
Theta_e
321 321 320 319 319 319 320 320 322 322 322 321 321 321 320 319 316 315 314 317 320 319 318 319 320 320 320 320 320 320 319 319 320 318 319 318 318 317 318 317 316 316 316
320 322 321 320 321 320 320 320 320 321 321 322 322 322 321 321 320 319 316 316 318 320 320 319 319 318 318 320 319 319 318 318 318 319 319 320 319 318 317 317 317 317 316
321 322 321 321 321 321 321 321 320 320 320 320 320 321 320 320 320 321 321 319 318 318 320 320 320 320 319 319 319 319 318 318 319 319 319 319 319 318 318 318 317 318 318
323 323 322 321 320 320 321 321 321 320 320 319 320 321 321 321 321 320 321 320 320 321 321 321 321 320 320 320 319 318 318 318 319 318 318 318 318 319 319 319 319 319 318
322 322 322 322 322 322 321 321 320 319 318 319 319 319 320 320 320 321 320 320 320 320 320 320 321 321 320 320 320 320 320 319 319 319 319 319 318 318 319 319 318 317 318
321 321 321 321 322 322 321 321 321 320 319 318 318 318 318 318 318 318 318 319 319 319 320 320 320 319 319 319 320 320 320 320 318 318 318 317 317 317 317 317 317 317 316
306 307 311 316 316 317 320 321 321 321 321 320 320 319 318 316 316 316 317 317 318 318 318 318 318 318 318 318 318 318 317 317 318 316 316 317 316 316 315 315 316 316 315
298 298 300 302 304 306 310 311 313 315 316 316 314 316 313 306 308 314 317 317 316 315 316 315 316 316 315 315 315 314 313 311 309 307 302 298 296 298 301 301 302 301 300
292 293 294 296 297 297 297 299 301 304 302 301 299 299 298 298 301 304 308 311 310 308 305 304 304 305 305 304 307 306 305 298 294 296 296 294 293 293 296 296 295 296 295
289 290 291 291 292 292 293 292 292 294 293 293 291 292 291 292 295 300 304 305 302 295 292 290 290 293 297 300 302 301 294 290 289 288 287 288 288 287 289 289 289 289 288
288 288 288 289 289 289 290 290 290 289 289 288 288 287 286 287 288 293 296 296 291 287 285 284 284 285 288 291 293 291 287 286 284 284 283 282 282 282 282 283 283 283 282
286 286 287 287 287 288 288 288 288 287 287 286 286 285 284 283 283 284 286 287 287 285 283 282 281 281 283 284 284 284 285 285 283 281 280 279 279 279 279 279 280 279 279
285 285 285 285 285 286 286 287 287 287 286 286 286 285 285 283 282 281 281 282 282 281 281 280 281 282 284 283 284 284 283 281 281 281 280 279 278 278 279 279 278 277 276
284 284 284 284 284 284 284 284 284 285 285 285 285 285 284 284 283 282 281 281 281 280 281 281 281 280 279 279 279 279 278 279 280 279 279 278 278 277 277 277 277 278 276
283 283 282 282 282 282 281 282 282 282 283 283 282 283 283 282 281 281 281 281 280 280 280 280 280 280 279 278 277 277 277 277 277 277 277 277 276 275 275 275 275 275 275
282 282 281 281 280 280 280 279 278 279 280 280 280 280 280 280 280 279 278 280 281 280 279 278 277 277 277 276 276 275 274 274 274 274 274 274 274 274 273 273 274 274 274
280 280 279 279 279 278 278 278 277 275 275 276 277 277 278 278 278 277 276 279 278 278 276 276 275 275 275 274 273 273 272 271 271 271 272 272 272 272 272 272 272 273 272
277 277 277 277 277 276 276 276 276 276 275 273 272 273 274 274 274 274 275 277 275 273 273 273 273 272 272 271 271 270 270 269 269 269 269 269 270 271 271 271 271 271 271
277 276 275 275 275 274 274 274 273 273 272 272 272 272 271 270 272 274 274 272 272 271 271 270 270 270 269 269 268 268 267 267 267 267 267 267 268 269 269 269 269 268 269
276 276 276 275 274 274 273 273 272 272 271 270 269 269 270 271 270 269 268 268 268 268 268 268 268 267 267 267 267 267 267 266 266 266 266 266 266 267 267 267 267 268 268
275 274 274 274 273 273 272 272 271 270 269 268 267 267 268 268 267 267 266 266 266 266 266 266 266 265 266 265 265 265 264 264 263 263 264 264 264 265 265 266 266 267 267
273 273 273 272 272 271 270 270 269 269 268 268 267 266 266 266 266 265 265 264 264 264 264 264 264 264 263 263 263 263 262 262 262 262 262 262 262 263 264 265 265 265 266
272 271 271 270 270 269 269 268 268 268 267 266 266 265 265 264 264 264 263 263 263 263 263 263 263 262 262 262 261 261 261 261 260 260 260 261 262 262 263 263 264 265 265
270 270 269 269 268 268 268 267 267 266 266 265 265 264 263 263 262 262 263 262 262 262 262 262 262 261 261 261 260 260 260 260 260 259 260 260 260 261 261 262 263 263 263
269 268 268 267 267 266 266 266 265 265 265 264 264 263 263 262 262 262 262 262 262 261 261 261 261 261 261 261 260 260 260 260 259 259 259 258 258 259 259 260 261 262 262
267 267 266 266 266 265 265 265 264 264 263 263 263 263 262 262 261 261 261 260 260 260 260 260 260 260 260 259 259 259 259 259 259 259 259 258 258 259 259 259 260 261 262

GFSGL_925_thetae_090.txt.gz
Theta_e
323 322 323 322 323 323 323 322 322 322 320 320 320 319 314 313 314 315 312 314 317 318 317 319 319 319 319 319 319 317 319 320 320 320 321 321 321 321 320 318 317 318 318
322 322 322 321 322 322 322 322 322 322 322 322 322 319 318 318 319 317 314 313 315 318 318 318 317 316 316 319 320 320 319 319 319 319 319 319 319 318 318 319 320 319 319
322 322 322 322 322 323 323 323 324 323 322 321 321 321 320 319 319 319 316 314 312 315 318 320 319 319 319 319 319 318 318 319 319 320 320 319 320 320 321 321 321 321 321
322 323 323 323 323 323 323 322 322 323 323 323 322 321 321 320 320 319 318 317 316 316 316 317 318 319 319 319 319 320 320 320 321 320 319 319 319 320 321 321 321 321 321
324 322 322 322 322 322 322 322 321 320 322 323 323 323 323 322 321 320 320 320 319 321 321 319 319 319 320 320 321 321 321 322 322 322 322 321 321 321 321 321 320 320 319
323 322 323 323 323 323 322 322 322 321 320 320 321 323 323 323 322 322 323 323 322 322 322 322 321 321 320 321 322 321 321 321 321 321 321 320 319 319 319 318 318 318 318
307 308 313 316 318 319 322 323 323 323 322 321 320 320 317 316 318 319 319 321 321 321 320 320 320 320 320 320 319 319 319 319 318 315 312 313 309 308 307 308 308 306 303
298 299 301 303 305 307 310 310 312 315 315 313 312 311 308 305 308 314 316 316 315 313 312 313 313 313 314 316 315 312 310 308 307 304 301 298 298 299 299 299 299 298 297
293 294 295 296 297 297 297 298 298 299 297 296 296 298 298 299 303 306 310 310 307 302 300 300 301 301 302 303 305 304 299 293 290 291 290 290 291 292 295 295 293 293 294
290 291 291 292 292 292 292 291 291 292 289 290 289 289 289 292 297 302 303 302 296 292 291 291 291 292 296 299 300 298 290 287 288 287 289 288 288 287 288 289 288 289 289
289 289 290 290 290 290 289 289 289 288 288 287 286 286 286 287 289 294 295 293 290 287 285 284 284 286 289 292 293 291 287 286 285 285 283 283 283 283 282 282 283 286 287
288 288 288 289 290 290 289 289 288 288 287 287 286 285 284 284 284 285 288 287 286 285 284 283 282 282 282 283 285 284 285 284 284 284 284 284 283 283 281 280 280 280 280
287 287 288 288 288 288 289 289 289 289 289 288 288 288 287 286 284 281 281 282 283 283 282 281 281 282 282 282 282 283 284 284 284 284 284 283 282 281 282 282 281 281 279
285 286 285 284 285 286 285 285 286 287 288 287 287 286 286 285 285 284 284 283 283 282 282 281 281 281 281 281 282 282 281 282 282 282 282 282 281 280 280 280 280 281 280
285 284 284 284 283 282 281 282 282 281 283 284 284 284 284 283 281 281 283 283 282 282 283 283 283 283 283 282 281 280 280 280 280 280 280 280 279 279 278 278 278 279 279
284 284 283 283 283 282 281 279 278 279 279 279 280 281 280 279 279 279 279 279 280 282 283 282 281 281 281 280 280 278 277 276 276 277 277 277 277 277 277 277 277 277 278
282 282 282 283 282 282 283 282 280 277 275 276 277 277 277 277 277 277 277 278 279 281 281 279 279 279 278 277 277 276 275 274 274 275 275 275 276 276 276 276 276 276 276
280 280 281 281 281 281 280 280 280 280 279 277 273 274 274 274 275 275 277 279 279 278 278 277 277 276 275 275 274 274 273 273 273 273 273 273 274 274 275 274 274 274 275
280 279 279 278 278 279 279 279 279 278 278 277 277 275 273 273 273 274 275 276 276 275 274 274 274 273 273 273 272 272 271 271 271 271 271 271 272 273 272 272 273 271 271
278 277 279 279 279 278 278 278 277 277 276 275 273 272 274 275 274 273 273 273 273 272 272 272 271 271 271 271 271 270 271 270 270 270 270 270 270 271 271 271 271 271 272
278 278 277 278 277 277 277 276 275 275 274 272 270 268 269 272 271 271 270 270 270 270 270 270 270 269 269 269 269 269 268 268 267 267 268 268 268 269 269 270 270 270 270
277 277 276 276 275 275 274 274 274 273 273 272 271 269 269 270 270 269 269 268 268 268 268 268 268 267 267 267 267 267 267 266 266 266 266 266 267 268 268 268 269 269 270
275 275 275 274 274 273 273 273 273 272 271 271 270 270 269 269 268 268 267 267 267 266 265 266 266 266 265 265 265 265 265 264 264 263 263 264 265 266 266 267 268 268 268
273 273 273 272 272 272 272 272 270 269 270 270 270 269 268 267 267 266 265 265 265 265 264 264 264 263 263 263 264 264 263 261 261 262 261 262 264 264 264 266 266 267 266
271 271 271 271 271 271 271 270 270 269 269 269 268 268 267 267 266 266 265 264 263 263 263 262 262 262 262 261 261 260 260 260 259 260 260 261 263 262 263 263 264 265 266
269 269 270 270 270 269 269 269 268 268 267 267 267 266 266 266 265 264 264 263 262 262 261 262 262 260 260 262 261 260 260 260 259 259 259 260 262 262 263 263 264 264 265

GFSGL_925_thetae_093.txt.gz
Theta_e
328 326 326 325 325 326 326 323 321 320 319 319 319 319 321 322 322 322 322 322 322 321 321 321 322 322 322 322 321 321 321 321 321 321 320 320 320 321 321 320 319 318 318
326 325 324 325 325 324 324 323 321 319 319 319 319 319 318 319 319 319 319 319 318 316 317 319 320 320 319 318 322 320 320 321 320 320 319 318 319 319 319 321 322 321 320
324 324 325 324 324 323 323 322 322 321 319 319 320 318 316 315 315 314 314 315 315 314 315 317 316 319 320 320 320 317 316 319 319 318 318 319 320 321 321 320 320 321 322
323 323 324 325 325 324 325 325 323 322 322 321 320 320 318 317 316 317 317 317 316 315 316 316 317 320 319 319 319 316 317 319 318 319 318 319 320 321 321 321 322 322 322
323 323 324 324 325 325 325 324 324 325 323 322 322 321 321 320 320 319 319 318 317 315 314 317 317 320 320 320 319 319 319 319 320 320 320 321 322 322 323 322 322 321 321
324 323 323 324 323 324 324 323 323 323 323 324 324 324 323 318 320 320 320 319 319 320 319 319 319 318 317 317 317 318 320 321 322 322 322 321 321 321 320 318 315 316 316
308 309 314 316 317 318 321 321 321 321 321 321 320 316 314 313 317 320 321 321 322 321 320 321 322 322 322 321 320 320 319 317 316 313 311 310 306 306 305 306 304 303 303
299 300 302 304 306 307 307 306 309 311 310 309 308 308 308 309 316 319 320 317 316 315 314 313 314 314 314 316 313 310 305 303 303 304 301 296 295 296 299 298 298 297 296
294 295 295 297 297 297 296 296 296 300 299 296 296 297 299 301 305 309 313 312 307 302 300 300 302 302 303 304 304 301 295 292 291 292 292 291 291 294 294 294 292 293 294
291 291 292 292 292 291 291 290 291 291 290 290 290 290 290 292 296 301 303 301 296 292 291 291 291 295 298 300 298 295 289 287 288 287 287 287 288 287 288 288 289 291 291
289 290 290 290 290 289 289 289 289 288 288 287 286 286 286 287 288 292 294 294 291 289 287 286 286 288 291 292 293 290 287 286 286 285 285 285 285 284 283 283 283 286 288
288 288 288 289 290 290 290 289 289 289 288 288 287 286 285 284 284 286 287 287 287 285 284 283 283 283 284 285 285 285 285 286 286 286 285 284 284 284 283 282 282 281 281
285 285 286 287 286 286 287 289 289 289 289 288 288 287 287 286 285 283 283 284 284 283 283 283 283 283 283 283 284 285 285 285 285 285 285 284 284 283 283 284 284 284 282
286 284 283 282 283 284 283 283 284 286 286 287 287 287 285 283 284 285 285 284 284 283 283 284 283 283 283 283 283 283 282 282 283 283 284 283 283 282 282 282 282 282 283
285 285 284 283 281 280 280 281 281 281 282 283 282 283 283 281 281 282 284 284 284 284 284 284 284 284 284 283 282 281 281 281 282 282 282 281 281 281 280 280 280 281 281
284 284 285 284 283 281 279 277 278 279 279 279 280 280 279 279 280 280 281 282 283 283 283 283 282 282 282 282 281 280 279 278 278 279 279 279 279 279 279 279 279 279 279
284 284 284 283 283 283 284 282 278 277 276 277 277 277 278 278 278 279 280 281 282 282 282 281 281 280 280 279 278 278 277 276 277 277 277 277 278 278 278 278 277 278 278
282 282 282 282 282 282 282 282 281 281 280 277 275 275 276 276 277 279 280 281 281 280 280 279 279 278 277 277 276 276 275 275 275 275 275 275 275 276 276 276 276 275 275
281 281 281 281 280 281 281 281 281 280 280 279 279 278 276 276 276 276 277 278 278 277 276 276 276 276 275 275 275 274 273 273 273 274 274 273 273 274 274 274 274 274 274
280 280 280 281 281 280 280 280 279 279 277 275 274 274 277 277 276 275 275 275 275 275 275 274 274 273 273 273 273 272 273 272 271 272 272 272 271 272 273 273 273 273 273
280 279 279 279 279 279 279 278 278 277 276 274 272 271 273 275 274 274 273 273 273 273 273 273 272 272 272 271 272 271 270 270 270 270 270 269 270 271 271 271 272 272 272
278 278 278 277 277 277 277 277 276 276 275 275 274 272 273 273 273 272 272 271 270 270 271 271 270 269 269 269 269 269 269 268 268 267 267 268 269 270 270 270 271 271 271
277 277 277 276 276 276 276 275 275 275 274 274 273 272 272 271 271 271 270 269 269 269 268 268 268 268 267 267 267 267 267 266 266 265 265 266 267 268 268 269 269 269 269
275 276 275 275 274 275 275 275 274 272 273 273 272 272 271 270 270 269 268 267 267 267 266 267 266 264 264 265 265 266 264 262 262 263 262 264 265 266 265 266 267 268 268
273 274 274 274 273 273 273 273 273 272 272 272 271 271 270 270 269 268 267 266 265 266 266 265 264 264 264 263 263 262 261 260 260 260 261 262 264 264 265 266 266 266 266
272 272 272 272 272 272 272 272 271 271 270 270 270 269 269 269 268 267 266 266 265 265 264 265 264 262 262 264 263 261 260 259 259 259 259 261 263 264 264 264 264 265 266

GFSGL_925_thetae_096.txt.gz
Theta_e
331 330 328 327 327 327 326 323 323 322 321 320 321 323 324 324 324 324 325 324 324 324 324 324 324 323 322 320 316 321 322 321 320 321 320 320 321 322 322 321 320 319 320
329 327 326 326 326 327 325 322 322 321 320 319 320 321 322 324 324 324 324 324 324 324 323 323 324 323 322 322 322 321 321 321 319 320 320 319 319 318 318 318 319 320 320
326 325 325 325 325 325 324 323 322 320 319 319 319 320 321 321 321 322 323 323 323 323 323 322 322 321 321 320 321 320 321 320 319 318 319 319 318 318 318 319 320 320 320
324 324 325 324 324 323 323 323 322 320 319 319 319 319 320 321 320 320 320 322 322 321 319 318 318 317 319 320 321 320 320 319 318 318 318 318 318 317 318 319 320 321 322
323 323 324 325 324 324 325 323 323 321 320 319 319 319 319 318 317 316 316 316 315 316 317 317 316 318 318 318 320 320 320 319 318 318 318 318 318 319 319 321 322 321 319
322 323 324 324 326 325 325 325 324 323 322 322 320 320 319 316 317 316 317 316 317 318 317 315 316 317 316 319 319 320 320 319 320 320 320 320 320 318 315 313 310 309 310
310 312 317 317 320 320 322 322 322 318 318 315 314 314 309 309 314 318 318 318 318 317 317 317 317 318 318 318 318 319 318 317 317 316 315 310 306 306 306 306 303 302 303
297 300 303 306 307 308 311 309 311 311 308 306 304 304 305 304 310 314 317 317 313 310 310 311 310 309 309 311 313 309 304 302 303 304 304 299 297 297 299 299 298 296 295
292 292 294 297 297 298 298 297 297 298 296 293 294 295 297 298 304 308 312 310 304 298 297 299 300 302 302 303 304 300 294 292 292 293 292 291 291 294 296 294 293 294 292
289 291 290 291 291 291 291 291 291 292 289 289 289 289 290 292 295 299 301 298 294 291 291 292 294 297 299 299 299 296 290 288 290 290 289 288 288 288 290 290 291 291 291
288 288 288 290 289 289 289 289 289 288 288 287 286 286 286 287 289 292 293 291 289 287 286 286 287 291 292 292 292 292 289 287 286 286 285 285 284 284 284 284 286 288 286
285 286 286 286 286 288 289 289 289 288 288 287 287 285 285 285 286 287 287 287 287 285 284 284 284 286 286 286 286 286 286 286 286 285 284 284 284 284 284 284 284 282 281
283 283 283 284 285 285 285 286 287 288 288 287 286 285 284 285 284 284 285 285 284 284 284 284 284 284 284 285 285 285 285 285 284 284 284 284 283 283 282 283 283 284 282
284 283 281 281 281 282 281 282 282 284 283 285 284 283 282 283 285 285 285 284 284 284 284 284 283 283 282 282 282 282 282 283 283 283 283 282 282 281 280 281 281 282 282
285 284 282 281 279 279 280 280 280 281 282 281 281 281 281 282 283 284 284 284 284 284 284 284 283 283 283 281 280 279 279 280 280 280 280 280 279 280 279 279 280 280 280
284 284 283 284 281 280 278 278 278 278 279 279 280 280 280 281 282 282 283 283 283 283 282 282 282 281 281 280 279 278 277 277 278 278 278 278 279 278 279 278 278 278 279
282 283 283 283 283 283 281 279 278 277 277 277 278 278 279 280 280 281 281 281 282 281 280 280 279 279 278 277 277 276 276 276 276 276 276 276 276 277 277 277 276 275 275
282 281 281 281 281 281 282 281 281 280 278 277 277 277 278 278 279 280 280 279 278 278 278 278 277 277 276 276 275 274 274 274 274 274 274 274 274 275 275 274 275 274 274
280 281 281 281 281 281 280 280 279 277 276 275 276 277 277 277 277 277 277 277 276 276 275 275 275 275 275 274 274 274 273 272 272 272 272 272 272 273 273 273 273 273 273
280 280 280 280 280 280 279 279 278 276 274 273 273 274 276 275 275 274 274 274 274 274 274 274 273 273 273 273 272 272 272 271 271 271 270 270 270 271 271 272 272 272 272
279 279 279 278 278 278 278 278 277 276 274 272 272 273 274 274 274 273 272 272 272 272 272 272 271 271 271 271 271 270 270 269 269 268 268 269 269 270 270 270 271 271 271
278 278 278 277 277 277 277 277 276 276 275 274 273 273 273 273 272 272 271 270 270 270 270 270 270 269 268 268 269 269 268 267 267 266 266 267 267 268 268 269 269 269 270
277 277 276 276 276 276 275 274 275 275 275 274 273 272 272 271 270 270 269 269 269 268 268 268 268 267 267 267 267 267 266 265 264 264 264 265 266 266 266 266 267 267 268
275 275 275 275 274 274 274 275 273 273 273 273 273 272 271 270 270 269 268 267 267 267 266 266 266 265 265 265 265 264 264 264 263 262 262 263 264 265 265 266 266 266 266
273 273 274 274 274 274 274 273 273 272 272 272 271 271 270 270 269 268 267 266 265 266 266 265 265 264 264 263 263 263 263 262 261 261 262 262 263 264 265 265 265 265 265
272 271 272 272 272 271 272 271 272 271 271 270 270 270 269 269 269 268 267 266 265 265 265 265 264 264 263 263 263 263 262 261 260 261 262 262 262 263 263 263 263 263 264

GFSGL_925_thetae_099.txt.gz
Theta_e
333 332 331 329 328 328 328 327 325 324 323 323 323 324 325 325 325 325 325 325 325 324 324 323 323 323 323 323 323 323 323 321 319 320 321 321 322 323 322 322 322 321 321
328 329 328 327 327 327 326 324 322 322 321 321 320 320 322 324 324 324 325 324 324 323 324 324 323 323 323 322 321 317 320 321 321 319 320 320 319 320 320 320 320 319 318
327 327 326 326 326 326 325 323 320 321 320 320 320 320 321 324 324 324 324 324 323 323 323 323 323 322 322 322 321 321 320 319 319 320 319 318 318 318 318 318 318 317 318
325 325 325 325 325 325 324 322 321 321 320 319 319 319 320 321 323 323 323 323 323 323 323 323 322 323 323 322 322 321 321 318 319 320 319 318 317 317 318 317 316 317 319
322 324 325 324 324 323 323 322 322 320 320 319 319 319 319 319 319 321 321 322 321 322 323 323 322 321 321 321 320 320 319 320 320 319 318 317 317 317 317 317 319 319 316
304 318 323 325 324 323 323 323 322 321 319 319 319 319 317 318 318 319 320 321 322 321 320 318 317 319 318 317 316 318 320 319 319 318 316 316 317 317 316 315 316 313 309
295 298 308 317 319 319 319 319 315 313 315 314 313 314 314 313 316 316 317 318 318 317 316 316 316 316 317 316 317 318 319 319 319 318 317 314 310 311 311 307 306 307 305
291 292 295 303 303 304 306 306 305 305 303 302 301 302 305 307 311 315 315 315 313 310 311 312 313 312 313 314 313 312 308 307 308 309 309 304 301 301 301 301 300 299 295
288 290 290 291 294 295 293 292 293 294 294 293 294 296 298 299 302 307 313 307 302 299 299 301 303 304 304 306 306 300 295 292 292 295 294 293 294 296 296 296 294 294 290
287 287 288 290 289 289 289 289 288 288 287 288 288 289 290 293 296 299 303 298 294 292 292 294 298 299 298 299 300 295 289 287 288 289 290 290 291 291 291 292 292 292 289
284 286 287 287 288 289 289 288 288 287 286 285 285 286 286 288 289 292 293 291 288 287 286 287 289 292 293 293 294 292 288 287 286 286 285 285 285 285 285 286 287 288 287
282 282 283 284 285 286 287 287 287 287 286 285 285 285 284 285 285 287 288 288 286 285 285 285 286 287 287 288 288 287 287 287 286 284 283 283 283 284 284 284 283 282 281
282 281 281 282 282 282 283 285 285 285 284 284 283 284 284 284 284 284 285 285 285 284 284 284 284 285 286 285 286 285 285 284 284 283 283 282 281 282 282 283 283 281 280
283 281 280 280 280 281 281 281 282 282 282 283 282 283 284 284 285 285 285 284 284 283 283 282 282 282 282 282 283 283 283 283 282 281 281 281 280 280 280 281 281 282 280
284 283 281 280 279 279 279 280 280 281 281 281 281 282 283 284 284 285 285 284 284 283 283 282 281 280 279 279 279 279 280 280 280 280 279 279 279 279 279 279 279 279 278
283 283 283 282 280 279 278 278 279 279 280 280 281 281 282 283 283 283 283 283 282 282 281 279 279 278 278 277 276 276 277 277 277 278 278 277 277 277 277 276 277 276 276
281 281 281 281 282 282 280 279 277 278 278 278 279 280 281 282 281 281 281 280 280 279 278 277 277 276 276 275 275 275 275 275 275 275 275 275 275 275 275 274 274 274 274
281 281 281 281 280 280 279 278 278 277 277 277 278 278 278 278 279 279 278 278 277 276 276 276 276 275 275 274 273 273 273 273 273 273 273 273 273 273 273 273 273 273 273
280 280 280 280 280 279 278 276 275 274 274 274 276 275 275 276 275 276 275 275 275 274 274 274 274 273 273 273 272 272 272 271 271 271 271 271 271 271 272 272 272 272 272
278 278 278 278 278 278 277 276 274 273 273 273 274 275 274 274 273 273 273 273 273 273 272 272 272 272 272 271 271 271 270 270 270 269 269 269 270 270 270 270 270 270 270
278 277 277 277 277 277 276 276 274 273 273 273 273 273 273 272 271 271 271 271 271 271 270 270 270 270 270 270 269 269 268 268 267 267 268 268 268 268 268 269 269 269 269
276 276 276 277 276 276 276 275 275 274 274 273 272 272 272 271 270 270 269 269 269 269 269 269 268 268 268 268 268 268 267 266 266 265 266 266 266 266 267 267 267 267 267
275 275 274 275 275 275 274 273 274 274 273 272 272 271 270 270 269 269 268 268 267 267 267 267 267 267 266 266 266 266 266 265 264 264 264 265 265 265 265 266 266 266 266
273 274 274 274 274 274 273 273 273 272 272 272 271 271 270 269 269 268 267 267 266 266 266 266 265 265 264 264 265 264 264 263 263 263 263 264 264 264 265 265 265 265 265
271 272 272 272 272 272 272 272 271 271 271 270 270 270 270 269 268 268 267 266 265 265 265 265 264 264 263 263 263 263 263 263 263 263 263 263 263 263 263 264 264 263 264
271 270 270 270 270 270 270 270 270 270 269 269 269 269 269 268 267 267 266 266 265 265 264 264 264 263 263 263 263 263 262 262 262 263 263 262 262 262 262 262 262 262 263

GFSGL_925_thetae_102.txt.gz
Theta_e
331 333 334 334 334 333 331 330 330 329 328 327 325 325 325 326 326 326 326 326 326 325 325 324 324 323 322 322 322 321 320 320 319 319 321 321 321 321 320 320 321 321 321
320 327 330 330 329 328 328 327 326 324 323 322 323 323 323 324 325 325 325 325 325 325 324 324 324 323 321 322 323 323 322 321 320 318 320 322 322 322 321 321 321 321 319
314 326 327 327 327 326 324 323 323 322 321 321 321 320 320 320 321 322 324 325 325 325 324 324 324 323 322 322 322 322 322 320 320 320 319 320 320 321 321 321 321 320 320
305 325 326 326 326 325 324 323 322 321 321 320 319 318 320 320 321 323 324 324 324 324 324 324 323 323 322 322 322 319 319 320 319 318 319 319 319 318 319 319 318 318 318
299 307 315 325 325 325 323 322 321 321 320 319 319 319 318 318 319 320 324 324 324 323 323 323 323 322 322 322 321 321 321 320 319 318 317 317 317 317 317 317 317 316 314
294 295 301 313 323 323 323 322 321 320 319 319 319 318 318 318 318 318 320 322 323 322 321 322 322 322 321 321 321 320 319 318 319 319 318 317 316 317 317 316 316 315 306
292 292 294 297 302 310 315 317 313 312 313 313 311 311 312 314 317 318 319 318 316 318 319 318 318 319 319 318 318 319 318 319 319 318 317 316 316 316 315 313 312 310 303
289 290 290 292 293 295 297 301 301 302 300 299 300 301 303 304 310 314 316 315 314 314 314 316 316 315 316 317 314 311 308 310 313 316 316 313 313 311 309 308 306 303 296
287 288 289 289 290 290 289 290 293 293 293 291 292 294 295 295 299 304 312 310 306 304 305 307 309 312 310 311 309 304 297 294 295 299 299 298 298 300 299 300 298 296 290
283 284 286 288 288 288 288 287 287 289 288 288 288 288 290 291 293 296 299 297 296 294 295 296 298 300 298 299 303 300 293 290 292 292 292 293 293 293 294 294 295 295 289
282 283 283 284 286 286 287 286 286 286 286 286 285 286 286 287 290 293 294 292 288 287 287 288 290 292 293 293 292 291 289 288 288 288 287 287 287 287 287 288 291 291 289
281 281 282 282 283 283 285 285 285 285 285 285 285 285 284 285 285 286 288 288 288 286 285 285 286 287 287 288 288 287 286 287 285 285 284 284 284 284 283 283 283 282 281
281 280 280 281 281 282 282 282 283 283 284 285 285 285 285 285 284 284 285 285 285 283 283 283 285 285 285 285 285 285 285 284 283 282 281 281 281 283 282 281 280 280 279
282 281 280 279 280 281 281 281 282 282 282 283 283 284 285 285 285 284 284 284 284 284 285 284 283 283 283 283 283 283 282 282 280 280 279 280 281 281 280 281 280 279 278
282 282 280 279 279 279 280 280 281 281 282 282 282 284 284 284 284 284 283 283 282 282 282 281 281 280 279 279 279 279 280 280 279 279 279 279 278 279 278 279 278 278 277
281 281 281 281 280 279 278 279 280 280 281 281 282 282 282 283 282 282 282 282 281 281 279 278 277 277 276 276 276 276 277 277 277 277 277 277 277 276 276 276 276 276 276
280 280 280 280 280 280 279 278 278 278 278 279 280 280 281 281 280 280 280 280 279 280 277 276 276 275 275 275 275 274 274 274 275 275 275 275 275 275 275 274 274 274 274
280 279 280 279 278 277 276 276 276 275 275 275 276 277 277 277 277 278 278 278 276 276 275 275 275 274 274 274 273 273 273 273 272 273 273 273 273 273 273 272 272 273 273
278 278 278 278 277 276 275 274 274 274 274 274 274 274 274 274 274 274 275 274 273 273 273 273 273 273 272 272 272 271 271 270 270 270 271 271 271 271 271 271 271 271 271
277 277 277 277 277 276 275 273 273 273 273 273 273 272 273 273 273 272 272 272 272 271 272 272 271 271 271 271 270 270 270 269 269 269 269 269 269 270 270 270 270 270 269
276 277 276 276 276 275 275 274 273 273 273 272 272 272 271 271 270 270 270 270 270 270 270 270 270 270 270 269 269 268 268 267 267 267 267 268 268 268 268 268 268 268 268
275 275 275 275 274 275 274 274 274 273 272 272 271 271 270 270 269 269 268 268 268 269 268 268 268 268 268 268 267 267 266 266 265 265 266 266 266 266 266 266 267 267 267
274 274 274 273 274 273 273 273 273 272 272 271 271 270 269 269 268 267 267 267 267 266 266 266 266 266 266 266 265 265 265 264 264 264 264 265 265 265 265 265 265 266 266
272 272 272 272 272 272 272 272 271 271 271 270 270 269 269 268 268 267 266 266 266 265 265 265 264 264 264 264 264 263 263 263 263 263 263 264 264 264 264 264 264 264 264
270 270 270 270 270 270 270 270 270 270 270 270 269 269 268 268 267 267 266 265 265 265 264 264 264 263 263 263 263 263 263 263 263 263 263 263 263 263 263 263 263 263 263
270 270 270 269 269 269 269 269 269 269 268 268 268 268 268 267 267 266 266 265 265 265 264 264 263 263 263 263 263 263 262 262 262 263 263 262 262 262 262 262 262 262 262

GFSGL_925_thetae_105.txt.gz
Theta_e
312 326 331 332 332 332 331 330 330 330 329 329 328 327 326 325 327 327 326 326 326 326 325 325 325 324 322 320 320 320 319 319 318 318 320 320 320 320 321 321 321 321 320
306 318 328 331 332 331 330 329 329 329 328 328 327 326 325 325 325 325 326 325 325 325 325 325 324 324 322 321 320 320 319 319 319 318 319 320 320 320 320 320 319 320 319
304 314 325 327 327 327 328 328 327 325 324 323 322 321 322 322 321 322 322 324 325 325 325 325 324 324 323 322 321 320 320 320 319 320 319 320 320 321 320 320 320 320 320
299 301 311 320 326 326 325 324 323 321 321 321 321 320 319 318 319 319 320 321 322 323 325 325 325 324 323 322 321 320 320 320 319 319 320 320 320 320 321 320 320 319 319
295 296 299 305 324 324 322 321 321 321 320 320 319 318 318 318 317 317 317 320 323 324 324 324 324 324 323 322 321 320 321 320 318 318 318 318 318 318 318 318 318 317 315
292 293 294 297 304 311 319 320 320 320 319 319 318 317 316 315 316 317 317 319 322 323 323 323 324 324 323 322 321 321 321 320 318 317 317 316 317 317 317 317 316 313 306
289 290 291 292 292 294 298 304 305 309 312 312 310 309 309 310 314 316 316 317 318 317 318 320 322 322 323 320 320 321 319 320 319 318 317 317 316 316 316 315 315 314 309
285 286 288 290 290 289 290 290 292 294 296 299 301 300 301 301 305 309 312 315 313 312 310 310 314 314 317 316 316 317 316 315 316 318 318 317 317 316 316 316 315 309 300
284 284 284 287 288 289 287 287 288 288 289 289 290 294 295 295 297 302 306 307 305 303 304 305 305 309 307 317 317 310 303 300 299 306 309 308 309 310 307 309 307 301 290
282 283 283 284 285 286 287 287 286 286 286 286 287 287 289 290 292 296 299 299 295 293 295 296 298 299 302 307 310 304 293 290 292 294 294 294 295 295 297 298 299 297 289
280 281 282 283 283 283 284 285 286 286 286 285 285 285 286 286 288 290 292 292 289 288 288 287 289 292 294 296 295 294 291 290 289 289 288 288 289 289 291 292 293 294 290
280 280 281 282 282 283 283 283 283 284 285 285 285 285 284 284 284 284 286 286 286 285 284 284 284 286 285 287 288 288 288 288 287 285 283 282 282 281 282 283 285 286 286
280 280 280 280 281 282 282 283 283 283 284 284 285 285 285 284 284 283 283 283 284 282 282 282 284 285 285 285 285 286 286 285 284 282 281 281 281 280 280 280 279 279 278
281 280 280 279 280 280 281 281 282 283 283 283 284 284 284 284 284 283 283 282 283 283 282 282 283 283 283 283 283 282 282 281 280 280 280 280 281 281 279 279 278 277 277
280 280 281 280 279 279 279 279 280 281 282 283 282 282 283 283 282 282 282 282 281 281 281 280 279 278 278 278 278 278 279 279 278 278 278 278 278 278 278 279 278 277 276
280 280 279 279 279 279 279 279 278 278 279 280 281 281 280 281 281 281 281 281 281 281 279 277 276 276 276 276 275 275 276 276 276 277 277 276 276 276 276 276 276 276 275
279 279 278 277 277 277 277 276 276 277 276 277 277 278 278 278 278 278 278 278 278 279 276 275 275 275 274 274 274 274 274 274 276 276 275 275 275 275 275 275 275 275 274
278 278 277 276 275 274 275 275 275 274 274 274 274 274 276 276 276 276 277 278 275 275 274 274 273 273 273 273 272 272 272 273 273 273 273 273 273 273 273 272 273 273 273
277 277 277 276 275 274 274 274 274 273 273 272 273 273 273 273 274 274 275 273 272 272 272 272 272 272 271 271 271 271 270 270 271 271 271 271 271 271 271 271 271 271 271
276 276 276 276 275 274 273 273 273 273 272 271 271 271 271 273 271 271 271 271 271 271 271 270 270 271 270 270 269 269 269 269 269 269 269 269 270 270 270 270 270 269 269
275 275 274 275 275 275 273 273 272 272 271 271 270 270 270 269 268 269 269 269 269 269 269 269 269 269 269 268 268 268 267 267 267 267 267 267 268 268 268 268 268 268 268
274 274 274 273 273 274 273 273 272 272 271 270 270 269 269 268 268 268 267 267 268 268 267 267 267 267 267 267 266 266 266 265 265 266 266 266 266 266 266 267 267 266 266
272 273 273 273 272 272 272 272 272 271 271 270 270 269 269 268 267 266 266 266 266 266 266 266 266 266 265 265 265 264 264 264 264 264 264 265 265 265 265 265 265 265 265
270 271 271 271 271 271 271 271 270 270 270 270 269 269 268 268 267 266 266 265 265 265 265 264 264 264 264 264 263 263 263 263 263 263 263 263 264 264 264 264 264 264 264
270 270 269 269 269 269 269 269 269 269 269 269 269 268 268 267 267 266 266 265 265 264 264 264 263 263 263 263 263 262 262 262 262 263 263 262 263 263 263 263 263 263 263
269 269 269 269 268 268 268 268 268 268 268 268 267 267 267 267 266 266 265 265 265 264 264 264 263 263 263 263 262 262 262 261 261 262 262 262 262 262 262 262 262 262 262

GFSGL_925_thetae_108.txt.gz
Theta_e
305 316 330 333 333 331 332 332 331 330 331 331 331 330 330 329 329 329 328 327 327 327 326 325 324 325 325 323 321 320 320 320 320 319 320 320 320 320 320 319 319 320 320
302 310 326 330 330 330 330 331 330 329 330 330 328 328 328 327 326 325 325 326 326 326 325 324 325 325 325 323 322 320 319 319 319 317 318 318 319 319 320 320 319 320 320
298 302 310 316 327 327 326 327 328 328 328 327 327 326 326 325 324 324 324 323 323 324 324 325 325 325 324 322 321 320 319 319 319 318 318 318 319 319 318 318 318 318 318
295 297 299 304 316 323 324 325 326 326 325 324 323 322 321 320 319 319 319 319 319 320 321 322 324 325 324 324 322 320 320 319 319 318 318 318 319 319 319 318 316 317 317
293 293 294 297 300 317 319 321 320 320 320 320 320 319 318 318 317 317 317 317 317 318 319 321 322 324 323 324 323 321 320 320 319 319 318 319 318 318 319 318 316 314 311
289 291 291 293 292 297 303 304 311 310 311 313 315 315 314 311 311 314 316 316 316 317 318 322 323 324 324 324 323 322 321 320 319 319 319 319 318 318 319 318 315 309 307
286 288 289 292 291 290 291 293 295 296 298 297 297 300 300 302 303 311 315 314 314 313 312 315 320 323 323 323 322 321 320 320 320 319 319 319 317 317 319 318 317 316 313
284 285 286 288 289 288 289 288 288 289 289 289 289 291 292 293 298 302 308 309 308 307 306 306 309 309 309 316 318 313 310 314 318 318 317 317 318 319 319 318 316 314 307
282 283 284 285 285 286 287 287 288 287 286 286 286 286 287 288 290 295 298 301 301 298 298 299 302 306 302 301 306 304 298 295 299 310 315 314 317 317 316 316 312 304 292
281 282 283 284 284 284 284 285 286 286 286 286 285 285 285 285 286 289 292 292 292 291 292 292 292 296 301 304 301 300 294 292 294 298 296 297 298 299 302 305 305 302 291
279 280 281 282 283 284 284 285 285 285 285 285 285 284 284 284 284 284 286 287 286 286 285 285 286 291 293 295 295 295 291 292 291 293 292 291 291 292 293 295 296 297 292
280 280 280 280 281 282 283 284 284 285 285 285 285 285 284 284 282 282 282 282 283 283 283 283 283 284 287 289 288 288 290 290 290 286 285 282 283 281 283 286 288 289 288
280 280 279 280 279 280 281 282 283 283 283 284 284 283 283 283 284 284 282 281 280 280 280 280 280 281 282 284 286 287 287 284 282 281 280 280 280 279 279 279 279 279 279
279 279 279 279 278 279 279 280 281 282 281 281 282 282 282 282 282 282 283 284 284 283 281 280 279 279 280 280 281 280 280 280 280 279 279 279 280 279 279 278 277 277 276
278 278 278 278 278 278 278 278 279 279 280 280 280 280 280 280 281 280 280 280 281 281 282 281 279 278 277 277 277 278 278 278 278 278 278 278 278 278 278 278 277 276 275
277 276 275 275 276 276 277 277 277 277 277 278 279 279 278 279 279 279 279 280 280 279 277 276 275 275 275 275 275 275 276 277 277 277 277 277 276 276 276 276 276 275 275
276 275 274 274 274 275 275 274 274 275 274 275 275 276 277 277 277 277 277 277 277 278 275 274 273 273 273 273 273 273 273 274 276 276 276 275 275 276 276 275 275 275 274
276 276 275 274 274 274 274 273 273 272 271 271 272 272 274 274 274 274 275 277 274 274 272 272 272 272 272 272 272 272 273 273 274 274 274 274 274 273 273 273 273 274 273
275 275 275 274 274 273 273 273 272 272 271 270 271 271 272 272 272 273 273 272 271 270 271 271 270 270 270 270 270 270 271 271 271 271 271 272 272 272 271 271 272 272 272
275 274 274 274 274 273 273 272 271 271 270 270 269 269 269 270 270 269 270 270 270 269 269 269 269 269 269 269 269 269 269 269 269 269 269 270 270 270 270 270 270 269 269
273 273 273 273 273 273 273 272 271 271 270 269 269 268 268 268 267 267 268 268 268 268 268 268 268 268 267 267 267 267 267 267 267 267 268 268 268 268 268 268 268 268 267
272 272 272 272 272 272 272 272 271 271 270 269 269 268 268 267 266 266 266 266 266 266 266 267 267 266 266 266 265 266 265 265 266 266 266 266 266 267 267 267 267 266 266
270 270 271 271 271 271 271 271 270 270 270 269 269 268 268 267 266 266 265 265 265 265 264 264 265 265 264 264 264 264 264 264 264 264 265 265 265 265 265 265 265 265 265
269 269 269 269 269 269 269 269 269 269 269 269 268 268 267 267 266 266 265 265 264 264 264 264 263 263 263 263 263 263 263 263 263 263 263 264 264 264 264 264 264 264 264
269 269 269 269 268 268 268 268 268 268 268 268 268 267 267 267 266 266 265 265 264 264 264 263 263 263 263 262 262 262 262 262 262 263 262 263 263 263 263 263 263 263 263
269 269 269 268 268 268 267 267 268 267 267 267 267 267 266 266 266 266 265 265 264 264 264 263 263 263 262 262 262 262 261 261 261 262 262 262 262 262 262 262 262 262 262

GFSGL_925_thetae_111.txt.gz
Theta_e
300 304 317 332 333 332 332 334 334 332 331 330 330 331 332 330 330 331 330 329 329 329 328 328 327 327 326 326 325 324 323 323 323 323 320 320 320 321 321 320 321 320 319
298 301 306 320 331 330 331 331 332 331 329 329 329 330 330 329 328 329 329 328 328 327 327 326 326 326 326 325 324 323 322 322 322 322 319 319 320 320 320 320 320 319 319
295 298 300 305 317 327 328 328 328 327 327 327 328 327 328 328 327 326 325 325 325 324 325 325 325 325 325 324 324 324 322 321 321 321 318 318 318 319 319 319 320 319 318
293 294 296 296 300 309 320 322 323 324 324 324 325 325 323 322 321 321 321 321 320 320 319 320 321 322 323 324 324 324 323 321 320 320 318 318 318 318 318 318 315 314 314
290 291 293 294 294 298 304 308 314 316 316 317 315 315 315 315 311 315 316 317 317 317 317 317 318 320 321 321 323 323 323 321 320 320 319 318 318 318 317 318 315 310 308
287 289 290 292 292 291 292 294 299 300 303 306 302 302 301 298 303 309 313 314 315 313 312 311 311 317 319 321 321 322 323 321 320 320 320 318 318 318 318 318 312 307 306
285 286 288 288 291 292 289 290 289 290 293 294 293 293 291 290 294 301 307 306 306 305 304 306 307 307 313 317 320 321 322 322 321 320 319 319 319 318 318 317 313 312 311
284 284 285 286 287 290 290 288 289 288 289 287 287 287 287 287 290 295 297 299 297 295 295 296 299 301 302 307 311 310 309 309 312 319 319 319 319 318 318 317 315 311 306
282 283 284 284 285 285 286 287 287 286 286 285 285 286 286 285 287 290 293 292 292 290 289 290 293 296 297 300 302 298 295 297 297 304 311 312 317 316 317 317 310 306 293
280 281 282 283 284 284 285 286 286 286 285 285 284 284 284 284 285 287 288 286 286 286 286 286 286 289 295 296 296 296 294 293 295 296 297 298 304 306 310 311 308 309 294
279 280 280 281 282 283 284 284 285 285 285 285 284 284 283 283 283 286 287 284 283 282 282 282 283 283 285 290 293 291 290 290 291 292 293 294 294 296 297 297 300 301 296
279 279 279 280 280 281 282 283 283 284 284 284 284 284 283 283 282 282 282 284 283 281 280 280 280 280 281 282 284 287 289 287 285 286 284 282 281 282 285 287 290 291 289
278 278 278 278 279 279 280 281 281 281 282 282 282 282 282 282 282 283 283 282 282 280 280 281 282 282 283 282 281 283 282 282 281 281 280 280 279 279 280 281 282 283 284
276 276 277 277 277 278 279 279 280 280 280 280 280 281 281 281 281 281 281 282 282 282 281 281 281 281 281 281 281 280 279 279 279 279 279 279 279 279 278 278 278 278 278
276 275 275 276 276 276 276 277 277 277 278 279 279 279 280 280 279 279 279 279 279 278 279 280 279 278 277 277 278 279 279 278 278 278 278 278 278 278 277 278 277 277 277
276 276 275 275 275 275 275 275 274 275 275 276 277 277 277 278 278 278 278 277 277 278 278 277 277 276 276 275 275 275 276 277 277 278 277 277 277 277 277 277 276 276 276
275 275 275 274 274 274 274 274 274 273 272 272 273 274 275 275 275 276 276 275 275 276 276 276 275 274 274 273 273 273 273 275 276 276 276 276 276 277 278 277 277 276 275
275 274 274 273 273 273 273 272 272 272 272 271 271 271 272 272 272 273 273 274 274 274 274 274 273 273 272 272 272 272 272 273 273 273 274 274 275 275 275 276 275 275 274
274 274 274 273 273 272 272 272 272 271 271 270 270 270 269 270 270 271 270 271 272 272 272 271 271 271 271 270 270 270 270 270 270 271 271 272 273 274 273 273 273 273 273
273 273 273 273 273 273 272 272 271 271 270 270 269 268 269 269 269 269 268 269 269 269 270 269 269 268 268 268 268 269 269 269 269 270 270 270 271 272 272 272 272 272 271
272 272 272 272 272 272 272 271 271 271 270 270 269 267 267 268 267 267 267 266 267 267 267 268 267 267 267 266 266 267 267 267 267 268 268 268 269 270 270 270 270 270 270
270 271 271 271 271 270 271 271 270 270 270 269 269 268 267 267 267 266 266 265 265 265 265 265 265 265 265 265 265 265 265 265 265 266 266 267 268 268 268 268 268 269 269
269 269 270 269 269 269 269 269 269 269 269 269 268 268 267 267 266 266 265 264 264 264 264 263 263 263 263 263 263 263 263 263 264 265 265 266 266 266 267 267 267 267 267
269 269 269 269 268 268 268 268 268 268 268 268 268 267 267 266 266 265 265 265 264 264 263 263 263 262 263 263 262 262 262 263 263 263 264 264 265 265 265 265 265 265 265
269 269 269 269 268 268 267 267 267 267 267 267 267 267 267 266 266 265 265 265 264 264 264 263 263 262 262 262 262 262 262 262 262 263 263 263 263 263 263 264 264 264 264
270 270 269 269 269 268 268 268 268 267 267 267 266 266 266 266 266 265 265 265 264 264 263 263 263 262 262 262 262 261 261 261 261 261 262 262 262 262 262 262 262 264 263

GFSGL_925_thetae_117.txt.gz
Theta_e
290 293 296 301 304 309 320 328 333 332 332 334 335 334 334 334 334 334 333 333 332 332 333 333 333 334 333 332 331 331 331 330 330 329 329 327 326 327 324 323 323 323 323
290 292 298 298 302 309 320 329 332 332 332 333 333 333 334 333 333 332 332 332 332 331 332 332 332 332 332 331 330 330 329 329 328 328 327 326 326 326 326 323 322 323 323
289 291 295 295 297 298 300 305 320 328 329 330 330 330 332 332 332 332 332 331 330 330 331 330 330 330 330 329 329 328 329 328 327 327 327 326 326 325 325 322 322 322 322
288 290 292 293 293 293 294 296 298 301 304 305 310 309 312 317 322 328 330 329 329 330 329 328 328 326 325 323 323 325 326 327 326 326 326 325 325 324 324 323 322 321 321
287 288 289 290 291 290 290 290 291 292 293 294 297 299 301 303 305 314 319 321 320 320 320 319 316 315 316 314 313 312 314 315 320 324 324 323 323 322 323 322 322 321 320
287 287 287 288 288 289 288 288 288 288 288 289 289 290 292 293 299 306 309 309 311 311 309 309 310 309 311 309 309 305 305 305 308 315 320 322 322 322 321 321 321 313 308
286 286 287 287 287 287 287 287 286 286 286 287 287 287 287 289 291 296 299 296 292 293 293 295 297 296 299 302 302 302 299 300 300 301 302 309 313 320 321 320 320 317 317
285 286 286 286 286 287 287 287 286 286 285 285 285 285 285 285 288 290 292 292 292 287 287 289 289 290 293 296 298 298 296 295 294 294 294 295 296 302 309 316 320 319 312
284 285 285 286 286 286 286 286 286 286 286 285 285 284 284 284 286 286 289 286 286 285 285 285 285 286 289 294 294 294 293 292 292 293 293 294 294 296 301 307 315 306 294
283 283 284 284 284 285 285 286 286 287 287 286 285 285 284 284 283 283 285 284 283 283 283 282 283 284 284 288 289 289 288 287 289 292 293 293 292 292 294 300 303 308 297
281 282 282 282 282 283 283 284 285 285 285 286 286 284 283 283 284 283 283 284 283 282 282 281 281 282 282 283 284 284 284 285 285 286 286 286 286 285 285 289 294 297 301
281 281 282 280 281 281 280 281 282 282 283 284 284 284 283 282 282 283 283 283 283 283 283 283 282 282 281 281 281 282 283 284 283 282 281 281 281 282 282 282 284 289 291
281 281 281 282 279 279 280 278 279 280 281 281 281 282 282 281 280 281 282 282 283 284 283 283 283 283 283 283 282 282 282 281 281 281 280 280 280 281 283 283 283 283 285
281 281 281 281 281 279 278 278 276 277 278 278 279 278 279 279 279 279 279 281 282 283 284 283 283 284 283 283 282 282 283 283 282 282 281 280 280 280 280 281 281 281 280
281 281 281 281 281 281 278 277 276 275 275 275 276 277 276 276 276 277 278 278 280 282 282 282 282 282 282 282 282 281 281 282 282 283 283 283 283 281 280 280 280 280 280
281 281 280 281 281 280 280 280 278 276 275 274 274 274 275 275 275 276 278 278 278 280 281 280 280 280 280 280 280 280 280 279 280 281 282 282 282 282 281 280 280 280 280
279 280 280 280 280 280 280 279 279 279 278 276 274 274 274 274 274 275 277 278 278 278 279 279 279 279 278 278 278 278 278 278 279 279 280 280 281 281 281 280 280 279 278
278 279 280 279 279 279 279 279 279 279 278 278 276 274 273 274 274 274 275 277 277 277 277 277 276 276 276 277 277 277 277 277 278 278 278 279 280 280 280 279 279 278 278
277 276 278 278 278 278 278 278 278 278 278 277 277 274 272 274 275 274 274 274 275 275 275 275 275 275 275 275 275 275 276 276 276 277 277 278 278 278 278 278 277 276 277
278 276 276 277 277 277 277 277 277 277 277 276 276 274 272 274 275 274 273 273 273 273 273 273 273 273 272 273 273 273 274 274 274 275 276 276 277 277 277 277 277 276 276
277 276 276 276 276 275 275 276 276 275 275 275 275 274 272 273 273 273 273 271 271 271 271 271 271 271 270 271 271 272 272 272 272 273 273 274 274 275 276 276 276 275 275
276 276 275 275 275 275 275 275 275 274 274 274 274 273 272 273 272 272 271 270 270 270 269 269 269 269 269 268 269 269 270 269 269 270 272 273 273 274 274 274 275 275 275
275 275 275 275 275 274 275 274 274 274 273 273 273 272 272 272 271 271 271 270 269 269 268 268 267 267 267 267 267 267 266 266 267 267 268 271 271 272 273 273 273 273 273
275 275 275 275 275 274 274 274 274 273 273 273 272 272 272 271 271 271 271 270 269 268 268 267 267 266 265 264 265 265 263 262 263 265 267 269 270 270 271 271 271 270 271
275 274 274 274 274 274 274 274 274 273 273 273 272 272 271 271 270 270 270 270 269 268 268 267 267 266 265 264 263 262 262 262 262 263 266 268 267 268 267 269 269 270 269
274 274 273 273 273 273 273 273 273 272 272 272 272 272 271 271 270 270 270 269 269 268 267 267 267 266 265 265 264 263 262 262 262 262 264 266 266 268 267 268 268 269 269

GFSGL_925_thetae_120.txt.gz
Theta_e
288 290 292 296 298 300 303 307 307 310 315 323 329 327 318 329 332 333 335 334 334 333 333 333 333 333 335 335 333 333 331 331 329 329 329 329 328 328 327 326 325 323 323
288 290 292 293 295 295 298 302 311 314 318 327 329 326 316 330 333 334 333 333 333 333 332 332 332 333 333 333 333 332 331 330 329 328 329 328 328 327 327 326 325 324 322
288 289 290 291 292 292 293 295 296 300 302 306 316 317 321 325 332 333 333 333 332 332 332 331 332 332 332 333 332 330 330 329 329 328 327 327 327 326 326 326 326 324 323
287 288 288 289 289 290 291 290 291 293 293 295 297 299 300 307 316 326 331 332 332 332 331 330 329 328 329 328 328 324 323 323 324 326 326 325 326 326 325 325 325 324 322
287 287 287 288 288 288 288 289 289 289 291 290 290 292 294 295 301 307 316 315 312 311 310 310 310 307 311 314 315 321 318 314 313 316 318 320 323 324 323 323 324 323 322
286 287 287 287 287 287 287 287 287 287 288 288 288 288 289 290 292 297 298 298 299 296 296 298 300 303 303 303 305 307 308 306 305 307 310 314 316 319 321 322 322 322 314
286 285 286 286 287 287 287 287 286 286 286 286 286 286 286 286 289 289 291 289 289 291 291 291 290 292 296 300 300 301 301 299 298 298 298 298 298 301 299 301 309 320 319
284 285 285 285 285 286 287 287 286 286 285 285 284 285 285 285 285 286 288 290 285 285 286 288 288 289 291 294 297 296 294 294 293 293 292 292 292 291 292 294 298 300 307
283 283 283 283 284 284 285 286 286 286 285 284 284 283 284 285 284 285 285 285 284 283 283 284 285 285 287 290 291 291 290 289 289 290 290 290 291 291 291 295 295 296 300
282 281 281 282 281 282 283 283 284 285 285 284 283 282 282 282 284 284 284 284 284 284 283 283 283 283 283 285 286 285 285 285 287 288 288 289 288 288 289 288 287 289 298
281 282 280 280 281 279 280 280 281 282 282 283 282 281 280 281 281 283 283 284 284 284 284 284 284 284 283 283 283 282 282 283 283 283 284 284 285 285 285 286 286 286 285
282 281 282 280 279 278 277 277 278 279 280 279 279 279 279 279 280 281 282 283 284 284 284 284 284 284 283 283 283 283 283 283 282 282 281 281 281 282 283 283 284 285 285
282 282 282 282 280 279 277 276 276 277 277 278 278 277 277 277 278 279 280 281 283 283 283 283 283 283 283 282 282 282 283 283 284 283 282 282 281 281 282 283 283 284 285
281 282 282 282 281 279 278 276 276 275 275 275 276 276 275 276 277 278 279 279 281 282 282 281 281 281 281 281 281 280 281 281 282 283 283 283 282 282 281 281 281 282 281
282 281 282 282 281 280 278 277 276 276 276 275 275 275 275 275 276 278 279 279 279 281 281 280 280 280 280 279 279 279 279 279 280 281 282 282 282 282 281 280 281 280 281
281 281 280 281 281 281 280 280 279 278 277 276 275 275 275 276 276 276 278 279 278 278 278 278 278 278 278 278 278 278 278 278 279 279 280 280 282 281 281 280 279 279 279
279 280 280 280 280 280 280 280 279 279 279 277 275 274 275 276 276 275 276 277 277 276 277 276 276 276 276 276 276 277 277 277 277 278 278 278 279 279 280 279 279 278 278
277 278 279 279 278 279 279 278 278 278 278 278 277 274 273 275 276 275 274 274 274 274 274 275 274 274 274 274 275 275 276 276 276 276 276 277 278 278 278 277 277 277 277
277 276 278 278 277 277 277 277 277 277 277 277 276 274 272 274 274 274 273 272 272 272 272 272 273 272 272 272 272 273 273 274 274 274 275 275 276 278 278 277 277 276 276
278 276 277 277 277 276 276 276 276 276 276 275 275 273 273 273 273 273 272 271 271 271 270 270 271 271 270 270 270 270 271 271 271 271 273 273 274 275 276 276 276 276 275
277 277 276 276 276 275 276 275 275 275 275 274 274 274 273 273 273 272 272 271 270 270 269 268 269 269 268 268 268 268 269 269 269 269 270 271 273 274 274 275 275 275 275
277 276 277 276 276 275 275 275 274 275 274 274 274 273 272 272 272 272 271 270 270 269 269 268 267 267 266 266 267 266 266 266 266 267 268 269 271 272 273 273 273 274 273
276 276 276 276 276 275 275 275 274 274 274 274 273 273 272 272 271 271 271 271 270 269 268 268 267 267 266 265 265 264 264 263 263 264 266 268 269 269 271 272 271 271 271
276 275 275 275 275 275 275 274 274 274 274 273 273 273 272 272 271 271 270 270 270 269 268 268 267 267 266 265 264 263 263 262 262 264 265 266 268 268 269 269 270 271 271
275 275 274 274 274 274 274 273 273 273 273 272 272 272 272 272 271 271 270 270 269 269 268 267 267 267 266 265 265 264 263 263 262 263 265 266 267 268 268 268 269 269 269
274 274 273 273 273 272 272 271 271 271 271 271 271 271 271 270 270 270 270 270 269 268 268 268 268 267 266 265 265 264 263 263 262 263 263 264 265 265 266 267 267 269 268